[[{"header":{"parameterUnit":"m.s-1","parameterCategory":1,"la1":30.6,"la2":29.2853,"lo1":-89.7004,"lo2":-87.6739,"dy":0.0162,"dx":0.0183,"nx":112,"ny":82,"refTime":"2026-05-06T00:00:00:Z","depth":0,"parameterNumber":2,"parameterNumberName":"U-component_of_WINDS"},"data":[0.0,0.0,0.0,0.0,0.0,0.0,0.0,0.0,0.0,0.0,0.0,0.0,0.0,0.0,0.0,0.0,0.0,0.0,0.0,0.0,0.0,0.0,0.0,0.0,0.0,0.0,0.0,0.0,0.0,0.0,0.0,0.0,0.0,0.0,0.0,0.0,0.0,0.0,0.0,0.0,0.0,0.0,0.0,0.0,0.0,0.0,0.0,0.0,0.0,0.0,0.0,0.0,0.0,0.0,0.0,0.0,0.0,0.0,0.0,0.0,0.0,0.0,0.0,0.0,0.0,0.0,0.0,0.0,0.0,0.0,0.0,0.0,0.0,0.0,0.0,0.0,0.0,0.0,0.0,0.0,0.0,0.0,0.0,0.0,0.0,0.0,0.0,0.0,0.0,0.0,-2.0538,-2.1749,-2.268,-2.3376,-2.3774,-2.3806,-2.3687,-2.3409,0.0,0.0,0.0,0.0,0.0,0.0,0.0,0.0,0.0,0.0,0.0,0.0,0.0,0.0,0.0,0.0,0.0,0.0,0.0,0.0,0.0,0.0,0.0,0.0,0.0,0.0,0.0,0.0,0.0,0.0,0.0,0.0,0.0,0.0,0.0,0.0,0.0,0.0,0.0,0.0,0.0,0.0,0.0,0.0,0.0,0.0,0.0,0.0,0.0,0.0,0.0,0.0,0.0,0.0,0.0,0.0,0.0,0.0,0.0,0.0,0.0,0.0,0.0,0.0,0.0,0.0,0.0,0.0,0.0,0.0,0.0,0.0,0.0,0.0,0.0,0.0,0.0,0.0,0.0,0.0,0.0,0.0,0.0,0.0,0.0,0.0,0.0,0.0,0.0,0.0,0.0,0.0,0.0,0.0,0.0,0.0,0.0,0.0,0.0,0.0,0.0,0.0,0.0,0.0,-2.1074,-2.3017,-2.3497,-2.3732,-2.3795,-2.3806,-2.3916,-2.4205,0.0,0.0,0.0,0.0,0.0,0.0,0.0,0.0,0.0,0.0,0.0,0.0,0.0,0.0,0.0,0.0,0.0,0.0,0.0,0.0,0.0,0.0,0.0,0.0,0.0,0.0,0.0,0.0,0.0,0.0,0.0,0.0,0.0,0.0,0.0,0.0,0.0,0.0,0.0,0.0,0.0,0.0,0.0,0.0,0.0,0.0,0.0,0.0,0.0,0.0,0.0,0.0,0.0,0.0,0.0,0.0,0.0,0.0,0.0,0.0,0.0,0.0,0.0,0.0,0.0,0.0,0.0,0.0,0.0,0.0,0.0,0.0,0.0,0.0,0.0,0.0,0.0,0.0,0.0,0.0,0.0,0.0,0.0,0.0,0.0,0.0,0.0,0.0,0.0,0.0,0.0,0.0,0.0,0.0,0.0,0.0,0.0,0.0,0.0,0.0,0.0,0.0,0.0,-2.1161,-2.1803,-2.3345,-2.3576,-2.3667,-2.3795,-2.3806,-2.3971,-2.4372,-2.2834,0.0,0.0,0.0,0.0,0.0,0.0,0.0,0.0,0.0,0.0,0.0,0.0,0.0,0.0,0.0,0.0,0.0,0.0,0.0,0.0,0.0,0.0,0.0,0.0,0.0,0.0,0.0,0.0,0.0,0.0,0.0,0.0,0.0,0.0,0.0,0.0,0.0,0.0,0.0,0.0,0.0,0.0,0.0,0.0,0.0,0.0,0.0,0.0,0.0,0.0,0.0,0.0,0.0,0.0,0.0,0.0,0.0,0.0,0.0,0.0,0.0,0.0,0.0,0.0,0.0,0.0,0.0,0.0,0.0,0.0,0.0,0.0,0.0,0.0,0.0,0.0,0.0,0.0,0.0,0.0,0.0,0.0,0.0,0.0,0.0,0.0,0.0,0.0,0.0,0.0,0.0,0.0,0.0,0.0,0.0,0.0,0.0,0.0,0.0,0.0,0.0,0.0,-2.2358,-2.3159,-2.4043,-2.3959,-2.3929,-2.4074,-2.3741,-2.3716,-2.4094,-2.2537,0.0,0.0,0.0,0.0,0.0,0.0,0.0,0.0,0.0,0.0,0.0,0.0,0.0,0.0,0.0,0.0,0.0,0.0,0.0,0.0,0.0,0.0,0.0,0.0,0.0,0.0,0.0,0.0,0.0,0.0,0.0,0.0,0.0,0.0,0.0,0.0,0.0,0.0,0.0,0.0,0.0,0.0,0.0,0.0,0.0,0.0,0.0,0.0,0.0,0.0,0.0,0.0,0.0,0.0,0.0,0.0,0.0,0.0,0.0,0.0,0.0,0.0,0.0,0.0,0.0,0.0,0.0,0.0,0.0,0.0,0.0,0.0,0.0,0.0,0.0,0.0,0.0,0.0,0.0,0.0,0.0,0.0,0.0,0.0,0.0,0.0,0.0,0.0,0.0,0.0,0.0,0.0,0.0,0.0,0.0,0.0,0.0,0.0,0.0,0.0,0.0,0.0,-2.4052,-2.5654,-2.5983,-2.5348,-2.4896,-2.4918,-2.3604,-2.2911,-2.3252,-2.171,0.0,0.0,0.0,0.0,0.0,0.0,0.0,0.0,0.0,0.0,0.0,0.0,0.0,0.0,0.0,0.0,0.0,0.0,0.0,0.0,0.0,0.0,0.0,0.0,0.0,0.0,0.0,0.0,0.0,0.0,0.0,0.0,0.0,0.0,0.0,0.0,0.0,0.0,0.0,0.0,0.0,0.0,0.0,0.0,0.0,0.0,0.0,0.0,0.0,0.0,0.0,0.0,0.0,0.0,0.0,0.0,0.0,0.0,0.0,0.0,0.0,0.0,0.0,0.0,0.0,0.0,0.0,0.0,0.0,0.0,0.0,0.0,0.0,0.0,0.0,0.0,0.0,0.0,0.0,0.0,0.0,0.0,0.0,0.0,0.0,0.0,0.0,0.0,0.0,0.0,0.0,0.0,0.0,0.0,0.0,0.0,0.0,0.0,0.0,0.0,0.0,0.0,-2.3578,-2.5146,-2.5882,-2.5377,-2.5009,-2.5009,-2.4013,-2.3331,-2.3215,0.0,0.0,0.0,0.0,0.0,0.0,0.0,0.0,0.0,0.0,0.0,0.0,0.0,0.0,0.0,0.0,0.0,0.0,0.0,0.0,0.0,0.0,0.0,0.0,0.0,0.0,0.0,0.0,0.0,0.0,0.0,0.0,0.0,0.0,0.0,0.0,0.0,0.0,0.0,0.0,0.0,0.0,0.0,0.0,0.0,0.0,0.0,0.0,0.0,0.0,0.0,0.0,0.0,0.0,0.0,0.0,0.0,0.0,0.0,0.0,0.0,0.0,0.0,0.0,0.0,0.0,0.0,0.0,0.0,0.0,0.0,0.0,0.0,0.0,0.0,0.0,0.0,0.0,0.0,0.0,0.0,0.0,0.0,0.0,0.0,0.0,0.0,0.0,0.0,0.0,0.0,0.0,0.0,0.0,0.0,0.0,0.0,0.0,0.0,0.0,0.0,0.0,-2.1901,-2.3859,-2.5569,-2.6432,-2.6002,-2.5569,-2.5396,-2.4411,-2.3513,-2.2836,0.0,0.0,0.0,0.0,0.0,0.0,0.0,0.0,0.0,0.0,0.0,0.0,0.0,0.0,0.0,0.0,0.0,0.0,0.0,0.0,0.0,0.0,0.0,0.0,0.0,0.0,0.0,0.0,0.0,0.0,0.0,0.0,0.0,0.0,0.0,0.0,0.0,0.0,0.0,0.0,0.0,0.0,0.0,0.0,0.0,0.0,0.0,0.0,0.0,0.0,0.0,0.0,0.0,0.0,0.0,0.0,0.0,0.0,0.0,0.0,0.0,0.0,0.0,0.0,0.0,0.0,0.0,0.0,0.0,0.0,0.0,0.0,0.0,0.0,0.0,0.0,0.0,0.0,0.0,0.0,0.0,0.0,0.0,0.0,0.0,0.0,0.0,0.0,0.0,0.0,0.0,0.0,0.0,0.0,0.0,0.0,0.0,0.0,0.0,0.0,0.0,0.0,-2.263,-2.533,-2.7444,-2.8034,-2.7442,-2.679,-2.6241,-2.4737,-2.3257,0.0,0.0,0.0,0.0,0.0,0.0,0.0,0.0,0.0,0.0,0.0,0.0,0.0,0.0,0.0,0.0,0.0,0.0,0.0,0.0,0.0,0.0,0.0,0.0,0.0,0.0,0.0,0.0,0.0,0.0,0.0,0.0,0.0,0.0,0.0,0.0,0.0,0.0,0.0,0.0,0.0,0.0,0.0,0.0,0.0,0.0,0.0,0.0,0.0,0.0,0.0,0.0,0.0,0.0,0.0,0.0,0.0,0.0,0.0,0.0,0.0,0.0,0.0,0.0,0.0,0.0,0.0,0.0,0.0,0.0,0.0,0.0,0.0,0.0,0.0,0.0,0.0,0.0,0.0,0.0,0.0,0.0,0.0,0.0,0.0,0.0,0.0,0.0,0.0,0.0,0.0,0.0,0.0,0.0,0.0,0.0,0.0,0.0,0.0,0.0,0.0,0.0,0.0,-2.2442,-2.5232,-2.7276,-2.7459,-2.7197,-2.6701,-2.5977,-2.5131,-2.3826,-2.1885,0.0,0.0,0.0,0.0,0.0,0.0,0.0,0.0,0.0,0.0,0.0,0.0,0.0,0.0,0.0,0.0,0.0,0.0,0.0,0.0,0.0,0.0,0.0,0.0,0.0,0.0,0.0,0.0,0.0,0.0,0.0,0.0,0.0,0.0,0.0,0.0,0.0,0.0,0.0,0.0,0.0,0.0,0.0,0.0,0.0,0.0,0.0,0.0,0.0,0.0,0.0,0.0,0.0,0.0,0.0,0.0,0.0,0.0,0.0,0.0,0.0,0.0,0.0,0.0,0.0,0.0,0.0,0.0,0.0,0.0,0.0,0.0,0.0,0.0,0.0,0.0,0.0,0.0,0.0,0.0,0.0,0.0,0.0,0.0,0.0,0.0,0.0,0.0,0.0,0.0,0.0,0.0,0.0,0.0,0.0,0.0,0.0,0.0,0.0,0.0,0.0,0.0,-2.2144,-2.4832,-2.6856,-2.7165,-2.7133,-2.6851,-2.6315,-2.5691,-2.4548,-2.2767,0.0,0.0,0.0,0.0,0.0,0.0,0.0,0.0,0.0,0.0,0.0,0.0,0.0,0.0,0.0,0.0,0.0,0.0,0.0,0.0,0.0,0.0,0.0,0.0,0.0,0.0,0.0,0.0,0.0,0.0,0.0,0.0,0.0,0.0,0.0,0.0,0.0,0.0,0.0,0.0,0.0,0.0,0.0,0.0,0.0,0.0,0.0,0.0,0.0,0.0,0.0,0.0,0.0,0.0,0.0,0.0,0.0,0.0,0.0,0.0,0.0,0.0,0.0,0.0,0.0,0.0,0.0,0.0,0.0,0.0,0.0,0.0,0.0,0.0,0.0,0.0,0.0,0.0,0.0,0.0,0.0,0.0,0.0,0.0,0.0,0.0,0.0,0.0,0.0,0.0,0.0,0.0,0.0,0.0,0.0,0.0,0.0,0.0,0.0,0.0,0.0,0.0,-2.1897,-2.4348,-2.6316,-2.7068,-2.7149,-2.707,-2.693,-2.6231,-2.5291,-2.4105,0.0,0.0,0.0,0.0,0.0,0.0,0.0,0.0,0.0,0.0,0.0,0.0,0.0,0.0,0.0,0.0,0.0,0.0,0.0,0.0,0.0,0.0,0.0,0.0,0.0,0.0,0.0,0.0,0.0,0.0,0.0,0.0,0.0,0.0,0.0,0.0,0.0,0.0,0.0,0.0,0.0,0.0,0.0,0.0,0.0,0.0,0.0,0.0,0.0,0.0,0.0,0.0,0.0,0.0,0.0,0.0,0.0,0.0,0.0,0.0,-1.7381,-1.7257,0.0,0.0,0.0,0.0,0.0,0.0,0.0,0.0,0.0,0.0,0.0,0.0,0.0,0.0,0.0,0.0,0.0,0.0,0.0,0.0,0.0,0.0,0.0,0.0,0.0,0.0,0.0,0.0,0.0,0.0,0.0,0.0,0.0,0.0,0.0,0.0,0.0,0.0,0.0,0.0,-2.2527,-2.4408,-2.5926,-2.6708,-2.6757,-2.6581,-2.6246,-2.5963,-2.5146,-2.365,-2.2338,0.0,0.0,0.0,0.0,0.0,0.0,0.0,0.0,0.0,0.0,0.0,0.0,0.0,0.0,0.0,0.0,0.0,0.0,0.0,0.0,0.0,0.0,0.0,0.0,0.0,0.0,0.0,0.0,0.0,0.0,0.0,0.0,0.0,0.0,0.0,0.0,0.0,0.0,0.0,0.0,0.0,0.0,0.0,0.0,0.0,0.0,0.0,0.0,0.0,0.0,0.0,0.0,0.0,0.0,0.0,0.0,0.0,0.0,0.0,-1.7982,-1.7734,0.0,0.0,0.0,0.0,0.0,0.0,0.0,0.0,0.0,0.0,0.0,0.0,0.0,0.0,0.0,0.0,0.0,0.0,0.0,0.0,0.0,0.0,0.0,0.0,0.0,0.0,0.0,0.0,0.0,0.0,0.0,0.0,0.0,0.0,0.0,0.0,0.0,0.0,0.0,0.0,-2.2264,-2.421,-2.5726,-2.6367,-2.6556,-2.6621,-2.6583,-2.6156,-2.5693,-2.5162,-2.3443,0.0,0.0,0.0,0.0,0.0,0.0,0.0,0.0,0.0,0.0,0.0,0.0,0.0,0.0,0.0,0.0,0.0,0.0,0.0,0.0,0.0,0.0,0.0,0.0,0.0,0.0,0.0,0.0,0.0,0.0,0.0,0.0,0.0,0.0,0.0,0.0,0.0,0.0,0.0,0.0,0.0,0.0,0.0,0.0,0.0,0.0,0.0,0.0,0.0,0.0,0.0,0.0,0.0,-1.7963,-1.8174,-1.8194,-1.8961,-1.9471,-1.9653,-1.8291,-1.8081,-1.8616,-1.7739,0.0,0.0,0.0,0.0,0.0,0.0,0.0,0.0,0.0,0.0,0.0,0.0,0.0,0.0,0.0,0.0,0.0,0.0,0.0,0.0,0.0,0.0,-2.0516,-2.0924,-2.1223,-2.1037,-1.9649,0.0,0.0,0.0,0.0,0.0,0.0,0.0,0.0,0.0,0.0,0.0,-2.2076,-2.4026,-2.5465,-2.5944,-2.628,-2.6607,-2.6972,-2.6382,-2.6222,-2.6778,-2.4718,-2.3694,0.0,0.0,0.0,0.0,0.0,0.0,0.0,0.0,0.0,0.0,0.0,0.0,0.0,0.0,0.0,0.0,0.0,0.0,0.0,0.0,0.0,0.0,0.0,0.0,0.0,0.0,0.0,0.0,0.0,0.0,0.0,0.0,-1.206,-1.2451,0.0,0.0,0.0,0.0,0.0,0.0,0.0,0.0,0.0,0.0,0.0,0.0,0.0,-1.7687,-1.8214,-1.9085,-1.9489,-1.9421,-1.9848,-2.0034,-2.0044,-2.0158,-2.0245,-2.0305,-2.0428,0.0,-2.0549,-1.9626,0.0,0.0,0.0,0.0,0.0,0.0,0.0,0.0,0.0,0.0,0.0,0.0,0.0,0.0,0.0,0.0,0.0,0.0,0.0,0.0,0.0,0.0,-2.3373,-2.3417,-2.3476,-2.3154,-2.1851,-2.0587,-1.9681,-1.9554,-1.9202,-1.8823,0.0,0.0,0.0,0.0,0.0,0.0,-2.3361,-2.4064,-2.4675,-2.5503,-2.5559,-2.574,-2.6119,-2.6063,-2.6014,-2.6044,-2.4712,-2.4085,-2.442,-2.2726,0.0,0.0,0.0,0.0,0.0,0.0,0.0,0.0,0.0,0.0,0.0,0.0,0.0,0.0,0.0,0.0,0.0,0.0,0.0,0.0,0.0,0.0,0.0,0.0,0.0,0.0,0.0,0.0,0.0,-1.2362,-1.2779,-1.302,-1.3433,-1.3598,0.0,0.0,0.0,0.0,0.0,0.0,0.0,0.0,0.0,-1.8277,-1.8633,-1.9019,-1.952,-1.9934,-2.0131,-2.0131,-2.0338,-2.0385,-2.0395,-2.0653,-2.0777,-2.0834,-2.124,-2.1439,-2.1382,-2.0395,-1.9649,-1.9036,0.0,0.0,0.0,0.0,-1.8662,-1.8888,-2.04,-2.1194,-2.1497,-2.1291,0.0,0.0,0.0,0.0,0.0,0.0,0.0,-2.21,-2.2658,-2.2924,-2.3137,-2.342,-2.3484,-2.3296,-2.2736,-2.2325,-2.173,-2.0636,-2.0494,-2.0337,-1.9619,-1.9393,0.0,0.0,0.0,-2.19,-2.327,-2.4118,-2.4735,-2.5059,-2.5272,-2.5572,-2.5975,-2.5997,-2.6184,-2.6603,-2.565,-2.5289,-2.5759,-2.4191,-2.3122,0.0,0.0,0.0,0.0,0.0,0.0,0.0,0.0,0.0,0.0,0.0,0.0,0.0,0.0,0.0,0.0,0.0,0.0,0.0,0.0,0.0,0.0,0.0,0.0,0.0,0.0,0.0,0.0,-1.3922,-1.412,-1.4045,-1.4618,-1.4711,0.0,0.0,0.0,0.0,0.0,0.0,-1.7706,-1.7927,-1.8535,-1.9684,-1.9978,-2.0265,-2.056,-2.0684,-2.0798,-2.0948,-2.0948,-2.101,-2.1135,-2.1362,-2.1466,-2.1476,-2.1704,-2.1807,-2.1714,-2.0862,-2.0146,-1.9585,-1.9085,-1.8839,-1.8752,-1.9432,-1.9764,-2.009,-2.1584,-2.2494,-2.2868,-2.2266,-2.2501,-2.2728,-2.1355,0.0,0.0,0.0,0.0,-2.316,-2.3563,-2.3367,-2.3132,-2.3365,-2.3384,-2.3312,-2.3165,-2.3444,-2.3278,-2.1717,-2.1722,-2.1643,-2.0555,-2.0458,0.0,-2.066,-2.1386,-2.2275,-2.3198,-2.4085,-2.4619,-2.4594,-2.4922,-2.5272,-2.5575,-2.5815,-2.6192,-2.6791,-2.6297,-2.6241,-2.6774,-2.5394,-2.4423,-2.3981,0.0,0.0,0.0,0.0,0.0,0.0,0.0,0.0,0.0,0.0,0.0,0.0,0.0,0.0,0.0,0.0,0.0,0.0,0.0,0.0,0.0,0.0,0.0,0.0,0.0,0.0,0.0,0.0,0.0,-1.6016,-1.7048,0.0,0.0,0.0,0.0,-1.6602,-1.6807,-1.7573,-1.9018,-1.9286,-1.9684,-2.0333,-2.0788,-2.1062,-2.1073,-2.1518,-2.1952,-2.2387,-2.2387,-2.2625,-2.3039,-2.2615,-2.2428,-2.2408,-2.1983,-2.1807,-2.1766,-2.1259,-2.1031,-2.0969,-2.0467,-2.0286,-2.0326,-2.0755,-2.0906,-2.1059,-2.1912,-2.223,-2.2377,-2.3157,-2.2986,-2.2543,-2.2995,-2.2767,0.0,0.0,-2.4399,-2.4874,-2.49,-2.4887,-2.4743,-2.4191,-2.4047,-2.3893,-2.3317,-2.3227,-2.3176,-2.2933,-2.2513,-2.1912,-2.1023,0.0,-2.0204,-2.1528,-2.1621,-2.2127,-2.3746,-2.3909,-2.3903,-2.4024,-2.4277,-2.4466,-2.4477,-2.531,-2.5813,-2.5777,-2.6086,-2.6437,-2.679,-2.5993,-2.5287,-2.477,-2.339,0.0,0.0,0.0,0.0,0.0,0.0,0.0,0.0,0.0,0.0,0.0,0.0,0.0,0.0,0.0,0.0,0.0,0.0,0.0,0.0,0.0,0.0,0.0,0.0,0.0,0.0,0.0,0.0,-1.7305,-1.7959,0.0,-1.7168,-1.7471,-1.7817,-1.8109,-1.8869,-1.9706,-2.0636,-2.1138,-2.1659,-2.219,-2.2366,-2.2449,-2.2449,-2.2615,-2.278,-2.2946,-2.2946,-2.3029,-2.3184,-2.3018,-2.2946,-2.2925,-2.277,-2.2697,-2.2687,-2.2511,-2.1921,-2.1093,-2.0938,-2.0978,-2.1139,-2.129,-2.1583,-2.2012,-2.2298,-2.2685,-2.3167,-2.3557,-2.329,-2.2855,-2.3319,-2.3264,-2.3238,-2.3917,-2.4265,-2.45,-2.4918,-2.4703,-2.4457,-2.4641,-2.4378,-2.397,-2.3449,-2.3567,-2.355,-2.2824,-2.2721,-2.2572,-2.1923,-2.2145,-2.2207,-2.1638,-2.2388,-2.3138,-2.34,-2.3711,-2.3903,-2.3882,-2.3973,-2.411,-2.4384,-2.4712,-2.5047,-2.5351,-2.5721,-2.605,-2.6403,-2.6337,-2.6076,-2.5584,-2.5123,-2.3901,0.0,0.0,0.0,0.0,0.0,0.0,0.0,0.0,0.0,0.0,0.0,0.0,0.0,0.0,0.0,0.0,0.0,0.0,0.0,0.0,0.0,0.0,0.0,0.0,0.0,-1.7507,-1.8281,-1.8418,-1.9199,-1.9416,-1.8721,-1.9143,-1.9576,-1.9796,-2.0577,-2.131,-2.1941,-2.2445,-2.2873,-2.3174,-2.3184,-2.3184,-2.3184,-2.3184,-2.3267,-2.3422,-2.3422,-2.3494,-2.3639,-2.3484,-2.3422,-2.3412,-2.3256,-2.3184,-2.3184,-2.3184,-2.2646,-2.1818,-2.1818,-2.1922,-2.2056,-2.2056,-2.2338,-2.2694,-2.2565,-2.2889,-2.3435,-2.3351,-2.3299,-2.3268,-2.3514,-2.3677,-2.3908,-2.4311,-2.4464,-2.4597,-2.4912,-2.4686,-2.446,-2.4639,-2.4267,-2.3791,-2.3471,-2.3504,-2.3369,-2.2665,-2.2847,-2.2964,-2.2428,-2.2929,-2.3002,-2.1871,-2.2648,-2.3226,-2.2803,-2.3268,-2.3588,-2.3501,-2.3841,-2.4087,-2.4131,-2.4477,-2.4756,-2.4883,-2.5368,-2.5726,-2.5949,-2.5977,-2.5849,-2.5525,-2.5318,-2.4425,-2.2809,0.0,0.0,0.0,0.0,0.0,0.0,0.0,0.0,0.0,0.0,0.0,0.0,0.0,0.0,0.0,0.0,0.0,0.0,0.0,0.0,0.0,0.0,0.0,-1.7895,-1.9032,-1.9795,-1.9414,-2.0859,-2.1387,-2.0098,-2.0713,-2.133,-2.159,-2.182,-2.2231,-2.2859,-2.3104,-2.3266,-2.3266,-2.3266,-2.3266,-2.3266,-2.3266,-2.3494,-2.394,-2.394,-2.4126,-2.4487,-2.4095,-2.394,-2.3867,-2.3422,-2.3225,-2.3225,-2.3225,-2.3225,-2.3225,-2.3194,-2.3184,-2.3184,-2.3184,-2.3184,-2.3122,-2.2677,-2.2786,-2.3023,-2.2556,-2.2993,-2.3678,-2.3716,-2.4066,-2.4563,-2.4938,-2.5155,-2.5203,-2.503,-2.4964,-2.4817,-2.4242,-2.3761,-2.3401,-2.3389,-2.2966,-2.2634,-2.2592,-2.2925,-2.3067,-2.2505,-2.244,-2.2405,-2.2353,-2.2334,0.0,-2.2123,-2.2578,-2.291,-2.2867,-2.3873,-2.4291,-2.3663,-2.4602,-2.4967,-2.4337,-2.502,-2.5465,-2.5465,-2.4924,-2.4619,-2.4619,-2.3887,-2.3667,-2.4001,0.0,0.0,0.0,0.0,0.0,0.0,0.0,0.0,0.0,0.0,0.0,0.0,0.0,0.0,0.0,0.0,0.0,0.0,0.0,0.0,0.0,-1.9145,-2.002,-1.9421,-1.9961,-2.0586,-2.1103,-2.1602,-2.1738,-2.1387,-2.1562,-2.1781,-2.2016,-2.253,-2.2968,-2.3339,-2.3865,-2.4441,-2.5076,-2.5076,-2.5076,-2.5076,-2.5076,-2.4829,-2.4321,-2.4321,-2.4373,-2.4497,-2.4373,-2.4321,-2.4311,-2.4177,-2.4125,-2.4125,-2.4125,-2.4125,-2.4063,-2.3443,-2.3184,-2.3184,-2.3184,-2.3184,-2.3163,-2.3039,-2.3078,-2.3127,-2.3002,-2.3123,-2.3387,-2.3665,-2.3892,-2.4078,-2.447,-2.4386,-2.4288,-2.4913,-2.4538,-2.4107,-2.4614,-2.4059,-2.3302,-2.2975,-2.3034,-2.3065,-2.2695,-2.3297,-2.3709,-2.3222,-2.3138,-2.3077,-2.2969,-2.3272,-2.3214,-2.2358,-2.3038,-2.3285,-2.2413,-2.2998,-2.3535,-2.3793,-2.3651,-2.3822,-2.4483,-2.4585,-2.4619,-2.4619,-2.4748,-2.4828,-2.4828,-2.4089,-2.3761,0.0,0.0,0.0,0.0,0.0,0.0,0.0,0.0,0.0,0.0,0.0,0.0,0.0,0.0,0.0,0.0,0.0,0.0,0.0,0.0,0.0,0.0,-2.0892,-2.1961,-2.21,-2.168,-2.1725,-2.26,-2.2505,-2.2571,-2.295,-2.2614,-2.2856,-2.3908,-2.3918,-2.42,-2.4972,-2.5282,-2.5715,-2.6318,-2.6359,-2.6471,-2.6724,-2.6724,-2.6572,-2.6313,-2.5904,-2.5699,-2.5645,-2.5076,-2.4786,-2.4776,-2.458,-2.4497,-2.4497,-2.4497,-2.4497,-2.4445,0.0,0.0,0.0,0.0,-2.3753,-2.3732,-2.3546,-2.3474,-2.3443,-2.3246,-2.3318,-2.3556,-2.376,-2.3841,-2.3912,-2.4307,-2.4093,-2.3868,-2.4366,-2.4221,-2.3968,-2.4343,-2.3896,-2.3289,-2.2807,-2.2903,-2.2954,-2.2408,-2.295,0.0,-2.339,-2.3552,-2.3583,-2.3258,-2.3462,-2.3338,-2.2457,-2.3061,-2.3301,-2.2594,-2.3289,-2.3829,-2.3893,-2.3817,0.0,0.0,0.0,-2.4621,-2.4312,-2.4238,0.0,0.0,0.0,0.0,0.0,0.0,0.0,0.0,-2.4482,-2.4418,0.0,0.0,0.0,0.0,0.0,0.0,0.0,0.0,0.0,0.0,0.0,0.0,0.0,0.0,0.0,0.0,-2.2421,-2.3774,-2.509,-2.3836,-2.3102,-2.3919,-2.3654,-2.3734,-2.4584,-2.3897,-2.4264,-2.6359,-2.5622,-2.5696,-2.712,-2.7072,0.0,0.0,0.0,-2.7706,-2.8221,-2.8233,-2.8441,-2.8772,-2.7973,-2.7459,-2.725,-2.5992,-2.5363,-2.5168,-2.4755,-2.4549,-2.4497,-2.4497,-2.4497,-2.4497,-2.4497,-2.4497,-2.4497,-2.4497,-2.4497,-2.4445,-2.4084,0.0,0.0,-2.3474,-2.3619,-2.395,-2.395,-2.395,-2.4033,-2.4345,-2.4131,-2.3796,-2.3746,-2.3968,-2.4145,-2.3716,-2.3512,-2.327,-2.2788,-2.2716,-2.2543,-2.1984,-2.2329,-2.2829,-2.333,-2.376,-2.3842,-2.3365,-2.3287,-2.3091,-2.257,-2.2897,-2.3164,-2.303,-2.4035,0.0,-2.3961,-2.4389,-2.4744,-2.4823,-2.52,-2.5138,-2.4474,-2.3871,-2.3841,-2.4434,-2.4449,-2.5203,-2.6761,-2.6761,-2.6792,-2.6823,-2.4939,-2.4724,0.0,0.0,0.0,0.0,0.0,0.0,0.0,0.0,0.0,0.0,0.0,0.0,0.0,0.0,0.0,-2.1662,-2.3229,-2.4794,-2.5791,-2.5133,-2.4728,-2.5342,-2.5346,-2.5358,-2.5537,-2.5358,-2.561,-2.6431,-2.6685,-2.7119,-2.7782,-2.818,-2.8738,-2.9517,-2.9517,-2.9565,-2.9672,-2.9672,-2.9371,-2.8815,-2.86,0.0,-2.7305,-2.6997,-2.6287,-2.5179,-2.5096,-2.4848,-2.4497,-2.4497,-2.4497,-2.4497,-2.4497,-2.4497,-2.4497,-2.4497,-2.4497,-2.4487,-2.4404,-2.4373,-2.4352,-2.427,-2.4301,-2.4373,-2.4373,-2.4373,0.0,-2.4448,-2.4168,-2.3886,-2.3807,-2.3794,-2.3792,-2.3642,-2.3512,-2.327,-2.2788,-2.2716,-2.2543,-2.1984,-2.2641,-2.3271,-2.3373,-2.3492,-2.3632,-2.3897,-2.3913,-2.3704,-2.3104,-2.3557,-2.3561,-2.2628,-2.3132,-2.3673,-2.4041,-2.3673,-2.405,-2.5416,-2.5544,-2.5503,-2.5341,-2.5228,-2.5228,-2.5364,-2.5341,-2.5507,-2.5855,-2.5855,-2.6127,-2.665,-2.6408,-2.6435,0.0,0.0,0.0,0.0,0.0,0.0,0.0,0.0,0.0,0.0,0.0,-1.8259,-1.9381,0.0,-2.2994,-2.327,-2.4494,-2.5794,-2.6752,-2.6574,-2.6308,-2.6102,-2.5926,-2.6027,-2.6607,-2.6499,-2.6967,-2.8309,-2.8354,-2.8771,-2.9641,-2.9851,-3.0205,-3.0716,-3.0758,-3.0881,-3.1164,-3.1164,-3.1076,-3.0948,-3.0418,-2.994,-2.9433,-2.8449,-2.7621,-2.69,-2.5905,-2.536,-2.5105,-2.47,-2.4497,-2.4497,-2.4497,-2.4497,-2.4497,-2.4497,-2.4497,-2.4497,-2.4497,-2.4497,-2.4497,-2.4497,-2.4497,-2.4497,-2.4497,-2.4497,-2.4497,-2.4497,-2.4385,-2.4095,-2.3604,-2.3607,-2.3636,-2.3101,-2.3267,-2.3283,-2.2559,-2.2736,-2.2808,-2.2032,-2.2506,-2.3065,-2.336,-2.3403,-2.3552,-2.4024,-2.4083,-2.3979,-2.3678,-2.39,-2.3874,-2.33,-2.3483,-2.3651,-2.3642,-2.3622,-2.4094,-2.5265,-2.5303,-2.5259,-2.5259,-2.493,-2.5024,-2.5653,-2.5653,-2.5962,-2.6587,-2.6587,-2.6752,-2.7091,-2.7204,-2.7264,0.0,0.0,0.0,0.0,0.0,0.0,0.0,-1.4992,-1.5802,-1.7615,-1.8268,-1.9123,-2.1177,-2.2409,-2.3502,-2.4558,-2.5415,-2.625,-2.709,-2.7344,-2.7248,-2.6632,-2.646,-2.673,-2.7678,-2.764,-2.8355,-3.0143,-3.0029,-3.0368,-3.1508,-3.1497,-3.1572,-3.1712,-3.1712,-3.1938,-3.2378,-3.2378,-3.2616,-3.3081,-3.2264,-3.1801,-3.1557,-2.9977,-2.9054,-2.8597,-2.6657,-2.5777,-2.5746,-2.4861,-2.4497,-2.4497,-2.4497,-2.4497,-2.4497,-2.4497,-2.4497,-2.4497,-2.4497,-2.4497,-2.4497,-2.4497,-2.4497,-2.4497,-2.4497,-2.4497,-2.4497,-2.4497,-2.4497,-2.429,-2.3422,-2.3507,-2.3583,-2.2702,-2.3075,-2.3358,-2.2531,-2.2821,-2.2975,-2.2064,-2.2228,-2.2616,-2.3017,-2.3271,-2.3552,-2.4024,-2.4083,-2.4083,-2.4083,-2.4083,-2.4083,-2.4083,-2.4083,-2.3887,-2.3404,-2.3928,-2.449,-2.4978,-2.5051,-2.508,-2.508,-2.4551,-2.4716,-2.5704,-2.5704,-2.6221,-2.724,-2.724,-2.724,-2.724,-2.724,-2.7382,-1.3114,-1.345,-1.3959,-1.433,-1.4596,-1.5176,0.0,-1.7061,-1.7573,-1.9144,-2.0141,-2.1005,-2.1937,-2.3113,-2.4005,-2.4166,-2.4873,-2.5444,-2.5564,-2.6142,-2.6687,-2.7085,-2.79,-2.8502,-2.8633,-2.9262,-2.9833,-3.0276,-3.1137,-3.1749,-3.2072,-3.2604,-3.2893,-3.2893,-3.2893,-3.296,-3.298,-3.298,-3.3018,-3.3124,-3.2982,-3.2438,-3.1581,-3.136,-3.0351,-2.8597,-2.6657,-2.5777,-2.5746,-2.4861,-2.4497,-2.4497,-2.4497,-2.4497,-2.4497,-2.4497,-2.4497,-2.4497,-2.4497,-2.4497,-2.4497,-2.4497,-2.4497,-2.4497,-2.4497,-2.4497,-2.4497,-2.4497,-2.4497,-2.429,-2.3422,-2.3507,-2.3662,-2.308,-2.3261,-2.352,-2.33,-2.2995,-2.2602,-2.2016,-2.1925,-2.2002,-2.2063,-2.2793,-2.3552,-2.4024,-2.4083,-2.4083,-2.4083,-2.4083,-2.4083,-2.4083,-2.4083,-2.4057,-2.4021,-2.4542,-2.4937,-2.5005,-2.5439,-2.5685,-2.5685,-2.5614,-2.5642,-2.5793,-2.5793,-2.5848,-2.6,-2.6,-2.6,-2.6,-2.6,-2.6575,-1.4236,-1.4685,-1.5052,-1.5051,-1.5693,-1.6426,-1.6894,-1.7197,-1.7919,-1.9778,-2.0846,-2.1843,-2.3086,-2.4126,-2.4885,-2.5216,-2.554,-2.6021,-2.6759,-2.6882,-2.7224,-2.8191,-2.8514,-2.8924,-2.9616,-3.0264,-3.0844,-3.1347,-3.2151,-3.2644,-3.2717,-3.2943,-3.3124,-3.3124,-3.3124,-3.3124,-3.3124,-3.3124,-3.3124,-3.3124,-3.3124,-3.2896,-3.2481,-3.2105,-3.0877,-2.8993,-2.8186,-2.7332,-2.6494,-2.5631,-2.5263,-2.5221,-2.47,-2.4497,-2.4497,-2.4497,-2.4497,-2.4497,-2.4497,-2.4497,-2.4497,-2.4497,-2.4497,-2.4497,-2.4497,-2.4497,-2.4497,-2.4497,-2.4311,-2.4002,-2.336,-2.3108,-2.2969,-2.2713,-2.2964,-2.3202,-2.3084,-2.2867,-2.2524,-2.1986,-2.1663,-2.1577,-2.1846,-2.2261,-2.2793,-2.3582,-2.3936,-2.4083,-2.4083,-2.4083,-2.4083,-2.4083,-2.3799,-2.3704,-2.4057,-2.4015,-2.4091,-2.445,-2.4692,-2.4821,-2.4821,-2.4821,-2.4991,-2.5314,-2.5342,-2.5508,-2.5783,-2.5783,-2.5783,-2.5783,-2.5783,-2.6252,-1.5134,-1.5563,-1.5874,-1.577,-1.6738,-1.7608,-1.7377,-1.7828,-1.8744,-2.025,-2.1115,-2.2094,-2.361,-2.4401,-2.5064,-2.5949,-2.6142,-2.6565,-2.761,-2.7517,-2.7777,-2.8876,-2.8821,-2.9185,-3.0496,-3.097,-3.146,-3.2135,-3.2754,-3.3124,-3.3124,-3.3124,-3.3124,-3.3124,-3.3124,-3.3124,-3.3124,-3.3124,-3.3124,-3.3124,-3.3124,-3.3124,-3.3056,-3.2478,-3.1431,-3.0089,-2.954,-2.869,-2.7632,-2.658,-2.6027,-2.5746,-2.5105,-2.47,-2.4497,-2.4497,-2.4497,-2.4497,-2.4497,-2.4497,-2.4497,-2.4497,-2.4497,-2.4497,-2.4497,-2.4497,-2.4497,-2.4497,-2.427,-2.3929,-2.3339,-2.2936,-2.265,-2.2438,-2.2628,-2.2866,-2.3,-2.2862,-2.264,-2.2387,-2.1927,-2.1654,-2.1886,-2.2127,-2.2522,-2.3127,-2.3715,-2.4094,-2.4093,-2.4083,-2.4083,-2.4083,-2.3704,-2.3642,-2.4044,-2.372,-2.3613,-2.4057,-2.4083,-2.4083,-2.4083,-2.4083,-2.4316,-2.4721,-2.475,-2.4935,-2.5328,-2.5328,-2.5411,-2.5576,-2.5576,-2.5906,-1.5449,-1.5732,-1.6162,-1.656,-1.7533,-1.8453,-1.8843,-1.9815,-2.0639,-2.0671,-2.1096,-2.182,-2.3176,-2.3455,-2.4037,-2.5816,-2.6251,-2.6603,-2.715,-2.7545,-2.8002,-2.8636,-2.8837,-2.9527,-3.121,-3.1386,-3.1625,-3.2177,-3.2754,-3.3124,-3.3124,-3.3124,-3.3124,-3.3124,-3.3124,-3.3124,-3.3124,-3.3124,-3.3124,-3.3124,-3.3124,-3.3124,-3.3056,-3.2478,-3.2148,-3.2018,-3.0114,-2.9285,-2.9102,-2.7673,-2.6565,-2.5777,-2.5777,-2.5221,-2.4497,-2.4497,-2.4497,-2.4497,-2.4497,-2.4497,-2.4497,-2.4497,-2.4497,-2.4497,-2.4497,-2.4497,-2.4497,-2.4497,-2.4487,-2.427,-2.3422,-2.3174,-2.3056,-2.2512,-2.2402,-2.2628,-2.3398,-2.3153,-2.2913,-2.3291,-2.2983,-2.2478,-2.1984,-2.2716,-2.3212,-2.279,-2.3502,-2.4096,-2.4109,-2.4083,-2.4083,-2.4083,-2.407,-2.407,-2.4083,-2.407,-2.407,-2.4083,-2.4083,-2.4083,-2.4083,-2.4083,-2.4112,-2.4112,-2.4112,-2.4141,-2.4141,-2.4141,-2.4459,-2.5026,-2.5026,-2.531,-1.6491,-1.7188,-1.8002,-1.8395,-1.8998,-1.9576,-1.9814,-2.0162,-2.0576,-2.1054,-2.1581,-2.2191,-2.2987,-2.3792,-2.4763,-2.6082,-2.6785,-2.7471,-2.8519,-2.8486,-2.8587,-2.9363,-2.9465,-2.9993,-3.126,-3.1386,-3.1775,-3.2717,-3.3011,-3.3124,-3.3124,-3.3124,-3.3124,-3.3124,-3.3124,-3.3124,-3.3124,-3.3124,-3.3124,-3.3124,-3.3124,-3.3124,-3.3111,-3.288,-3.2579,-3.2148,-3.1522,-3.0827,-3.0091,-2.9011,-2.8197,-2.7516,-2.6894,-2.6121,-2.5337,-2.5337,-2.4978,-2.4497,-2.4497,-2.4497,-2.4497,-2.4497,-2.4497,-2.4497,-2.4497,-2.4497,-2.4497,-2.4497,-2.4333,-2.4033,-2.3722,-2.3184,-2.2764,-2.2829,-2.2637,-2.2553,-2.3075,-2.2994,-2.2829,-2.2971,-2.2856,-2.2627,-2.2455,-2.2694,-2.2976,-2.3134,-2.3692,-2.4111,-2.4096,-2.4098,-2.4083,-2.4083,-2.4083,-2.4083,-2.4083,-2.4083,-2.4083,-2.4083,-2.4083,-2.4083,-2.4083,-2.4083,-2.4083,-2.4083,-2.4083,-2.4083,-2.4083,-2.4491,-2.4809,-2.5005,-2.5367,-2.5837,-1.8023,-1.8743,-1.9381,-1.9832,-2.0245,-2.0581,-2.0666,-2.0921,-2.127,-2.1776,-2.1957,-2.2218,-2.2686,-2.347,-2.4399,-2.563,-2.6674,-2.7743,-2.8933,-2.9047,-2.9287,-3.0018,-3.0093,-3.0507,-3.1574,-3.1687,-3.2064,-3.3048,-3.3124,-3.3124,-3.3124,-3.3124,-3.3124,-3.3124,-3.3124,-3.3124,-3.3124,-3.3124,-3.3124,-3.3124,-3.3124,-3.3124,-3.3124,-3.3124,-3.2867,-3.2503,-3.2303,-3.1825,-3.1132,-3.0367,-2.9667,-2.9027,-2.8392,-2.7637,-2.6841,-2.6513,-2.6023,-2.5409,-2.4916,-2.4745,-2.4745,-2.4745,-2.4745,-2.4714,-2.4549,-2.4497,-2.4497,-2.4497,-2.429,-2.4074,-2.3919,-2.3318,-2.2777,-2.2846,-2.2524,-2.2289,-2.2703,-2.2834,-2.2906,-2.3061,-2.316,-2.3167,-2.2983,-2.2949,-2.311,-2.3617,-2.3932,-2.4139,-2.4085,-2.4292,-2.4347,-2.4109,-2.4083,-2.4083,-2.4083,-2.4083,-2.4083,-2.4083,-2.4083,-2.4083,-2.4083,-2.4321,-2.4426,-2.4426,-2.4622,-2.4696,-2.4696,-2.5092,-2.5411,-2.562,-2.5955,-2.6438,-2.003,-2.0367,-2.05,-2.0941,-2.1243,-2.1482,-2.1494,-2.2106,-2.2659,-2.2634,-2.2198,-2.1918,-2.2244,-2.2494,-2.3112,-2.4582,-2.6079,-2.743,-2.8487,-2.935,-3.003,-3.0557,-3.067,-3.1097,-3.2114,-3.224,-3.2478,-3.3074,-3.3154,-3.3197,-3.324,-3.324,-3.324,-3.324,-3.324,-3.324,-3.324,-3.321,-3.3167,-3.3167,-3.3124,-3.3124,-3.3124,-3.3124,-3.3124,-3.3086,-3.2491,-3.224,-3.2177,-3.165,-3.0947,-3.0163,-3.0163,-2.9635,-2.8772,-2.7853,-2.7459,-2.7129,-2.5818,-2.5285,-2.522,-2.522,-2.522,-2.5137,-2.4673,-2.4538,-2.4528,-2.4507,-2.4497,-2.4404,-2.4022,-2.3567,-2.3111,-2.2646,-2.218,-2.1953,-2.2289,-2.2703,-2.3075,-2.3482,-2.3897,-2.4051,-2.3533,-2.3442,-2.3614,-2.412,-2.4213,-2.4206,-2.4167,-2.4648,-2.4805,-2.4269,-2.4174,-2.4191,-2.4164,-2.4164,-2.4122,-2.4083,-2.4083,-2.4096,-2.4122,-2.4717,-2.5018,-2.5044,-2.555,-2.5793,-2.5793,-2.5819,-2.6138,-2.6706,-2.6745,-2.7,-2.1783,-2.2604,-2.317,-2.2919,-2.259,-2.2389,-2.25,-2.2388,-2.2129,-2.1749,-2.1844,-2.1762,-2.0913,-2.2233,-2.382,-2.5045,-2.6681,-2.8211,-2.9338,-3.0004,-3.0457,-3.0595,-3.1323,-3.1913,-3.219,-3.2604,-3.2918,-3.3111,-3.3696,-3.433,-3.4951,-3.4938,-3.4938,-3.4938,-3.4938,-3.4938,-3.4938,-3.4371,-3.4076,-3.4063,-3.3411,-3.3124,-3.3124,-3.3124,-3.3124,-3.3111,-3.2918,-3.2616,-3.2202,-3.2064,-3.1626,-3.1046,-3.1046,-3.0538,-2.9731,-2.9477,-2.8537,-2.737,-2.7298,-2.661,-2.572,-2.572,-2.572,-2.5627,-2.5148,-2.5013,-2.4941,-2.459,-2.4497,-2.4476,-2.4363,-2.4043,-2.3588,-2.3122,-2.2656,-2.226,-2.1994,-2.2252,-2.2665,-2.3075,-2.3714,-2.4154,-2.4028,-2.4005,-2.4051,-2.4177,-2.453,-2.4797,-2.4764,-2.4897,-2.5069,-2.5344,-2.5362,-2.521,-2.4809,-2.4783,-2.457,-2.4122,-2.4083,-2.4308,-2.4756,-2.4926,-2.5201,-2.5602,-2.5715,-2.5793,-2.5793,-2.6242,-2.6562,-2.6719,-2.7105,-2.7359,-2.3499,-2.4155,-2.4521,-2.398,-2.349,-2.3034,-2.263,-2.2558,-2.2401,-2.1853,-2.1985,-2.2038,-2.1525,-2.2537,-2.3816,-2.4919,-2.6593,-2.8047,-2.8925,-3.0024,-3.0775,-3.0937,-3.2111,-3.3002,-3.3146,-3.3801,-3.4358,-3.4731,-3.4551,-3.4592,-3.5047,-3.5427,-3.5615,-3.5615,-3.5615,-3.5615,-3.5615,-3.5156,-3.4937,-3.4937,-3.405,-3.3654,-3.3654,-3.3283,-3.3124,-3.3124,-3.3124,-3.2893,-3.2591,-3.2591,-3.2416,-3.2127,-3.2127,-3.1833,-3.1344,-3.0906,-3.0131,-2.9201,-2.9027,-2.818,-2.7031,-2.642,-2.6231,-2.6138,-2.5647,-2.5513,-2.542,-2.4931,-2.4797,-2.4755,-2.4549,-2.4209,-2.3815,-2.3557,-2.3143,-2.2677,-2.2211,-2.2405,-2.2799,-2.3194,-2.3661,-2.4047,-2.4162,-2.4043,-2.4007,-2.4164,-2.4467,-2.4744,-2.4972,-2.5219,-2.5383,-2.5428,-2.5667,-2.5589,-2.5044,-2.4992,-2.4861,-2.4517,-2.4256,-2.4491,-2.5315,-2.5341,-2.5615,-2.6177,-2.6438,-2.6537,-2.6537,-2.6896,-2.7053,-2.7053,-2.7346,-2.749,-2.5351,-2.5556,-2.5407,-2.4783,-2.4255,-2.3608,-2.2577,-2.2677,-2.2843,-2.2385,-2.2297,-2.2405,-2.2735,-2.3015,-2.3589,-2.4679,-2.6314,-2.769,-2.8388,-2.9984,-3.1225,-3.168,-3.3067,-3.4135,-3.4528,-3.5196,-3.5909,-3.6688,-3.5507,-3.4799,-3.4909,-3.5561,-3.5949,-3.5949,-3.5949,-3.5949,-3.5949,-3.5815,-3.5775,-3.5735,-3.4855,-3.4397,-3.4356,-3.3484,-3.3124,-3.3124,-3.3124,-3.3124,-3.3124,-3.3124,-3.3124,-3.3124,-3.3124,-3.3124,-3.2982,-3.212,-3.1713,-3.1492,-3.0678,-2.9624,-2.8519,-2.7288,-2.6791,-2.6625,-2.6159,-2.5968,-2.5865,-2.5334,-2.5189,-2.5086,-2.4621,-2.426,-2.395,-2.3888,-2.3567,-2.3153,-2.2687,-2.2937,-2.3354,-2.3574,-2.3747,-2.3933,-2.4104,-2.3869,-2.3787,-2.408,-2.4164,-2.437,-2.4838,-2.5443,-2.5656,-2.5169,-2.5665,-2.5793,-2.5144,-2.5118,-2.5083,-2.5005,-2.4504,-2.47,-2.5754,-2.5871,-2.6203,-2.6811,-2.7275,-2.749,-2.749,-2.749,-2.749,-2.749,-2.749,-2.749,-2.7725,-2.7924,-2.7637,-2.6569,-2.5531,-2.4584,-2.3846,-2.3004,-2.2336,-2.2238,-2.2224,-2.2126,-2.1751,-2.2867,-2.424,-2.5423,-2.7073,-2.8752,-3.037,-3.128,-3.224,-3.3321,-3.4092,-3.4777,-3.5332,-3.5507,-3.5655,-3.5815,-3.6201,-3.678,-3.7491,-3.7682,-3.7758,-3.7758,-3.7758,-3.7758,-3.7758,-3.7039,-3.6688,-3.6649,-3.5114,-3.4397,-3.4356,-3.3484,-3.3124,-3.3124,-3.3124,-3.3124,-3.3124,-3.3124,-3.3124,-3.3124,-3.3124,-3.3124,-3.3081,-3.2896,-3.2307,-3.1581,-3.1392,-3.017,-2.8667,-2.8405,-2.7823,-2.7102,-2.6635,-2.6501,-2.6279,-2.5461,-2.5189,-2.5086,-2.4621,-2.4445,-2.429,-2.396,-2.3857,-2.3629,-2.3163,-2.3639,-2.4071,-2.382,-2.4277,-2.4514,-2.3879,-2.3947,-2.4007,-2.374,-2.397,-2.4225,-2.4334,-2.5228,-2.5862,-2.5763,-2.6611,-2.6791,-2.5741,-2.5645,-2.5471,-2.5031,-2.49,-2.5118,-2.5767,-2.6282,-2.6791,-2.7333,-2.7438,-2.749,-2.749,-2.749,-2.749,-2.749,-2.749,-2.749,-2.7994,-2.7796,-2.7304,-2.6454,-2.5544,-2.4664,-2.3784,-2.3094,-2.2549,-2.2259,-2.2432,-2.263,-2.269,-2.3631,-2.4709,-2.5604,-2.7254,-2.8808,-2.9991,-3.1308,-3.258,-3.3753,-3.4875,-3.5745,-3.6223,-3.6674,-3.6947,-3.6947,-3.7362,-3.7567,-3.7529,-3.7962,-3.8202,-3.8202,-3.8202,-3.8202,-3.8202,-3.781,-3.7567,-3.7567,-3.6294,-3.5454,-3.5006,-3.4176,-3.3526,-3.3124,-3.3124,-3.3124,-3.3124,-3.3124,-3.3124,-3.3124,-3.3124,-3.3124,-3.3124,-3.3124,-3.2797,-3.2394,-3.2394,-3.1125,-2.9498,-2.9498,-2.8491,-2.7268,-2.704,-2.6978,-2.6832,-2.6113,-2.5751,-2.5471,-2.4972,-2.4683,-2.4445,-2.4281,-2.4043,-2.3857,-2.3598,-2.3864,-2.4064,-2.383,-2.4107,-2.4312,-2.4051,-2.3802,-2.3671,-2.3895,-2.3897,-2.397,-2.4164,-2.4921,-2.5429,-2.5429,-2.6161,-2.6426,-2.5869,-2.555,-2.5394,-2.5401,-2.5162,-2.5384,-2.6229,-2.6562,-2.6948,-2.749,-2.749,-2.749,-2.749,-2.749,-2.749,-2.749,-2.749,-2.749,-2.7965,-2.7569,-2.7145,-2.6373,-2.5616,-2.4765,-2.3799,-2.3254,-2.2862,-2.2452,-2.2682,-2.3117,-2.3594,-2.4326,-2.5017,-2.5637,-2.727,-2.8771,-2.9659,-3.1268,-3.2862,-3.4264,-3.5514,-3.654,-3.7133,-3.781,-3.8202,-3.8202,-3.8202,-3.7886,-3.7208,-3.7848,-3.8202,-3.8202,-3.8202,-3.8202,-3.8202,-3.8202,-3.8127,-3.7924,-3.7053,-3.6281,-3.5588,-3.4566,-3.3865,-3.3368,-3.3167,-3.3124,-3.3124,-3.3124,-3.3124,-3.3124,-3.3124,-3.3124,-3.3124,-3.3124,-3.3124,-3.3124,-3.3124,-3.1845,-3.0215,-3.0215,-2.8899,-2.7309,-2.7309,-2.7309,-2.7216,-2.675,-2.6283,-2.5782,-2.5303,-2.4848,-2.4497,-2.4497,-2.4281,-2.4022,-2.4022,-2.4106,-2.4117,-2.3997,-2.3978,-2.4015,-2.4056,-2.3596,-2.3362,-2.3881,-2.3824,-2.3824,-2.4164,-2.4575,-2.4838,-2.4838,-2.5476,-2.5812,-2.5624,-2.5227,-2.5224,-2.5762,-2.5406,-2.5633,-2.6667,-2.6824,-2.7066,-2.749,-2.749,-2.749,-2.749,-2.749,-2.749,-2.749,-2.749,-2.749,-2.8842,-2.9088,-2.9275,-2.7875,-2.6621,-2.5539,-2.4875,-2.3784,-2.2896,-2.2849,-2.2863,-2.2929,-2.2975,-2.4023,-2.5094,-2.5687,-2.7398,-2.929,-3.1034,-3.1977,-3.3382,-3.5783,-3.6194,-3.6773,-3.7959,-3.8165,-3.8202,-3.8202,-3.8202,-3.8165,-3.8089,-3.8165,-3.8202,-3.8202,-3.8202,-3.8202,-3.8202,-3.8202,-3.781,-3.7014,-3.6148,-3.5655,-3.5534,-3.3953,-3.3611,-3.423,-3.3441,-3.3124,-3.3124,-3.3124,-3.3124,-3.3124,-3.3124,-3.3124,-3.3124,-3.3124,-3.3124,-3.3124,-3.3124,-3.1845,-3.0215,-3.0215,-2.8899,-2.7309,-2.7309,-2.7309,-2.7216,-2.675,-2.6283,-2.5782,-2.5303,-2.4848,-2.4497,-2.4497,-2.4466,-2.4435,-2.4435,-2.4766,-2.4957,-2.4511,-2.4372,-2.4147,-2.3414,-2.3426,-2.3464,-2.3161,-2.3703,-2.4164,-2.42,-2.4225,-2.4261,-2.4261,-2.5229,-2.5674,-2.5099,-2.5043,-2.5224,-2.5762,-2.5741,-2.602,-2.668,-2.717,-2.7438,-2.749,-2.749,-2.749,-2.749,-2.749,-2.749,-2.749,-2.749,-2.749,-2.8891,-2.8662,-2.8374,-2.785,-2.6411,-2.518,-2.5296,-2.4057,-2.2888,-2.2888,-2.2888,-2.2888,-2.2888,-2.4007,-2.4965,-2.5183,-2.6837,-2.8507,-2.9653,-3.0698,-3.2164,-3.4341,-3.4936,-3.5662,-3.6939,-3.7433,-3.7665,-3.7665,-3.7665,-3.7665,-3.7665,-3.7999,-3.8202,-3.8202,-3.8202,-3.8202,-3.8202,-3.8202,-3.7772,-3.6897,-3.6557,-3.5843,-3.4855,-3.4176,-3.3781,-3.3611,-3.324,-3.3124,-3.3124,-3.3124,-3.3124,-3.3124,-3.3124,-3.3124,-3.3124,-3.3124,-3.3124,-3.3124,-3.3124,-3.1845,-3.0215,-3.0215,-2.8899,-2.7309,-2.7309,-2.7309,-2.7268,-2.7081,-2.6501,-2.5844,-2.5668,-2.5044,-2.4497,-2.4497,-2.4497,-2.4425,-2.4198,-2.4304,-2.4263,-2.3826,-2.3707,-2.3562,-2.3208,-2.3238,-2.3302,-2.3342,-2.3641,-2.3934,-2.4164,-2.42,-2.42,-2.42,-2.4611,-2.4791,-2.4613,-2.4238,-2.4414,-2.5307,-2.537,-2.5787,-2.6648,-2.7223,-2.749,-2.749,-2.749,-2.749,-2.749,-2.749,-2.7673,-2.8033,-2.8033,-2.8242,-2.8535,-2.8391,-2.8148,-2.7765,-2.6465,-2.5324,-2.5523,-2.4336,-2.3209,-2.3209,-2.3068,-2.297,-2.297,-2.4007,-2.4863,-2.4824,-2.6434,-2.7985,-2.884,-2.9915,-3.1324,-3.3271,-3.3862,-3.4632,-3.5909,-3.662,-3.7099,-3.7302,-3.7128,-3.7099,-3.7302,-3.7709,-3.8028,-3.8188,-3.8202,-3.8202,-3.8202,-3.8202,-3.7772,-3.6897,-3.6649,-3.5883,-3.4744,-3.4217,-3.3823,-3.3454,-3.3197,-3.3124,-3.3124,-3.3124,-3.3124,-3.3124,-3.3124,-3.3124,-3.3124,-3.3124,-3.3124,-3.3124,-3.3124,-3.1845,-3.0215,-3.0215,-2.8899,-2.7309,-2.7309,-2.7309,-2.7309,-2.7309,-2.6635,-2.5858,-2.5554,-2.5016,-2.4497,-2.4497,-2.4497,-2.4373,-2.3971,-2.3919,-2.3743,-2.3277,-2.308,-2.3003,-2.2934,-2.2998,-2.3167,-2.339,-2.3519,-2.3703,-2.397,-2.4007,-2.4007,-2.4007,-2.4127,-2.4209,-2.428,-2.3888,-2.4065,-2.5001,-2.5228,-2.5742,-2.6667,-2.7215,-2.749,-2.749,-2.7659,-2.7785,-2.7785,-2.7968,-2.8255,-2.8682,-2.8682,-2.8904,-2.7874,-2.8662,-2.9437,-2.7976,-2.7088,-2.6392,-2.5668,-2.4685,-2.39,-2.39,-2.3458,-2.3105,-2.3105,-2.4025,-2.4824,-2.4878,-2.6463,-2.8145,-2.9407,-3.0161,-3.1324,-3.3271,-3.3518,-3.4012,-3.529,-3.5952,-3.6591,-3.7259,-3.6693,-3.6606,-3.7273,-3.7317,-3.7593,-3.8188,-3.8202,-3.8202,-3.8202,-3.8202,-3.7772,-3.6897,-3.6029,-3.5615,-3.5534,-3.3869,-3.3569,-3.4356,-3.3484,-3.3124,-3.3124,-3.3124,-3.3124,-3.3124,-3.3124,-3.3124,-3.3124,-3.3124,-3.3124,-3.3124,-3.3124,-3.1845,-3.0215,-3.0215,-2.8899,-2.7309,-2.7309,-2.7309,-2.7309,-2.7309,-2.6635,-2.5678,-2.4745,-2.4507,-2.4497,-2.4497,-2.4497,-2.4373,-2.3971,-2.3919,-2.3743,-2.3277,-2.2811,-2.2501,-2.2501,-2.2798,-2.3001,-2.3001,-2.3335,-2.3593,-2.3604,-2.3604,-2.3604,-2.3604,-2.397,-2.4209,-2.4188,-2.421,-2.4427,-2.4948,-2.5507,-2.6071,-2.6676,-2.7222,-2.749,-2.749,-2.8085,-2.8407,-2.8407,-2.9009,-2.9297,-2.931,-2.931,-2.931,-2.7629,-2.784,-2.7989,-2.7567,-2.6611,-2.5835,-2.6005,-2.5169,-2.4379,-2.4379,-2.435,-2.4312,-2.4209,-2.5047,-2.5848,-2.6137,-2.712,-2.8108,-2.8883,-2.9929,-3.099,-3.2004,-3.3311,-3.4443,-3.5319,-3.5154,-3.5285,-3.5959,-3.5813,-3.5799,-3.6002,-3.6388,-3.6925,-3.7564,-3.7984,-3.8202,-3.8202,-3.8202,-3.7772,-3.6897,-3.6029,-3.5305,-3.4744,-3.3611,-3.324,-3.3484,-3.3197,-3.3124,-3.3124,-3.3124,-3.3124,-3.3124,-3.3124,-3.3124,-3.3124,-3.3124,-3.3124,-3.2982,-3.2307,-3.1258,-3.0079,-2.9406,-2.8305,-2.7309,-2.7309,-2.7309,-2.7175,-2.6542,-2.6148,-2.5668,-2.4735,-2.4497,-2.4497,-2.4497,-2.4497,-2.429,-2.3577,-2.3412,-2.3174,-2.2397,-2.2128,-2.2025,-2.2025,-2.2357,-2.259,-2.259,-2.2927,-2.3298,-2.3556,-2.3593,-2.3714,-2.397,-2.4116,-2.4066,-2.3699,-2.3653,-2.3886,-2.4462,-2.4701,-2.5342,-2.6667,-2.685,-2.7301,-2.8098,-2.8281,-2.8582,-2.9035,-2.9231,-2.9483,-2.9876,-3.0268,-3.0451,-2.7427,-2.7602,-2.767,-2.7434,-2.674,-2.614,-2.624,-2.5573,-2.5025,-2.5294,-2.5285,-2.5247,-2.5264,-2.5942,-2.65,-2.6499,-2.7097,-2.7854,-2.8662,-2.9463,-3.0381,-3.1487,-3.3053,-3.4211,-3.4651,-3.4501,-3.4675,-3.5348,-3.5174,-3.5145,-3.5392,-3.577,-3.6141,-3.6562,-3.7418,-3.797,-3.8202,-3.7886,-3.7453,-3.6897,-3.5722,-3.4896,-3.4356,-3.3484,-3.3124,-3.3124,-3.3124,-3.3124,0.0,-3.3124,-3.3124,-3.3124,-3.3124,-3.3124,-3.3124,-3.3124,-3.2853,-3.2438,-3.1813,-3.0722,-2.9532,-2.8899,-2.8081,-2.7309,-2.7309,-2.7185,-2.6895,-2.6092,-2.5761,-2.5471,-2.4693,-2.4497,-2.4497,-2.4497,-2.4373,-2.4095,-2.335,-2.3049,-2.2708,-2.1952,-2.1807,-2.1807,-2.1807,-2.2138,-2.2402,-2.2402,-2.274,-2.3075,-2.3335,-2.3519,-2.3714,-2.3934,-2.4116,-2.4062,-2.3717,-2.3694,-2.386,-2.4249,-2.4448,-2.4998,-2.6035,-2.6454,-2.7113,-2.8097,-2.8488,-2.8996,-2.9601,-2.9823,-3.0111,-3.0464,-3.0817,-3.0986,0.0,-2.7732,-2.8078,-2.7381,-2.7216,-2.705,-2.6369,-2.5864,0.0,-2.65,-2.6266,-2.6005,-2.6308,-2.6757,-2.6898,-2.6287,-2.6722,-2.7586,-2.8814,-2.9079,-2.9841,-3.1671,-3.2873,-3.3547,-3.3503,-3.4051,-3.4661,-3.529,-3.4748,-3.4675,-3.5305,-3.5334,-3.5348,-3.5392,-3.6541,-3.7446,-3.8055,-3.7218,-3.6819,-3.6805,-3.5155,-3.4397,-3.4356,-3.3484,-3.3124,-3.3124,-3.3124,-3.3124,-3.3124,-3.3124,-3.3124,-3.3124,-3.3124,-3.3124,-3.3124,-3.3124,-3.2438,-3.1581,-3.1536,-3.026,-2.8678,-2.8631,-2.7987,-2.7309,-2.7309,-2.6978,-2.6521,-2.6009,-2.5564,-2.5086,-2.4621,-2.4497,-2.4497,-2.4497,-2.4229,-2.3795,-2.3298,-2.2853,-2.2397,-2.1901,-2.1807,-2.1807,-2.1807,-2.2138,-2.2402,-2.2402,-2.274,-2.3001,-2.3038,-2.3372,-2.3593,-2.3629,-2.397,-2.42,-2.42,-2.42,-2.42,-2.42,-2.4706,-2.4992,-2.5076,-2.6081,-2.701,-2.77,-2.8791,-2.9611,-3.0166,-3.0725,-3.0986,-3.0986,-3.0986,-3.0986,-2.6911,0.0,-2.6684,-2.6501,-2.6468,-2.6419,0.0,-2.6097,-2.6241,-2.6968,-2.7163,-2.7341,-2.7869,-2.7968,-2.8048,-2.8182,-2.8441,-2.888,-2.9704,-3.0969,-3.1961,-3.2428,-3.3496,-3.4008,-3.3547,-3.4051,-3.4472,-3.4617,-3.4501,-3.4486,-3.4632,-3.4646,-3.4864,-3.5378,-3.5496,-3.5863,-3.65,-3.6124,-3.5909,-3.5909,-3.4896,-3.4397,-3.4356,-3.3484,-3.3124,-3.3124,-3.3124,-3.3124,-3.3124,-3.3124,-3.3124,-3.3124,-3.3124,-3.3124,-3.3124,-3.3124,-3.2438,-3.1492,-3.0767,-2.9715,-2.8585,-2.7857,-2.7489,-2.7309,-2.7309,-2.6978,-2.6521,-2.6009,-2.5564,-2.5086,-2.4621,-2.4497,-2.4497,-2.4497,-2.4425,-2.4167,-2.336,-2.3101,-2.278,-2.1963,-2.1807,-2.1807,-2.1807,-2.2138,-2.2402,-2.2402,-2.274,-2.3113,-2.3409,-2.3519,-2.3714,-2.4018,-2.4152,-2.42,-2.42,-2.42,-2.42,-2.42,-2.4643,-2.5147,-2.5598,-2.6675,-2.7779,-2.8807,-2.9991,-3.0665,-3.079,-3.0921,-3.0986,-3.0986,-3.0986,-3.0986,-2.6988,-2.659,-2.6202,-2.6202,-2.6202,-2.6202,-2.6202,-2.6202,-2.6419,-2.7149,-2.7654,-2.8103,-2.8511,-2.8844,-2.9069,-2.8997,-2.9127,-2.9444,-3.0025,-3.1425,-3.2478,-3.2662,-3.3467,-3.3964,-3.3906,-3.4211,-3.4414,-3.4414,-3.4414,-3.4414,-3.4414,-3.4414,-3.4574,-3.4907,-3.4981,-3.5326,-3.6009,-3.5357,-3.5047,-3.5047,-3.4217,-3.3823,-3.3781,-3.3326,-3.3124,-3.3124,-3.3124,-3.3124,-3.3124,-3.3124,-3.3124,-3.3124,-3.3124,-3.3124,-3.3025,-3.2581,-3.1801,-3.0812,-2.9852,-2.8852,-2.7998,-2.7489,-2.7309,-2.7309,-2.7309,-2.6832,-2.6241,-2.5993,-2.5409,-2.4817,-2.4559,-2.4497,-2.4497,-2.4497,-2.4342,-2.4105,-2.3608,-2.3339,-2.3039,-2.2532,-2.2418,-2.245,-2.2688,-2.2898,-2.3102,-2.3317,-2.3509,-2.3705,-2.394,-2.3923,-2.405,-2.4462,-2.4522,-2.4625,-2.4866,-2.4889,-2.4786,-2.4545,-2.4774,-2.5177,-2.5744,-2.6832,-2.811,-2.9542,-3.0517,-3.0986,-3.0986,-3.0986,-3.0986,-3.0986,-3.0986,-3.0986,-2.7398,-2.7046,-2.6629,-2.6287,-2.6268,-2.6334,-2.6236,-2.6285,-2.6584,-2.7315,-2.8044,-2.8672,-2.9072,-2.9624,-2.9885,-2.9468,-2.9501,-2.9776,-3.0348,-3.1442,-3.2323,-3.271,-3.3281,-3.3823,-3.4225,-3.4356,-3.4414,-3.4414,-3.4414,-3.4414,-3.4414,-3.4414,-3.4457,-3.4559,-3.4695,-3.5139,-3.5781,-3.4861,-3.4314,-3.4189,-3.3441,-3.3124,-3.3124,-3.3124,-3.3124,-3.3124,-3.3124,-3.3124,-3.3124,-3.3124,-3.3124,-3.3124,-3.3124,-3.3025,-3.2754,-3.1901,-3.0902,-2.9852,-2.8806,-2.7998,-2.7309,-2.7309,-2.7309,-2.7309,-2.7309,-2.6755,-2.6104,-2.5941,-2.5233,-2.4497,-2.4497,-2.4497,-2.4497,-2.4497,-2.425,-2.4002,-2.4013,-2.368,-2.3388,-2.3396,-2.334,-2.3456,-2.3841,-2.3976,-2.4117,-2.4535,-2.4597,-2.4596,-2.4596,-2.4497,-2.4579,-2.4992,-2.5038,-2.5222,-2.567,-2.5716,-2.5555,-2.5176,-2.5153,-2.5421,-2.6078,-2.7081,-2.8407,-2.9947,-3.0672,-3.0986,-3.0986,-3.0986,-3.0986,-3.0986,-3.0986,-3.0986,-2.8132,-2.8593,-2.8528,-2.6681,-2.6667,-2.6967,-2.6334,-2.6667,-2.7332,-2.8078,-2.8771,-2.9625,-3.0917,-3.0509,-3.0171,-3.0712,-3.0525,-3.0707,-3.1827,-3.2553,-3.2995,-3.2958,-3.3885,-3.4276,-3.3692,-3.4095,-3.4414,-3.4414,-3.4414,-3.4414,-3.4414,-3.4414,-3.4661,-3.5232,-3.4372,-3.4227,-3.4891,-3.459,-3.4021,-3.3283,-3.3154,-3.3124,-3.3124,-3.3124,-3.3124,-3.3124,-3.3124,-3.3124,-3.3124,-3.3124,-3.3124,-3.3124,-3.3124,-3.2581,-3.1801,-3.1669,-3.0453,-2.8817,-2.7857,-2.7441,-2.7309,-2.7309,-2.7309,-2.7309,-2.7309,-2.7207,-2.6911,-2.6125,-2.5233,-2.4497,-2.4497,-2.4497,-2.4497,-2.4497,-2.4445,-2.4407,-2.4418,-2.4352,-2.4315,-2.4281,-2.4298,-2.4316,-2.4381,-2.4653,-2.4904,-2.4982,-2.5288,-2.5512,-2.5512,-2.5494,-2.5509,-2.5578,-2.5589,-2.5624,-2.5704,-2.5716,-2.5853,-2.6249,-2.626,-2.6727,-2.7758,-2.8464,-2.9203,-2.9999,-3.0672,-3.0986,-3.0986,-3.0986,-3.0986,-3.0986,-3.0986,-3.0986,-2.7769,-2.8441,-2.8898,-2.7677,-2.84,-2.9152,-2.8165,-2.8191,-2.8522,-2.887,-2.9201,-2.9728,-3.0803,-3.1041,-3.1362,-3.2262,-3.2246,-3.2288,-3.2778,-3.3075,-3.3324,-3.3522,-3.3921,-3.4153,-3.4145,-3.4307,-3.4414,-3.4414,-3.4414,-3.4448,-3.4563,-3.4045,-3.4062,-3.4795,-3.4265,-3.4047,-3.418,-3.4536,-3.4189,-3.3124,-3.3124,-3.3124,-3.3124,-3.3124,-3.3124,-3.3124,-3.3197,-3.3283,-3.3283,-3.3398,-3.3441,-3.3441,-3.3441,-3.2772,-3.1669,-3.0486,-2.9314,-2.8222,-2.7536,-2.7678,-2.8055,-2.7762,-2.7857,-2.8034,-2.8034,-2.7889,-2.7653,-2.7211,-2.6229,-2.5207,-2.4655,-2.4711,-2.4828,-2.454,-2.4882,-2.52,-2.4924,-2.509,-2.5243,-2.5273,-2.5224,-2.5274,-2.5529,-2.5723,-2.5933,-2.6206,-2.6171,-2.6117,-2.6117,-2.5876,-2.5819,-2.6094,-2.6117,-2.6232,-2.6508,-2.6491,-2.6519,-2.6513,-2.6726,-2.741,-2.8621,-2.8964,-2.9394,-2.9999,-3.0672,-3.0823,-3.047,-3.0823,-3.0986,-3.0986,-3.0986,-3.0986,-2.753,-2.8288,-2.9066,-2.8727,-2.9713,-3.0575,-2.9829,-2.9645,-2.9711,-2.9877,-3.0063,-3.0303,-3.0716,-3.1478,-3.23,-3.3111,-3.3333,-3.3452,-3.3569,-3.3505,-3.3648,-3.4156,-3.4053,-3.416,-3.4587,-3.4515,-3.4448,-3.4414,-3.4414,-3.4481,-3.4631,-3.3776,-3.3684,-3.459,-3.4205,-3.4022,-3.4087,-3.4481,-3.4217,-3.324,-3.324,-3.324,-3.324,-3.324,-3.324,-3.324,-3.3398,-3.3471,-3.3471,-3.3641,-3.3713,-3.3713,-3.3713,-3.2932,-3.1569,-2.9669,-2.8631,-2.8128,-2.7762,-2.8139,-2.8699,-2.8315,-2.8409,-2.8678,-2.8678,-2.8565,-2.8394,-2.8149,-2.7412,-2.6378,-2.5272,-2.5285,-2.5423,-2.4945,-2.5391,-2.5853,-2.558,-2.5801,-2.6052,-2.6188,-2.6177,-2.6235,-2.6595,-2.6644,-2.6783,-2.7174,-2.6898,-2.6645,-2.6645,-2.6313,-2.6221,-2.66,-2.6645,-2.6806,-2.7156,-2.719,-2.7059,-2.6708,-2.7013,-2.7655,-2.8621,-2.8819,-2.9094,-2.9574,-3.0355,-3.0508,-2.9999,-3.0672,-3.0986,-3.0986,-3.0986,-3.1052,-2.8219,-2.9048,-2.983,-2.9426,-2.9437,-2.9705,-3.0294,-3.0423,-3.0621,-3.13,-3.2,-3.2292,-3.1799,-3.1976,-3.2231,-3.2363,-3.2852,-3.3508,-3.4291,-3.4159,-3.4171,-3.4754,-3.4828,-3.471,-3.4448,-3.4597,-3.4597,-3.4414,-3.4414,-3.4414,-3.4414,-3.3874,-3.418,-3.5472,-3.4056,-3.388,-3.5164,-3.4277,-3.3755,-3.367,-3.367,-3.367,-3.367,-3.367,-3.367,-3.367,-3.367,-3.367,-3.367,-3.367,-3.3713,-3.3713,-3.3713,-3.2692,-3.1134,-3.0113,-2.9268,-2.8631,-2.8631,-2.8631,-2.8678,-2.8678,-2.8678,-2.8678,-2.8678,-2.9037,-2.9202,-2.8338,-2.8331,-2.8277,-2.6812,-2.6486,-2.6388,-2.592,-2.5853,-2.5979,-2.6321,-2.6445,-2.658,-2.7015,-2.7115,-2.7103,-2.7138,-2.7156,-2.7144,-2.7179,-2.7156,-2.7133,-2.7133,-2.711,-2.7098,-2.7133,-2.7133,-2.7144,-2.719,-2.719,-2.7179,-2.7133,-2.7167,-2.7231,-2.7342,-2.7938,-2.8299,-2.8327,-2.9496,-3.0037,-2.9999,-3.0672,-3.0986,-3.0986,-3.0986,-3.1274,-2.7716,-2.8935,-3.016,-2.9535,-3.0092,-3.1068,-3.2282,-3.2547,-3.2762,-3.3508,-3.3872,-3.3912,-3.3396,-3.3345,-3.3438,-3.3634,-3.3993,-3.4448,-3.5053,-3.4922,-3.4833,-3.5052,-3.4968,-3.4868,-3.4735,-3.4582,-3.4515,-3.4597,-3.3997,-3.3707,-3.3845,-3.2747,-3.2541,-3.3532,-3.3019,-3.3119,-3.4006,-3.4097,-3.4147,-3.4147,-3.3839,-3.3713,-3.3713,-3.3713,-3.3713,-3.3713,-3.3894,-3.3937,-3.3937,-3.4063,-3.4147,-3.4008,-3.2864,-3.2028,-3.1267,-2.9715,-2.9141,-2.9152,-2.8817,-2.9095,-2.9566,-2.929,-2.9382,-2.9612,-2.9612,-2.9749,-2.9852,-2.9523,-2.9523,-2.9217,-2.7128,-2.6841,-2.6847,-2.6089,-2.6313,-2.6685,-2.6528,-2.6745,-2.7015,-2.719,-2.719,-2.719,-2.719,-2.719,-2.719,-2.719,-2.719,-2.719,-2.719,-2.719,-2.719,-2.719,-2.7586,-2.7966,-2.8355,-2.8395,-2.8395,-2.8395,-2.7655,-2.7574,-2.8355,-2.8247,-2.8566,-2.9302,-2.9767,-3.0163,-3.0544,-3.0878,-3.1352,-3.2032,-3.1679,-3.1823,-2.7903,-2.8936,-3.0136,-2.999,-3.0593,-3.1747,-3.369,-3.3955,-3.4071,-3.5048,-3.4742,-3.4187,-3.3913,-3.3623,-3.3593,-3.4068,-3.4602,-3.5082,-3.5359,-3.5213,-3.5115,-3.5115,-3.4968,-3.4902,-3.4902,-3.465,-3.4563,-3.4698,-3.4065,-3.3728,-3.3879,-3.2519,-3.2094,-3.2855,-3.2617,-3.2762,-3.3381,-3.406,-3.4397,-3.4397,-3.405,-3.3924,-3.3924,-3.3924,-3.3924,-3.3924,-3.4118,-3.4202,-3.4202,-3.4356,-3.4397,-3.4259,-3.2993,-3.2333,-3.1984,-3.0418,-2.9909,-2.9988,-2.9382,-2.9612,-3.017,-2.9806,-2.9943,-3.0216,-3.0216,-3.0216,-3.0181,-3.0032,-2.9986,-2.9542,-2.7528,-2.7379,-2.755,-2.6741,-2.6881,-2.7097,-2.6787,-2.6962,-2.719,-2.719,-2.719,-2.719,-2.719,-2.719,-2.719,-2.719,-2.719,-2.7247,-2.7449,-2.7282,-2.7272,-2.7505,-2.7938,-2.8435,-2.9042,-2.9081,-2.9081,-2.9081,-2.8275,-2.8195,-2.9042,-2.87,-2.8858,-2.9716,-2.9922,-3.0176,-3.0634,-3.1034,-3.1653,-3.2411,-3.2176,-3.2424,-2.8996,-2.92,-2.9764,-3.0828,-3.0818,-3.1283,-3.4237,-3.4319,-3.422,-3.5711,-3.4349,-3.2963,-3.3117,-3.2556,-3.2373,-3.3179,-3.4367,-3.518,-3.518,-3.5034,-3.4902,-3.4887,-3.4902,-3.4902,-3.4902,-3.475,-3.4664,-3.4664,-3.4664,-3.4664,-3.4664,-3.3597,-3.3325,-3.4036,-3.3179,-3.3027,-3.379,-3.4176,-3.4384,-3.4397,-3.4397,-3.4397,-3.4397,-3.4397,-3.4397,-3.4397,-3.4397,-3.4397,-3.4397,-3.4397,-3.4397,-3.4397,-3.4397,-3.3979,-3.3313,-3.2575,-3.1889,-3.1172,-3.0442,-3.0216,-3.0216,-3.0216,-3.0216,-3.0216,-3.0216,-3.0216,-3.0112,-2.963,-2.9504,-2.9263,-2.8253,-2.8344,-2.8574,-2.8092,-2.7598,-2.719,-2.719,-2.719,-2.719,-2.719,-2.719,-2.719,-2.719,-2.719,-2.719,-2.719,-2.719,-2.7415,-2.7908,-2.7541,-2.7464,-2.8139,-2.8219,-2.8447,-2.9081,-2.9121,-2.9121,-2.9121,-2.9121,-2.9121,-2.9121,-2.9081,-2.9121,-2.9121,-2.9716,-2.9999,-3.0011,-3.1203,-3.181,-3.1836,-3.2437,-3.3025,-2.8996,-2.955,-3.0363,-3.0963,-3.1587,-3.2547,-3.4452,-3.4717,-3.497,-3.6397,-3.5571,-3.4595,-3.4571,-3.4029,-3.3667,-3.3891,-3.4552,-3.4871,-3.4528,-3.4738,-3.4593,-3.3746,-3.3912,-3.3914,-3.3395,-3.3339,-3.3304,-3.3304,-3.2783,-3.2448,-3.2448,-3.1763,-3.1482,-3.169,-3.196,-3.2358,-3.3027,-3.3565,-3.4018,-3.4397,-3.4397,-3.4397,-3.4397,-3.4397,-3.4397,-3.4397,-3.4397,-3.4397,-3.4397,-3.4397,-3.4397,-3.4356,-3.3894,-3.3569,-3.327,-3.2033,-3.1472,-3.1172,-3.0442,-3.0216,-3.0216,-3.0216,-3.0216,-3.0216,-3.0216,-3.0216,-3.0112,-2.963,-2.9504,-2.9343,-2.8666,-2.8344,-2.8069,-2.7575,-2.7334,-2.719,-2.719,-2.719,-2.719,-2.719,-2.719,-2.719,-2.719,-2.719,-2.719,-2.719,-2.719,-2.744,-2.8069,-2.8298,-2.8681,-2.9378,-2.9457,-2.9729,-3.0394,-3.0432,-3.0432,-3.0432,-3.0432,-3.0228,-2.9755,-2.9316,-2.9523,-3.0432,-3.0152,-3.0433,-3.1267,-3.1642,-3.2228,-3.3077,-3.3247,-3.3626,-3.0182,-3.0786,-3.1581,-3.2249,-3.3009,-3.3872,-3.5065,-3.5333,-3.5661,-3.6802,-3.5833,-3.4802,-3.4789,-3.4459,-3.4235,-3.4299,-3.4768,-3.491,-3.4292,-3.4513,-3.4454,-3.3638,-3.3532,-3.3491,-3.3353,-3.2938,-3.2739,-3.281,-3.2354,-3.2101,-3.2101,-3.1566,-3.1259,-3.1259,-3.1612,-3.2071,-3.2685,-3.3051,-3.3522,-3.4071,-3.4071,-3.4071,-3.4084,-3.4293,-3.4397,-3.4397,-3.4397,-3.4397,-3.4397,-3.4397,-3.4397,-3.4356,-3.3937,-3.381,-3.3641,-3.2208,-3.1681,-3.1548,-3.0566,-3.0216,-3.0216,-3.0216,-3.0216,-3.0216,-3.0216,-3.0078,-2.9825,-2.932,-2.9183,-2.9022,-2.8299,-2.8046,-2.7908,-2.7598,-2.738,-2.719,-2.719,-2.719,-2.719,-2.719,-2.719,-2.719,-2.719,-2.719,-2.7313,-2.7545,-2.8157,-2.859,-2.8562,-2.9193,-2.9715,-2.9959,-2.9999,-3.0266,-3.0949,-3.0986,-3.0986,-3.0986,-3.0986,-3.0823,-3.0394,-3.0037,-3.0228,-3.0986,-3.0596,-3.0764,-3.1496,-3.1954,-3.2542,-3.3247,-3.3705,-3.4084,-3.193,-3.2436,-3.2975,-3.4092,-3.4693,-3.519,-3.591,-3.5929,-3.5998,-3.6749,-3.5442,-3.4182,-3.4237,-3.426,-3.4356,-3.4498,-3.5053,-3.5138,-3.4154,-3.4237,-3.422,-3.3876,-3.3289,-3.3197,-3.3901,-3.3087,-3.2596,-3.2775,-3.281,-3.281,-3.281,-3.2318,-3.2015,-3.2015,-3.1836,-3.1993,-3.2607,-3.262,-3.2921,-3.3509,-3.3642,-3.3668,-3.3613,-3.4149,-3.4397,-3.4397,-3.4397,-3.4397,-3.4397,-3.4397,-3.4397,-3.4397,-3.4397,-3.4397,-3.4217,-3.2877,-3.2401,-3.2183,-3.0791,-3.0306,-3.0306,-3.0216,-3.0216,-3.0216,-3.0216,-2.9883,-2.9389,-2.8936,-2.8743,-2.8471,-2.7525,-2.764,-2.8008,-2.792,-2.7564,-2.719,-2.719,-2.719,-2.719,-2.719,-2.719,-2.7231,-2.7272,-2.7313,-2.7505,-2.8167,-2.965,-3.0364,-2.9409,-3.0146,-3.0636,-3.0227,-3.0101,-3.0355,-3.0949,-3.0986,-3.0986,-3.0986,-3.0986,-3.0986,-3.0986,-3.0986,-3.0986,-3.0986,-3.0986,-3.0986,-3.0986,-3.2136,-3.2685,-3.2725,-3.3862,-3.4397,-3.193,-3.2036,-3.2267,-3.3973,-3.5094,-3.5902,-3.6427,-3.5359,-3.4446,-3.5096,-3.5354,-3.5312,-3.4699,-3.4809,-3.4958,-3.4827,-3.5091,-3.4667,-3.2885,-3.3028,-3.2777,-3.1299,-3.133,-3.1463,-3.1476,-3.1408,-3.131,-3.1198,-3.1347,-3.1421,-3.1421,-3.1296,-3.1222,-3.1222,-3.1204,-3.1444,-3.198,-3.198,-3.2319,-3.2934,-3.3993,-3.4233,-3.3613,-3.4149,-3.4397,-3.4397,-3.4397,-3.4397,-3.4397,-3.4397,-3.4397,-3.4397,-3.4397,-3.4397,-3.4314,-3.3471,-3.3172,-3.2957,-3.156,-3.1071,-3.0982,-3.0397,-3.0216,-3.0216,-3.0216,-2.9883,-2.9521,-2.9507,-2.9098,-2.8599,-2.8128,-2.7999,-2.7885,-2.7483,-2.7259,-2.719,-2.719,-2.719,-2.719,-2.719,-2.719,-2.7394,-2.7898,-2.7978,-2.8207,-2.8819,-2.9922,-3.0663,-3.0524,-3.1092,-3.147,-3.141,-3.1058,-3.0823,-3.0986,-3.0986,-3.0986,-3.0986,-3.0986,-3.0986,-3.0986,-3.0986,-3.0986,-3.0986,-3.0986,-3.0986,-3.0986,-3.2136,-3.2685,-3.2725,-3.3862,-3.4397,-3.2369,-3.273,-3.3185,-3.5188,-3.6113,-3.6678,-3.7205,-3.6322,-3.5355,-3.5256,-3.479,-3.4384,-3.4255,-3.4677,-3.4935,-3.4572,-3.4606,-3.4089,-3.2449,-3.2454,-3.2283,-3.1316,-3.1099,-3.1142,-3.1341,-3.1161,-3.0949,-3.0849,-3.0949,-3.0986,-3.0986,-3.0986,-3.0986,-3.0986,-3.0986,-3.1261,-3.1797,-3.1536,-3.1718,-3.2293,-3.2999,-3.345,-3.3613,-3.4149,-3.4397,-3.4397,-3.4397,-3.4397,-3.4397,-3.4397,-3.4397,-3.4397,-3.4397,-3.4397,-3.4314,-3.3654,-3.3398,-3.3258,-3.2164,-3.1769,-3.1725,-3.1315,-3.1226,-3.1178,-3.0897,-3.0458,-3.0022,-2.9845,-2.9732,-2.9469,-2.8738,-2.8857,-2.8993,-2.8192,-2.7597,-2.7313,-2.7626,-2.7667,-2.7777,-2.8035,-2.8115,-2.8319,-2.8944,-2.952,-3.0013,-3.0361,-3.1357,-3.2024,-3.1781,-3.2272,-3.2494,-3.2267,-3.198,-3.1692,-3.1418,-3.1392,-3.1274,-3.0999,-3.0986,-3.1104,-3.1378,-3.1392,-3.1392,-3.1392,-3.1666,-3.1797,-3.181,-3.2685,-3.3344,-3.374,-3.4619,-3.5223,-3.2545,-3.337,-3.429,-3.6443,-3.6854,-3.691,-3.7607,-3.7154,-3.6399,-3.5775,-3.4315,-3.3296,-3.3776,-3.4468,-3.4787,-3.4322,-3.4153,-3.365,-3.2418,-3.2095,-3.1958,-3.1868,-3.1311,-3.12,-3.1852,-3.1371,-3.0986,-3.0986,-3.0986,-3.0986,-3.0986,-3.0986,-3.0986,-3.0986,-3.1123,-3.1384,-3.1857,-3.1534,-3.1609,-3.2048,-3.2154,-3.284,-3.406,-3.4364,-3.4518,-3.4634,-3.4481,-3.4481,-3.4592,-3.4481,-3.4397,-3.4397,-3.4397,-3.4397,-3.4314,-3.3768,-3.3556,-3.3471,-3.276,-3.2488,-3.2476,-3.2247,-3.2167,-3.2081,-3.1509,-3.0969,-3.047,-3.0133,-3.038,-3.0486,-2.9499,-2.9942,-3.045,-2.9439,-2.8492,-2.7906,-2.8295,-2.8367,-2.8538,-2.9138,-2.9421,-2.971,-3.0233,-3.1218,-3.1979,-3.1979,-3.2872,-3.3417,-3.2908,-3.3287,-3.3472,-3.312,-3.2975,-3.2751,-3.243,-3.2298,-3.2072,-3.1726,-3.1607,-3.1819,-3.2364,-3.2483,-3.2536,-3.2536,-3.2646,-3.2685,-3.2685,-3.3448,-3.4153,-3.484,-3.5583,-3.6281,-3.121,-3.2292,-3.3811,-3.5971,-3.5828,-3.5498,-3.6609,-3.5598,-3.4547,-3.4927,-3.4816,-3.4615,-3.457,-3.489,-3.5082,-3.482,-3.4404,-3.3719,-3.2535,-3.1674,-3.0962,-3.0438,-3.0293,-3.0456,-3.1108,-3.1061,-3.0986,-3.0986,-3.0986,-3.0986,-3.0986,-3.0986,-3.0986,-3.0986,-3.164,-3.1982,-3.2063,-3.2618,-3.2938,-3.3036,-3.3529,-3.4506,-3.5833,-3.5153,-3.5093,-3.5467,-3.4716,-3.484,-3.5467,-3.4716,-3.4397,-3.4397,-3.4397,-3.4397,-3.4397,-3.4314,-3.4272,-3.4189,-3.3471,-3.3258,-3.3054,-3.1981,-3.1608,-3.1509,-3.0903,-3.0376,-3.0096,-3.053,-3.0692,-3.0692,-3.0631,-3.1034,-3.1283,-3.0687,-3.0437,-3.0061,-2.9172,-2.8976,-2.915,-2.9761,-3.0726,-3.1453,-3.1569,-3.2116,-3.2579,-3.2579,-3.3168,-3.3561,-3.3483,-3.3535,-3.3818,-3.4443,-3.4061,-3.4014,-3.4683,-3.4217,-3.4119,-3.4603,-3.4091,-3.4078,-3.4715,-3.525,-3.5543,-3.5543,-3.367,-3.2685,-3.2685,-3.3992,-3.4708,-3.484,-3.6147,-3.6802,-3.2052,-3.3148,-3.4401,-3.6152,-3.6242,-3.6185,-3.7192,-3.6566,-3.5864,-3.61,-3.5904,-3.5454,-3.4496,-3.4699,-3.4902,-3.4505,-3.3914,-3.3178,-3.236,-3.1505,-3.089,-3.0644,-3.0607,-3.0712,-3.096,-3.0986,-3.0986,-3.0986,-3.0986,-3.1198,-3.1603,-3.1603,-3.1823,-3.2209,-3.2555,-3.272,-3.272,-3.3038,-3.3178,-3.3178,-3.3459,-3.4086,-3.5018,-3.4607,-3.4729,-3.5248,-3.5227,-3.5456,-3.5797,-3.5812,-3.5789,-3.5789,-3.5789,-3.5534,-3.5114,-3.5114,-3.484,-3.4356,-3.4063,-3.3937,-3.3856,-3.3305,-3.3131,-3.3029,-3.2441,-3.2151,-3.1977,-3.1884,-3.2072,-3.224,-3.1904,-3.2189,-3.2456,-3.1909,-3.173,-3.1641,-3.122,-3.0591,-3.0295,-3.0875,-3.1972,-3.2791,-3.2791,-3.3281,-3.3802,-3.4313,-3.462,-3.4942,-3.5395,-3.5474,-3.5579,-3.5958,-3.5748,-3.5596,-3.5691,-3.5423,-3.5263,-3.5201,-3.4911,-3.5037,-3.5686,-3.5944,-3.6254,-3.6539,-3.5579,-3.5051,-3.5051,-3.5664,-3.6231,-3.6735,-3.7348,-3.7857,-3.2751,-3.3423,-3.4,-3.5847,-3.6259,-3.6494,-3.7531,-3.7459,-3.7203,-3.7182,-3.6753,-3.5996,-3.4624,-3.4741,-3.4902,-3.4438,-3.3638,-3.2889,-3.2434,-3.1566,-3.0986,-3.0986,-3.0986,-3.0986,-3.0986,-3.0986,-3.0986,-3.0986,-3.0986,-3.1222,-3.1773,-3.2015,-3.2362,-3.2897,-3.3283,-3.3492,-3.3492,-3.3679,-3.3796,-3.3796,-3.3796,-3.4111,-3.4725,-3.4725,-3.5018,-3.5559,-3.5813,-3.6141,-3.6528,-3.6775,-3.688,-3.688,-3.688,-3.6543,-3.6002,-3.6002,-3.5575,-3.5019,-3.5019,-3.5019,-3.4992,-3.49,-3.4806,-3.474,-3.418,-3.4006,-3.3913,-3.3446,-3.3766,-3.41,-3.3577,-3.3832,-3.4199,-3.3742,-3.3638,-3.3455,-3.2829,-3.1978,-3.1523,-3.2137,-3.3132,-3.3938,-3.4123,-3.4511,-3.4995,-3.5664,-3.5744,-3.5967,-3.6578,-3.6782,-3.6958,-3.7218,-3.7218,-3.7148,-3.6971,-3.6785,-3.6556,-3.63,-3.6114,-3.6292,-3.6914,-3.6942,-3.7143,-3.751,-3.7548,-3.7319,-3.688,-3.7127,-3.7539,-3.8202,-3.8389,-3.8811,-3.2297,-3.1845,-3.1433,-3.4444,-3.5087,-3.5354,-3.6837,-3.7179,-3.723,-3.7374,-3.6875,-3.6212,-3.5542,-3.5442,-3.5392,-3.518,-3.4036,-3.3192,-3.3143,-3.1896,-3.0986,-3.0986,-3.0986,-3.0986,-3.0986,-3.0986,-3.0986,-3.0986,-3.0986,-3.1024,-3.1061,-3.17,-3.211,-3.2146,-3.3498,-3.423,-3.423,-3.4986,-3.5359,-3.5359,-3.5359,-3.5735,-3.6376,-3.6376,-3.6705,-3.7228,-3.6296,-3.6751,-3.8032,-3.7242,-3.688,-3.688,-3.688,-3.688,-3.6841,-3.6841,-3.6802,-3.6763,-3.6763,-3.6763,-3.6679,-3.6171,-3.6027,-3.5901,-3.5307,-3.511,-3.5096,-3.5068,-3.548,-3.5985,-3.5933,-3.6329,-3.671,-3.6682,-3.6668,-3.5919,-3.3265,-3.2659,-3.2776,-3.3391,-3.418,-3.4924,-3.548,-3.5705,-3.5819,-3.5857,-3.5895,-3.5895,-3.5947,-3.6529,-3.7218,-3.8037,-3.8113,-3.8412,-3.9184,-3.8659,-3.854,-3.9116,-3.8585,-3.8525,-3.919,-3.922,-3.9235,-3.9265,-3.9265,-3.8509,-3.688,-3.7744,-3.8165,-3.8202,-3.8995,-3.9337,-3.1008,-3.1696,-3.23,-3.3362,-3.4326,-3.5148,-3.559,-3.6429,-3.7047,-3.6753,-3.6892,-3.6723,-3.5683,-3.5145,-3.4996,-3.5317,-3.3806,-3.2709,-3.3122,-3.1932,-3.0986,-3.0986,-3.0986,-3.0986,-3.0986,-3.0986,-3.0986,-3.0986,-3.1431,-3.1919,-3.239,-3.3094,-3.3734,-3.4254,-3.4773,-3.5052,-3.5052,-3.5444,-3.5621,-3.5621,-3.6075,-3.6228,-3.6192,-3.6484,-3.6959,-3.7571,-3.7072,-3.7422,-3.8337,-3.8458,-3.8509,-3.8509,-3.8509,-3.8211,-3.7744,-3.7744,-3.7372,-3.688,-3.688,-3.688,-3.6891,-3.668,-3.661,-3.6567,-3.638,-3.631,-3.631,-3.631,-3.6427,-3.661,-3.661,-3.6764,-3.688,-3.688,-3.688,-3.6612,-3.5597,-3.5148,-3.4956,-3.5176,-3.5701,-3.6214,-3.6422,-3.6518,-3.6584,-3.6713,-3.6745,-3.6785,-3.6835,-3.7469,-3.7988,-3.8307,-3.8692,-3.9083,-3.9388,-3.9185,-3.9155,-3.9373,-3.9185,-3.9155,-3.9373,-3.9388,-3.9388,-3.9388,-3.9388,-3.9104,-3.8509,-3.8797,-3.8958,-3.8973,-3.928,-3.9388,-3.0123,-3.1021,-3.2062,-3.2637,-3.3433,-3.4308,-3.5081,-3.6025,-3.6706,-3.6622,-3.6822,-3.6775,-3.5959,-3.508,-3.4728,-3.5385,-3.3867,-3.273,-3.3129,-3.2137,-3.1259,-3.1024,-3.0986,-3.0986,-3.0986,-3.0986,-3.1086,-3.1371,-3.1809,-3.2434,-3.3143,-3.3905,-3.471,-3.5539,-3.5587,-3.5604,-3.5651,-3.575,-3.5799,-3.5799,-3.6237,-3.6408,-3.6338,-3.6907,-3.7506,-3.8137,-3.8161,-3.8402,-3.8766,-3.923,-3.9388,-3.9388,-3.9388,-3.9068,-3.8612,-3.8612,-3.8248,-3.7753,-3.7753,-3.7753,-3.7753,-3.7753,-3.7753,-3.7753,-3.7753,-3.7753,-3.7753,-3.7753,-3.7753,-3.7753,-3.7753,-3.7753,-3.7753,-3.7753,-3.7753,-3.7753,-3.7753,-3.6902,-3.6155,-3.6338,-3.6726,-3.7116,-3.7291,-3.7377,-3.7442,-3.7586,-3.76,-3.7632,-3.7724,-3.8317,-3.8736,-3.8736,-3.914,-3.9388,-3.9388,-3.9388,-3.9388,-3.9388,-3.9388,-3.9388,-3.9388,-3.9388,-3.9388,-3.9388,-3.9388,-3.9388,-3.9388,-3.9388,-3.9388,-3.9388,-3.9388,-3.9388,0.0,0.0,0.0,-3.2143,-3.2304,-3.2723,-3.5276,-3.586,-3.61,-3.6934,-3.6649,-3.6283,-3.6353,-3.535,-3.4728,-3.5385,-3.4324,-3.335,-3.3233,-3.2613,-3.1882,-3.1161,-3.1048,-3.1048,-3.1048,-3.1048,-3.1371,-3.2087,-3.2146,-3.247,-3.3178,-3.3973,-3.478,-3.572,-3.5752,-3.5847,-3.6068,-3.6068,-3.6068,-3.6068,-3.6084,-3.6402,-3.7071,-3.7755,-3.8424,-3.9043,-3.9521,-3.9631,-3.9445,-3.9424,-3.9388,-3.9388,-3.9409,-3.9424,-3.9424,-3.9424,-3.9424,-3.9424,-3.9424,-3.9388,-3.9388,-3.9388,-3.9388,-3.9388,-3.9388,-3.9388,-3.9388,-3.9388,-3.9388,-3.9388,-3.9388,-3.9388,-3.9388,-3.9388,-3.9388,-3.9388,-3.9388,-3.7694,-3.6372,-3.6884,-3.7175,-3.7558,-3.8123,-3.8339,-3.8407,-3.8392,-3.8392,-3.8377,-3.8362,-3.896,-3.9394,-3.9394,-3.9373,-3.9388,-3.9388,-3.9388,-3.9388,-3.9388,-3.9388,-3.9388,-3.9388,-3.9388,-3.9424,-3.9424,-3.9424,-3.9445,-3.9445,-3.9445,-3.9424,-3.9424,-3.9445,-3.9445,-2.8851,0.0,0.0,0.0,0.0,0.0,-3.1853,-3.2426,-3.3208,-3.4605,-3.5138,-3.5411,-3.5581,-3.5355,-3.5247,-3.5449,-3.4324,-3.3531,-3.3955,-3.3353,-3.284,-3.2627,-3.2591,-3.2591,-3.2591,-3.2591,-3.2698,-3.2861,-3.3374,-3.3788,-3.3959,-3.516,-3.5977,-3.6353,-3.6919,-3.7265,-3.7294,-3.7397,-3.744,-3.744,-3.7979,-3.8134,-3.7968,-3.9086,-3.9629,-3.9677,-4.0257,-4.064,-4.0839,-3.9809,-3.9388,-3.9445,-3.9985,-4.0216,-4.0216,-4.0216,-4.0216,-4.0111,-3.9589,-3.9388,-3.9388,-3.9388,-3.9388,-3.9388,-3.9388,-3.9388,-3.9388,-3.9388,-3.9388,-3.9388,-3.9388,-3.9388,-3.9388,-3.9388,-3.9388,-3.9388,-3.9388,-3.8934,-3.8539,-3.8679,-3.8759,-3.886,-3.9053,-3.9116,-3.896,-3.8467,-3.8392,-3.8212,-3.7749,-3.8257,-3.8676,-3.8676,-3.9125,-3.9388,-3.9388,-3.9388,-3.9388,-3.9388,-3.9388,-3.9388,-3.9388,-3.9388,-3.9646,-4.0181,-4.0216,-4.0443,-4.0925,-4.0443,-4.0216,-4.0216,-4.0703,-4.0925,-2.8788,-2.9414,-3.0267,-2.9263,0.0,0.0,-3.0929,-3.1394,-3.2122,-3.399,-3.4695,-3.5139,-3.5565,-3.5248,-3.5033,-3.5364,-3.4552,-3.3958,-3.4259,-3.3925,-3.3561,-3.3248,-3.3178,-3.3178,-3.3178,-3.3178,-3.3318,-3.363,-3.4075,-3.4547,-3.5127,-3.6009,-3.6661,-3.701,-3.7587,-3.7892,-3.7924,-3.8064,-3.8133,-3.8133,-3.854,-3.8597,-3.8327,-3.9621,-4.0132,-4.0089,-4.088,-4.1373,-4.1558,-4.0634,-4.027,-4.0305,-4.0737,-4.0907,-4.0907,-4.0907,-4.0907,-4.0873,-4.0443,-4.027,-4.027,-4.027,-4.027,-4.02,-3.995,-3.9844,-3.9844,-3.9844,-3.9844,-3.9788,-3.9481,-3.9388,-3.9388,-3.9388,-3.9661,-3.9844,-3.9844,-4.0076,-4.0111,-3.9517,-3.9646,-3.9844,-3.9844,-4.0076,-4.0132,-3.9753,-3.9482,-3.9241,-3.9122,-3.9188,-3.9378,-3.9657,-4.0025,-4.027,-4.027,-4.027,-4.027,-4.027,-4.027,-4.027,-4.027,-4.027,-4.0478,-4.0907,-4.0907,-4.126,-4.1965,-4.126,-4.0907,-4.094,-4.1327,-4.1492,-2.9201,-2.943,-3.0184,-2.9847,-2.899,0.0,-3.1207,-3.1449,-3.1828,-3.4071,-3.4587,-3.4836,-3.5619,-3.4928,-3.4454,-3.4968,-3.4729,-3.4465,-3.4426,-3.4428,-3.4177,-3.3541,-3.3471,-3.3471,-3.3471,-3.3471,-3.3768,-3.4466,-3.4599,-3.5192,-3.6446,-3.6692,-3.7084,-3.7706,-3.8048,-3.8262,-3.8327,-3.8435,-3.8502,-3.8502,-3.8583,-3.8604,-3.8653,-3.994,-4.0515,-4.052,-4.1484,-4.1901,-4.1869,-4.166,-4.1593,-4.1525,-4.1591,-4.1624,-4.1624,-4.1624,-4.1624,-4.1624,-4.1525,-4.1492,-4.1492,-4.1492,-4.1492,-4.1393,-4.0805,-4.0615,-4.0615,-4.0615,-4.0615,-4.0443,-3.9809,-3.9589,-3.9553,-3.961,-4.0076,-4.0512,-4.0581,-4.1075,-4.1127,-3.9879,-4.0146,-4.0615,-4.0615,-4.1109,-4.1492,-4.1492,-4.1008,-4.0839,-4.1426,-4.0974,-4.0839,-4.1426,-4.1492,-4.1492,-4.1492,-4.1492,-4.1492,-4.1492,-4.1492,-4.1492,-4.1492,-4.1492,-4.1525,-4.1624,-4.1689,-4.2061,-4.271,-4.1981,-4.1656,-4.1722,-4.1722,-4.1722,-2.9593,-2.9134,-2.872,-2.8335,-2.8064,0.0,-2.9287,-2.9016,-2.9254,-3.1729,-3.2254,-3.2528,-3.3372,-3.3806,-3.3937,-3.3529,-3.3889,-3.4485,-3.5165,-3.5279,-3.5213,-3.5082,-3.5034,-3.5034,-3.5034,-3.5034,-3.5314,-3.5929,-3.6492,-3.6919,-3.7191,-3.7777,-3.8234,-3.8469,-3.9146,-3.9592,-3.9722,-3.9747,-3.9747,-3.9747,-4.0352,-4.0574,-4.0518,-4.1961,-4.2487,-4.2212,-4.2485,-4.2512,-4.2348,-4.2318,-4.1989,-4.1558,-4.2158,-4.238,-4.238,-4.238,-4.238,-4.2285,-4.1722,-4.1492,-4.1492,-4.1492,-4.1492,-4.1492,-4.1327,-4.1294,-4.1294,-4.1294,-4.1294,-4.126,-4.1127,-4.0668,-4.0409,-4.0974,-4.0805,-4.065,-4.1194,-4.1393,-4.1426,-4.1127,-4.1194,-4.1294,-4.1294,-4.1426,-4.1492,-4.1492,-4.1393,-4.136,-4.1492,-4.1393,-4.136,-4.1492,-4.1492,-4.1492,-4.1492,-4.1492,-4.1492,-4.1492,-4.1492,-4.1492,-4.1492,-4.1492,-4.1787,-4.238,-4.2912,-4.3265,-4.3402,-4.271,-4.2679,-4.3204,-4.3204,-4.3204,-2.9972,-2.9386,-2.8869,-2.829,-2.8,0.0,0.0,-2.8832,-2.9372,-3.085,-3.1674,-3.2276,-3.2711,-3.2877,-3.2941,-3.2953,-3.332,-3.3785,-3.4204,-3.5232,-3.5941,-3.5941,-3.6227,-3.6321,-3.5973,-3.6258,-3.6585,-3.6875,-3.7221,-3.7576,-3.7937,-3.8346,-3.8761,-3.9189,-3.9722,-3.9986,-3.9986,-4.0062,-4.0096,-4.0096,-4.046,-4.062,-4.0593,-4.1644,-4.1969,-4.1777,-4.211,-4.2147,-4.1943,-4.1943,-4.1747,-4.1565,-4.2666,-4.2654,-4.2097,-4.2834,-4.2867,-4.2545,-4.2549,-4.2538,-4.2538,-4.2538,-4.2538,-4.2475,-4.2158,-4.2045,-4.1949,-4.1591,-4.1754,-4.1949,-4.1591,-4.126,-4.1093,-4.1426,-4.1525,-4.1624,-4.1981,-4.2317,-4.2538,-4.2538,-4.2538,-4.2443,-4.2126,-4.2317,-4.2538,-4.2538,-4.2253,-4.219,-4.2506,-4.2253,-4.219,-4.2506,-4.2538,-4.2538,-4.2538,-4.2538,-4.2538,-4.2538,-4.2538,-4.2538,-4.2538,-4.2538,-4.271,-4.3096,-4.3432,-4.3598,-4.3598,-4.3265,-4.3265,-4.3598,-4.3598,-4.3598,-3.0396,-2.9823,-2.9454,-2.8683,-2.8251,-2.8106,0.0,0.0,0.0,-3.049,-3.1408,-3.2165,-3.2293,-3.196,-3.1837,-3.2358,-3.2661,-3.2918,-3.3123,-3.4754,-3.5933,-3.5966,-3.6697,-3.6973,-3.6445,-3.6987,-3.7462,-3.7589,-3.7594,-3.7963,-3.8816,-3.8962,-3.9325,-3.9986,-4.0237,-4.0328,-4.0204,-4.0328,-4.0328,-4.0246,-4.0382,-4.0425,-4.0434,-4.0981,-4.116,-4.1124,-4.1382,-4.1372,-4.1226,-4.1226,-4.1127,-4.1143,-4.2589,-4.244,-4.1529,-4.2738,-4.2886,-4.2572,-4.3168,-4.3466,-4.3598,-4.3598,-4.3598,-4.3492,-4.2943,-4.2772,-4.2679,-4.2078,-4.2317,-4.2648,-4.2045,-4.1819,-4.1754,-4.1884,-4.2253,-4.2648,-4.2772,-4.3235,-4.3598,-4.3598,-4.3598,-4.3432,-4.2881,-4.3235,-4.3598,-4.3598,-4.3143,-4.2974,-4.3539,-4.3143,-4.3005,-4.3522,-4.3598,-4.3598,-4.3598,-4.3598,-4.3598,-4.3598,-4.3598,-4.3598,-4.3598,-4.3598,-4.3598,-4.3598,-4.3598,-4.3598,-4.3598,-4.3598,-4.3598,-4.3598,-4.3598,-4.3598,-3.1032,-3.0297,-2.9569,-2.863,-2.8414,-2.8519,-2.8785,0.0,-2.8972,-3.0043,0.0,-3.0222,-3.0825,0.0,0.0,-3.079,-3.143,-3.2369,-3.355,-3.4013,-3.4271,-3.4333,-3.5568,-3.6398,-3.634,-3.6966,-3.767,-3.8314,-3.8317,-3.8838,-4.0102,-4.0186,-4.0504,-4.1099,-4.1258,-4.1326,-4.1326,-4.1326,-4.1139,-4.0724,-4.1378,-4.1614,-4.1525,-4.1856,-4.2061,-4.2163,-4.1167,-4.0635,-4.0525,-4.0525,-4.0144,-3.968,-4.111,-4.1558,-4.1425,-4.1579,-4.1993,-4.2506,-4.2589,-4.3035,-4.3598,-4.3598,-4.3598,-4.3598,-4.3492,-4.3492,-4.3462,-4.3402,-4.3432,-4.3462,-4.3386,-4.2912,-4.2617,-4.3235,-4.2974,-4.2772,-4.3372,-4.3539,-4.3598,-4.3598,-4.3598,-4.3598,-4.3492,-4.3568,-4.3598,-4.3598,-4.3539,-4.3492,-4.3598,-4.3522,-4.3539,-4.3598,-4.3598,-4.3598,-4.3598,-4.3598,-4.3598,-4.3598,-4.3598,-4.3598,-4.3598,-4.3598,-4.3598,-4.3598,-4.3598,-4.3598,-4.3598,-4.3598,-4.3598,-4.3598,-4.3598,-4.3598,-3.1632,-3.1004,-3.0229,-2.9354,-2.917,-2.9022,-2.8373,-2.8687,-2.9195,-2.9355,0.0,0.0,0.0,0.0,0.0,0.0,-3.1345,-3.1902,-3.1879,-3.2737,-3.3835,-3.5123,-3.5765,-3.6474,-3.7319,-3.7887,-3.8569,-3.9415,-3.9235,-3.9638,-4.0856,-4.0861,-4.0984,-4.1393,-4.1459,-4.1503,-4.1503,-4.1503,-4.1393,-4.1208,-4.1521,-4.1632,-4.1603,-4.1698,-4.1764,-4.1729,-4.1219,-4.0886,-4.0687,-4.0687,-4.0316,-3.9772,-4.035,-4.0431,-4.0332,-4.1591,-4.1943,-4.1976,-4.2837,-4.3333,-4.3598,-4.3598,-4.3598,-4.3598,-4.3598,-4.3598,-4.3598,-4.3598,-4.3598,-4.3598,-4.3598,-4.3402,-4.3235,-4.3522,-4.3402,-4.3265,-4.3539,-4.3598,-4.3598,-4.3598,-4.3598,-4.3598,-4.3598,-4.3598,-4.3598,-4.3598,-4.3598,-4.3598,-4.3598,-4.3598,-4.3598,-4.3598,-4.3598,-4.3598,-4.3598,-4.3598,-4.3598,-4.3598,-4.3935,-4.4121,-4.4121,-4.4412,-4.444,-4.4121,-4.4121,-4.3948,-4.3598,-4.3598,-4.3598,-4.3598,-4.3598,-4.3598,-3.2056,-3.1614,-3.0982,-2.9927,-2.985,-2.9714,-2.8514,-2.9002,-2.9659,-2.9467,-3.0106,0.0,0.0,0.0,-3.1038,-3.0902,0.0,-3.183,-3.1278,-3.2042,-3.3233,-3.4733,-3.5514,-3.6534,-3.8145,-3.8413,-3.8877,-3.9795,-3.9394,-3.9715,-4.1135,-4.1099,-4.1275,-4.1871,-4.1871,-4.1871,-4.1871,-4.1871,-4.1807,-4.1678,-4.1678,-4.1678,-4.1678,-4.1547,-4.1499,-4.1455,-4.1303,-4.1099,-4.0874,-4.0874,-4.0535,-4.0003,-4.0003,-3.9705,-3.9514,-4.1276,-4.1707,-4.1562,-4.2853,-4.3416,-4.3565,-4.335,-4.33,-4.33,-4.33,-4.3151,-4.2986,-4.2986,-4.3135,-4.33,-4.33,-4.3449,-4.3598,-4.3598,-4.3598,-4.3598,-4.3598,-4.3598,-4.3598,-4.3598,-4.3598,-4.3598,-4.3598,-4.3598,-4.3598,-4.3598,-4.3598,-4.3641,-4.3818,-4.3848,-4.3889,-4.4047,-4.4076,-4.4076,-4.4076,-4.4076,-4.4076,-4.4076,-4.4485,-4.4735,-4.4735,-4.5108,-4.5054,-4.4502,-4.4502,-4.4207,-4.3598,-4.3598,-4.3598,-4.3598,-4.3598,-4.3598,-3.2232,-3.2043,-3.1672,-3.002,-3.0242,-3.0658,-2.9819,-2.9816,-3.0178,-3.0866,-3.0555,-3.0287,-3.0897,-3.1315,-3.1528,-3.1397,-3.1714,0.0,0.0,-3.2453,-3.1999,-3.1959,-3.4167,-3.6473,-3.8405,-3.8062,-3.8069,-3.8868,-3.8283,-3.8781,-4.0887,-4.0877,-4.1435,-4.2808,-4.2863,-4.2863,-4.2863,-4.2863,-4.2634,-4.2177,-4.2177,-4.2177,-4.2157,-4.1717,-4.163,-4.186,-4.1326,-4.1001,-4.0802,-4.0802,-4.0473,-4.0003,-4.0003,-3.9705,-3.9398,-4.0194,-4.0862,-4.1496,-4.2258,-4.2986,-4.3482,-4.2754,-4.2522,-4.2522,-4.2522,-4.2026,-4.1475,-4.1475,-4.1976,-4.2522,-4.2522,-4.3052,-4.3598,-4.3598,-4.3598,-4.3598,-4.3598,-4.3598,-4.3598,-4.3598,-4.3598,-4.3598,-4.3598,-4.3598,-4.3598,-4.3598,-4.3598,-4.3818,-4.439,-4.4474,-4.468,-4.5197,-4.525,-4.525,-4.525,-4.525,-4.525,-4.525,-4.525,-4.5276,-4.5276,-4.5276,-4.5054,-4.4502,-4.4502,-4.4207,-4.3598,-4.3598,-4.3598,-4.3598,-4.3598,-4.3598,-3.269,-3.2678,-3.2502,-3.1353,-3.1387,-3.143,-3.0399,-3.0584,-3.0954,-3.0802,-3.0989,-3.1216,-3.1435,-3.1565,-3.1714,-3.1843,-3.2056,-3.2249,0.0,-3.216,-3.2264,-3.2975,-3.4898,-3.6425,-3.7092,-3.7723,-3.8247,-3.8556,-3.8633,-3.922,-4.0523,-4.1061,-4.155,-4.201,-4.261,-4.2901,-4.2901,-4.2861,-4.2767,-4.2653,-4.2534,-4.2494,-4.2591,-4.2335,-4.2274,-4.2353,-4.2172,-4.2026,-4.1934,-4.1934,-4.1574,-4.1001,-4.1001,-4.048,-3.9815,-4.0247,-4.0812,-4.1591,-4.2787,-4.3383,-4.3549,-4.33,-4.3218,-4.3218,-4.3218,-4.3035,-4.2853,-4.2853,-4.3035,-4.3218,-4.3218,-4.34,-4.3598,-4.3598,-4.3598,-4.3598,-4.3598,-4.3598,-4.3598,-4.3598,-4.3598,-4.3598,-4.3598,-4.3598,-4.3598,-4.3598,-4.3598,-4.3818,-4.4418,-4.4502,-4.4708,-4.525,-4.5303,-4.5303,-4.5303,-4.5303,-4.5303,-4.5303,-4.5657,-4.592,-4.592,-4.6242,-4.6151,-4.5641,-4.5641,-4.5337,-4.4729,-4.4729,-4.4552,-4.4207,-4.4207,-4.3977,-3.2948,-3.3011,-3.2875,-3.2074,-3.2167,-3.2211,-3.1267,-3.1525,-3.1927,-3.1827,-3.1864,-3.2087,-3.2662,-3.2631,-3.2564,-3.2738,-3.2977,-3.2972,0.0,-3.2699,-3.3138,-3.3887,-3.4869,-3.575,-3.6429,-3.7109,-3.7703,-3.822,-3.8419,-3.8936,-3.9986,-4.0781,-4.1397,-4.1796,-4.2522,-4.2957,-4.3087,-4.2899,-4.2823,-4.29,-4.2728,-4.2725,-4.2802,-4.2725,-4.2629,-4.2568,-4.2568,-4.2508,-4.2425,-4.2425,-4.2061,-4.1494,-4.1494,-4.1001,-4.0364,-4.0846,-4.151,-4.2274,-4.2969,-4.3367,-4.3549,-4.3284,-4.3201,-4.3201,-4.3201,-4.3019,-4.2804,-4.2804,-4.3002,-4.3201,-4.3201,-4.34,-4.3598,-4.3598,-4.3598,-4.3598,-4.3598,-4.3759,-4.3877,-4.3658,-4.3948,-4.4076,-4.3671,-4.3789,-4.3848,-4.3611,-4.3598,-4.3889,-4.4663,-4.4773,-4.5054,-4.5835,-4.591,-4.591,-4.591,-4.591,-4.591,-4.591,-4.6266,-4.6477,-4.6477,-4.6819,-4.6731,-4.6211,-4.5995,-4.57,-4.5303,-4.5108,-4.4937,-4.4773,-4.4773,-4.4597]},{"header":{"parameterUnit":"m.s-1","parameterCategory":1,"la1":30.6,"la2":29.2853,"lo1":-89.7004,"lo2":-87.6739,"dy":0.0162,"dx":0.0183,"nx":112,"ny":82,"refTime":"2026-05-06T00:00:00:Z","depth":0,"parameterNumber":3,"parameterNumberName":"V-component_of_WINDS"},"data":[0.0,0.0,0.0,0.0,0.0,0.0,0.0,0.0,0.0,0.0,0.0,0.0,0.0,0.0,0.0,0.0,0.0,0.0,0.0,0.0,0.0,0.0,0.0,0.0,0.0,0.0,0.0,0.0,0.0,0.0,0.0,0.0,0.0,0.0,0.0,0.0,0.0,0.0,0.0,0.0,0.0,0.0,0.0,0.0,0.0,0.0,0.0,0.0,0.0,0.0,0.0,0.0,0.0,0.0,0.0,0.0,0.0,0.0,0.0,0.0,0.0,0.0,0.0,0.0,0.0,0.0,0.0,0.0,0.0,0.0,0.0,0.0,0.0,0.0,0.0,0.0,0.0,0.0,0.0,0.0,0.0,0.0,0.0,0.0,0.0,0.0,0.0,0.0,0.0,0.0,1.1414,1.1262,1.1062,1.0592,0.9666,0.9588,0.9034,0.7719,0.0,0.0,0.0,0.0,0.0,0.0,0.0,0.0,0.0,0.0,0.0,0.0,0.0,0.0,0.0,0.0,0.0,0.0,0.0,0.0,0.0,0.0,0.0,0.0,0.0,0.0,0.0,0.0,0.0,0.0,0.0,0.0,0.0,0.0,0.0,0.0,0.0,0.0,0.0,0.0,0.0,0.0,0.0,0.0,0.0,0.0,0.0,0.0,0.0,0.0,0.0,0.0,0.0,0.0,0.0,0.0,0.0,0.0,0.0,0.0,0.0,0.0,0.0,0.0,0.0,0.0,0.0,0.0,0.0,0.0,0.0,0.0,0.0,0.0,0.0,0.0,0.0,0.0,0.0,0.0,0.0,0.0,0.0,0.0,0.0,0.0,0.0,0.0,0.0,0.0,0.0,0.0,0.0,0.0,0.0,0.0,0.0,0.0,0.0,0.0,0.0,0.0,0.0,0.0,1.0825,1.058,1.0126,0.9769,0.9614,0.9588,0.9091,0.7923,0.0,0.0,0.0,0.0,0.0,0.0,0.0,0.0,0.0,0.0,0.0,0.0,0.0,0.0,0.0,0.0,0.0,0.0,0.0,0.0,0.0,0.0,0.0,0.0,0.0,0.0,0.0,0.0,0.0,0.0,0.0,0.0,0.0,0.0,0.0,0.0,0.0,0.0,0.0,0.0,0.0,0.0,0.0,0.0,0.0,0.0,0.0,0.0,0.0,0.0,0.0,0.0,0.0,0.0,0.0,0.0,0.0,0.0,0.0,0.0,0.0,0.0,0.0,0.0,0.0,0.0,0.0,0.0,0.0,0.0,0.0,0.0,0.0,0.0,0.0,0.0,0.0,0.0,0.0,0.0,0.0,0.0,0.0,0.0,0.0,0.0,0.0,0.0,0.0,0.0,0.0,0.0,0.0,0.0,0.0,0.0,0.0,0.0,0.0,0.0,0.0,0.0,0.0,1.0869,1.0634,1.0424,1.019,0.9925,0.9614,0.9588,0.9112,0.7978,0.7529,0.0,0.0,0.0,0.0,0.0,0.0,0.0,0.0,0.0,0.0,0.0,0.0,0.0,0.0,0.0,0.0,0.0,0.0,0.0,0.0,0.0,0.0,0.0,0.0,0.0,0.0,0.0,0.0,0.0,0.0,0.0,0.0,0.0,0.0,0.0,0.0,0.0,0.0,0.0,0.0,0.0,0.0,0.0,0.0,0.0,0.0,0.0,0.0,0.0,0.0,0.0,0.0,0.0,0.0,0.0,0.0,0.0,0.0,0.0,0.0,0.0,0.0,0.0,0.0,0.0,0.0,0.0,0.0,0.0,0.0,0.0,0.0,0.0,0.0,0.0,0.0,0.0,0.0,0.0,0.0,0.0,0.0,0.0,0.0,0.0,0.0,0.0,0.0,0.0,0.0,0.0,0.0,0.0,0.0,0.0,0.0,0.0,0.0,0.0,0.0,0.0,0.0,1.0965,1.0738,1.0486,1.0386,1.0157,0.9757,0.9592,0.9015,0.7887,0.7432,0.0,0.0,0.0,0.0,0.0,0.0,0.0,0.0,0.0,0.0,0.0,0.0,0.0,0.0,0.0,0.0,0.0,0.0,0.0,0.0,0.0,0.0,0.0,0.0,0.0,0.0,0.0,0.0,0.0,0.0,0.0,0.0,0.0,0.0,0.0,0.0,0.0,0.0,0.0,0.0,0.0,0.0,0.0,0.0,0.0,0.0,0.0,0.0,0.0,0.0,0.0,0.0,0.0,0.0,0.0,0.0,0.0,0.0,0.0,0.0,0.0,0.0,0.0,0.0,0.0,0.0,0.0,0.0,0.0,0.0,0.0,0.0,0.0,0.0,0.0,0.0,0.0,0.0,0.0,0.0,0.0,0.0,0.0,0.0,0.0,0.0,0.0,0.0,0.0,0.0,0.0,0.0,0.0,0.0,0.0,0.0,0.0,0.0,0.0,0.0,0.0,0.0,1.1088,1.1288,1.0663,1.0306,1.0122,1.0068,0.9566,0.8766,0.7695,0.7133,0.0,0.0,0.0,0.0,0.0,0.0,0.0,0.0,0.0,0.0,0.0,0.0,0.0,0.0,0.0,0.0,0.0,0.0,0.0,0.0,0.0,0.0,0.0,0.0,0.0,0.0,0.0,0.0,0.0,0.0,0.0,0.0,0.0,0.0,0.0,0.0,0.0,0.0,0.0,0.0,0.0,0.0,0.0,0.0,0.0,0.0,0.0,0.0,0.0,0.0,0.0,0.0,0.0,0.0,0.0,0.0,0.0,0.0,0.0,0.0,0.0,0.0,0.0,0.0,0.0,0.0,0.0,0.0,0.0,0.0,0.0,0.0,0.0,0.0,0.0,0.0,0.0,0.0,0.0,0.0,0.0,0.0,0.0,0.0,0.0,0.0,0.0,0.0,0.0,0.0,0.0,0.0,0.0,0.0,0.0,0.0,0.0,0.0,0.0,0.0,0.0,0.0,1.1404,1.1559,1.1254,1.0544,1.0104,1.0104,0.9702,0.8927,0.7683,0.0,0.0,0.0,0.0,0.0,0.0,0.0,0.0,0.0,0.0,0.0,0.0,0.0,0.0,0.0,0.0,0.0,0.0,0.0,0.0,0.0,0.0,0.0,0.0,0.0,0.0,0.0,0.0,0.0,0.0,0.0,0.0,0.0,0.0,0.0,0.0,0.0,0.0,0.0,0.0,0.0,0.0,0.0,0.0,0.0,0.0,0.0,0.0,0.0,0.0,0.0,0.0,0.0,0.0,0.0,0.0,0.0,0.0,0.0,0.0,0.0,0.0,0.0,0.0,0.0,0.0,0.0,0.0,0.0,0.0,0.0,0.0,0.0,0.0,0.0,0.0,0.0,0.0,0.0,0.0,0.0,0.0,0.0,0.0,0.0,0.0,0.0,0.0,0.0,0.0,0.0,0.0,0.0,0.0,0.0,0.0,0.0,0.0,0.0,0.0,0.0,0.0,1.1645,1.2157,1.2402,1.1941,1.1172,1.0591,1.0293,0.9863,0.8997,0.7585,0.0,0.0,0.0,0.0,0.0,0.0,0.0,0.0,0.0,0.0,0.0,0.0,0.0,0.0,0.0,0.0,0.0,0.0,0.0,0.0,0.0,0.0,0.0,0.0,0.0,0.0,0.0,0.0,0.0,0.0,0.0,0.0,0.0,0.0,0.0,0.0,0.0,0.0,0.0,0.0,0.0,0.0,0.0,0.0,0.0,0.0,0.0,0.0,0.0,0.0,0.0,0.0,0.0,0.0,0.0,0.0,0.0,0.0,0.0,0.0,0.0,0.0,0.0,0.0,0.0,0.0,0.0,0.0,0.0,0.0,0.0,0.0,0.0,0.0,0.0,0.0,0.0,0.0,0.0,0.0,0.0,0.0,0.0,0.0,0.0,0.0,0.0,0.0,0.0,0.0,0.0,0.0,0.0,0.0,0.0,0.0,0.0,0.0,0.0,0.0,0.0,0.0,1.2064,1.3433,1.3983,1.2665,1.2218,1.1614,1.0702,0.9994,0.8957,0.0,0.0,0.0,0.0,0.0,0.0,0.0,0.0,0.0,0.0,0.0,0.0,0.0,0.0,0.0,0.0,0.0,0.0,0.0,0.0,0.0,0.0,0.0,0.0,0.0,0.0,0.0,0.0,0.0,0.0,0.0,0.0,0.0,0.0,0.0,0.0,0.0,0.0,0.0,0.0,0.0,0.0,0.0,0.0,0.0,0.0,0.0,0.0,0.0,0.0,0.0,0.0,0.0,0.0,0.0,0.0,0.0,0.0,0.0,0.0,0.0,0.0,0.0,0.0,0.0,0.0,0.0,0.0,0.0,0.0,0.0,0.0,0.0,0.0,0.0,0.0,0.0,0.0,0.0,0.0,0.0,0.0,0.0,0.0,0.0,0.0,0.0,0.0,0.0,0.0,0.0,0.0,0.0,0.0,0.0,0.0,0.0,0.0,0.0,0.0,0.0,0.0,0.0,1.2729,1.37,1.435,1.3953,1.2754,1.1818,1.1329,1.0474,0.9325,0.7884,0.0,0.0,0.0,0.0,0.0,0.0,0.0,0.0,0.0,0.0,0.0,0.0,0.0,0.0,0.0,0.0,0.0,0.0,0.0,0.0,0.0,0.0,0.0,0.0,0.0,0.0,0.0,0.0,0.0,0.0,0.0,0.0,0.0,0.0,0.0,0.0,0.0,0.0,0.0,0.0,0.0,0.0,0.0,0.0,0.0,0.0,0.0,0.0,0.0,0.0,0.0,0.0,0.0,0.0,0.0,0.0,0.0,0.0,0.0,0.0,0.0,0.0,0.0,0.0,0.0,0.0,0.0,0.0,0.0,0.0,0.0,0.0,0.0,0.0,0.0,0.0,0.0,0.0,0.0,0.0,0.0,0.0,0.0,0.0,0.0,0.0,0.0,0.0,0.0,0.0,0.0,0.0,0.0,0.0,0.0,0.0,0.0,0.0,0.0,0.0,0.0,0.0,1.324,1.4373,1.504,1.4558,1.3602,1.2664,1.182,1.1104,1.0043,0.8484,0.0,0.0,0.0,0.0,0.0,0.0,0.0,0.0,0.0,0.0,0.0,0.0,0.0,0.0,0.0,0.0,0.0,0.0,0.0,0.0,0.0,0.0,0.0,0.0,0.0,0.0,0.0,0.0,0.0,0.0,0.0,0.0,0.0,0.0,0.0,0.0,0.0,0.0,0.0,0.0,0.0,0.0,0.0,0.0,0.0,0.0,0.0,0.0,0.0,0.0,0.0,0.0,0.0,0.0,0.0,0.0,0.0,0.0,0.0,0.0,0.0,0.0,0.0,0.0,0.0,0.0,0.0,0.0,0.0,0.0,0.0,0.0,0.0,0.0,0.0,0.0,0.0,0.0,0.0,0.0,0.0,0.0,0.0,0.0,0.0,0.0,0.0,0.0,0.0,0.0,0.0,0.0,0.0,0.0,0.0,0.0,0.0,0.0,0.0,0.0,0.0,0.0,1.3683,1.5214,1.593,1.4697,1.4588,1.3942,1.2308,1.1816,1.0898,0.9253,0.0,0.0,0.0,0.0,0.0,0.0,0.0,0.0,0.0,0.0,0.0,0.0,0.0,0.0,0.0,0.0,0.0,0.0,0.0,0.0,0.0,0.0,0.0,0.0,0.0,0.0,0.0,0.0,0.0,0.0,0.0,0.0,0.0,0.0,0.0,0.0,0.0,0.0,0.0,0.0,0.0,0.0,0.0,0.0,0.0,0.0,0.0,0.0,0.0,0.0,0.0,0.0,0.0,0.0,0.0,0.0,0.0,0.0,0.0,0.0,2.6135,2.5889,0.0,0.0,0.0,0.0,0.0,0.0,0.0,0.0,0.0,0.0,0.0,0.0,0.0,0.0,0.0,0.0,0.0,0.0,0.0,0.0,0.0,0.0,0.0,0.0,0.0,0.0,0.0,0.0,0.0,0.0,0.0,0.0,0.0,0.0,0.0,0.0,0.0,0.0,0.0,0.0,1.4111,1.5775,1.6557,1.5342,1.5216,1.4772,1.3663,1.2349,1.1229,1.0314,0.8997,0.0,0.0,0.0,0.0,0.0,0.0,0.0,0.0,0.0,0.0,0.0,0.0,0.0,0.0,0.0,0.0,0.0,0.0,0.0,0.0,0.0,0.0,0.0,0.0,0.0,0.0,0.0,0.0,0.0,0.0,0.0,0.0,0.0,0.0,0.0,0.0,0.0,0.0,0.0,0.0,0.0,0.0,0.0,0.0,0.0,0.0,0.0,0.0,0.0,0.0,0.0,0.0,0.0,0.0,0.0,0.0,0.0,0.0,0.0,2.7493,2.7049,0.0,0.0,0.0,0.0,0.0,0.0,0.0,0.0,0.0,0.0,0.0,0.0,0.0,0.0,0.0,0.0,0.0,0.0,0.0,0.0,0.0,0.0,0.0,0.0,0.0,0.0,0.0,0.0,0.0,0.0,0.0,0.0,0.0,0.0,0.0,0.0,0.0,0.0,0.0,0.0,1.4947,1.6253,1.6866,1.5921,1.5565,1.51,1.4321,1.3327,1.2324,1.1335,1.0102,0.0,0.0,0.0,0.0,0.0,0.0,0.0,0.0,0.0,0.0,0.0,0.0,0.0,0.0,0.0,0.0,0.0,0.0,0.0,0.0,0.0,0.0,0.0,0.0,0.0,0.0,0.0,0.0,0.0,0.0,0.0,0.0,0.0,0.0,0.0,0.0,0.0,0.0,0.0,0.0,0.0,0.0,0.0,0.0,0.0,0.0,0.0,0.0,0.0,0.0,0.0,0.0,0.0,2.917,2.9155,2.9188,3.0344,3.0785,3.0553,2.885,2.8382,2.8735,2.7185,0.0,0.0,0.0,0.0,0.0,0.0,0.0,0.0,0.0,0.0,0.0,0.0,0.0,0.0,0.0,0.0,0.0,0.0,0.0,0.0,0.0,0.0,2.0969,2.1526,2.0675,1.9193,1.7081,0.0,0.0,0.0,0.0,0.0,0.0,0.0,0.0,0.0,0.0,0.0,1.6002,1.6901,1.7257,1.6528,1.6026,1.5517,1.4913,1.4324,1.3541,1.2451,1.1461,1.0456,0.0,0.0,0.0,0.0,0.0,0.0,0.0,0.0,0.0,0.0,0.0,0.0,0.0,0.0,0.0,0.0,0.0,0.0,0.0,0.0,0.0,0.0,0.0,0.0,0.0,0.0,0.0,0.0,0.0,0.0,0.0,0.0,2.3798,2.3728,0.0,0.0,0.0,0.0,0.0,0.0,0.0,0.0,0.0,0.0,0.0,0.0,0.0,2.8652,2.9291,3.0543,3.1189,3.1231,3.184,3.2138,3.2155,3.2337,3.2398,3.2337,3.1912,0.0,3.1718,3.0222,0.0,0.0,0.0,0.0,0.0,0.0,0.0,0.0,0.0,0.0,0.0,0.0,0.0,0.0,0.0,0.0,0.0,0.0,0.0,0.0,0.0,0.0,2.2918,2.3012,2.2869,2.2359,2.1009,1.8496,1.6441,1.6227,1.5794,1.5517,0.0,0.0,0.0,0.0,0.0,0.0,1.709,1.8175,1.8467,1.7202,1.7118,1.6916,1.6361,1.4896,1.3978,1.3921,1.2762,1.1747,1.1033,1.0417,0.0,0.0,0.0,0.0,0.0,0.0,0.0,0.0,0.0,0.0,0.0,0.0,0.0,0.0,0.0,0.0,0.0,0.0,0.0,0.0,0.0,0.0,0.0,0.0,0.0,0.0,0.0,0.0,0.0,2.3621,2.4549,2.4422,2.5065,2.5176,0.0,0.0,0.0,0.0,0.0,0.0,0.0,0.0,0.0,2.9826,3.0111,3.0584,3.1239,3.1901,3.2216,3.2216,3.2547,3.2702,3.2718,3.3133,3.3332,3.3342,3.3664,3.3815,3.3644,3.1632,3.0695,3.039,0.0,0.0,0.0,0.0,2.6345,2.5409,2.5475,2.5711,2.579,2.471,0.0,0.0,0.0,0.0,0.0,0.0,0.0,2.3803,2.4457,2.4423,2.4275,2.4626,2.4212,2.3603,2.3086,2.1559,1.9824,1.8177,1.7894,1.7718,1.7055,1.66,0.0,0.0,0.0,1.7616,1.7896,1.8298,1.8387,1.7875,1.7573,1.7168,1.6588,1.5853,1.5117,1.4407,1.3746,1.292,1.1909,1.1345,1.0537,0.0,0.0,0.0,0.0,0.0,0.0,0.0,0.0,0.0,0.0,0.0,0.0,0.0,0.0,0.0,0.0,0.0,0.0,0.0,0.0,0.0,0.0,0.0,0.0,0.0,0.0,0.0,0.0,2.5311,2.587,2.5666,2.6644,2.6815,0.0,0.0,0.0,0.0,0.0,0.0,2.9396,2.9399,3.0172,3.1964,3.2127,3.2431,3.2984,3.3183,3.3365,3.3524,3.3524,3.3624,3.3822,3.4187,3.4352,3.4369,3.4733,3.4899,3.475,3.2747,3.1699,3.1267,3.0543,2.9358,2.8131,2.8473,2.803,2.7337,2.7751,2.8152,2.8303,2.7131,2.6579,2.6204,2.5169,0.0,0.0,0.0,0.0,2.5665,2.617,2.5952,2.5691,2.6006,2.5408,2.4728,2.4571,2.4224,2.3126,2.0385,2.0035,1.9832,1.8794,1.826,0.0,1.8238,1.8266,1.8362,1.8619,1.8565,1.8509,1.8575,1.8066,1.7573,1.7129,1.6765,1.6169,1.5196,1.484,1.4174,1.3095,1.2626,1.1945,1.096,0.0,0.0,0.0,0.0,0.0,0.0,0.0,0.0,0.0,0.0,0.0,0.0,0.0,0.0,0.0,0.0,0.0,0.0,0.0,0.0,0.0,0.0,0.0,0.0,0.0,0.0,0.0,0.0,0.0,2.774,2.9602,0.0,0.0,0.0,0.0,2.8755,2.8748,2.9612,3.1729,3.1704,3.1964,3.2619,3.3348,3.3707,3.3723,3.4435,3.5131,3.5827,3.5827,3.6208,3.687,3.6191,3.5893,3.586,3.5181,3.4899,3.4833,3.4021,3.3657,3.3557,3.2834,3.2464,3.237,3.219,3.2115,3.1968,3.1366,3.1165,3.1084,3.0384,2.9158,2.8088,2.8652,2.768,0.0,0.0,2.7883,2.7565,2.7594,2.7579,2.742,2.6866,2.6707,2.6477,2.5839,2.5684,2.4962,2.2585,2.1645,2.1114,2.0795,0.0,1.9985,1.9813,1.9943,1.988,1.9401,1.9448,1.9486,1.9368,1.8924,1.8647,1.8697,1.7518,1.6803,1.686,1.634,1.5728,1.508,1.4743,1.4125,1.324,1.2339,0.0,0.0,0.0,0.0,0.0,0.0,0.0,0.0,0.0,0.0,0.0,0.0,0.0,0.0,0.0,0.0,0.0,0.0,0.0,0.0,0.0,0.0,0.0,0.0,0.0,0.0,0.0,0.0,2.9973,3.1106,0.0,2.9736,3.026,3.0782,3.0974,3.1795,3.2797,3.3923,3.4326,3.483,3.5512,3.5794,3.5926,3.5926,3.6191,3.6456,3.6721,3.6721,3.6854,3.7102,3.6837,3.6721,3.6688,3.6439,3.6324,3.6307,3.6025,3.5081,3.3756,3.3508,3.2928,3.2243,3.2166,3.1923,3.1582,3.1333,3.1512,3.1741,3.1404,3.0627,2.9853,2.9914,2.9511,2.9083,2.9338,2.9305,2.9134,2.8855,2.8988,2.8889,2.7669,2.7615,2.7635,2.6975,2.6638,2.6155,2.5127,2.3943,2.2919,2.2407,2.2242,2.2014,2.145,2.1153,2.0742,2.0118,1.972,1.9486,1.9512,1.937,1.9135,1.8753,1.8286,1.7825,1.7424,1.6944,1.6397,1.5747,1.5359,1.4715,1.3747,1.3323,1.2876,0.0,0.0,0.0,0.0,0.0,0.0,0.0,0.0,0.0,0.0,0.0,0.0,0.0,0.0,0.0,0.0,0.0,0.0,0.0,0.0,0.0,0.0,0.0,0.0,0.0,3.0554,3.1664,3.1901,3.3254,3.3715,3.2425,3.3241,3.3736,3.3607,3.4415,3.5205,3.5804,3.6182,3.6605,3.7085,3.7102,3.7102,3.7102,3.7102,3.7235,3.7483,3.7483,3.7599,3.7831,3.7582,3.7483,3.7466,3.7218,3.7102,3.7102,3.7102,3.6241,3.4916,3.4916,3.4411,3.372,3.372,3.351,3.3176,3.2909,3.2994,3.316,3.2813,3.2514,3.2247,3.2069,3.1924,3.1727,3.1469,3.1102,3.0647,3.0087,3.0147,3.0004,2.8785,2.8538,2.8479,2.8034,2.752,2.7121,2.6951,2.571,2.4465,2.379,2.3744,2.3509,2.2648,2.2207,2.1659,2.085,2.0182,1.9837,1.9939,1.9961,1.9724,1.9109,1.908,1.8782,1.812,1.7435,1.6866,1.6412,1.5997,1.5417,1.4774,1.4507,1.4102,1.3536,0.0,0.0,0.0,0.0,0.0,0.0,0.0,0.0,0.0,0.0,0.0,0.0,0.0,0.0,0.0,0.0,0.0,0.0,0.0,0.0,0.0,0.0,0.0,3.139,3.3215,3.4286,3.3626,3.6129,3.7043,3.481,3.5966,3.676,3.6562,3.6494,3.6725,3.7303,3.7244,3.7143,3.7143,3.7143,3.7143,3.7143,3.7143,3.7507,3.8219,3.8219,3.8609,3.9282,3.856,3.8219,3.8195,3.7483,3.7168,3.7168,3.7168,3.7168,3.7168,3.7119,3.7102,3.7102,3.7102,3.7102,3.7003,3.629,3.5852,3.5538,3.4816,3.4904,3.527,3.5244,3.4935,3.4515,3.4245,3.3306,3.2185,3.1326,3.1104,3.0921,3.0205,2.954,2.9027,2.9012,2.8424,2.7889,2.7898,2.6782,2.5618,2.4994,2.4868,2.4504,2.335,2.3178,0.0,2.1598,2.1008,2.0674,2.0635,2.0706,2.0518,1.9899,1.9834,1.9595,1.91,1.7929,1.7257,1.7257,1.6732,1.645,1.645,1.5999,1.5517,1.507,0.0,0.0,0.0,0.0,0.0,0.0,0.0,0.0,0.0,0.0,0.0,0.0,0.0,0.0,0.0,0.0,0.0,0.0,0.0,0.0,0.0,3.1241,3.3155,3.3554,3.4573,3.5656,3.6552,3.7415,3.7652,3.7043,3.7347,3.7537,3.7376,3.7776,3.8037,3.8086,3.8472,3.8457,3.7976,3.7976,3.7976,3.7976,3.7976,3.8324,3.9017,3.9017,3.91,3.9299,3.91,3.9017,3.9,3.8785,3.8702,3.8702,3.8702,3.8702,3.8602,3.7516,3.7102,3.7102,3.7102,3.7102,3.7069,3.687,3.6754,3.6654,3.6455,3.6471,3.6534,3.6355,3.6183,3.6036,3.5771,3.507,3.4208,3.3439,3.3085,3.2578,3.1083,3.0451,3.0027,2.9539,2.8445,2.761,2.7839,2.7157,2.6564,2.6655,2.6676,2.6314,2.5232,2.4739,2.4039,2.2801,2.259,2.2194,2.1269,2.1588,2.1613,2.1004,2.0604,2.0346,2.0227,1.9164,1.8509,1.8509,1.7939,1.7628,1.7628,1.7183,1.687,0.0,0.0,0.0,0.0,0.0,0.0,0.0,0.0,0.0,0.0,0.0,0.0,0.0,0.0,0.0,0.0,0.0,0.0,0.0,0.0,0.0,0.0,3.2636,3.4224,3.5453,3.6441,3.7253,3.7893,3.8494,3.8704,3.848,3.8679,3.8514,3.78,3.837,3.854,3.7998,3.8378,3.8395,3.7937,3.7908,3.8069,3.8344,3.8344,3.8663,3.9287,3.9605,3.9762,3.9773,3.9743,3.9763,3.9746,3.9431,3.9299,3.9299,3.9299,3.9299,3.9216,0.0,0.0,0.0,0.0,3.8013,3.798,3.7682,3.7566,3.7516,3.7201,3.7317,3.7514,3.7385,3.7334,3.7265,3.6986,3.6401,3.5636,3.4798,3.4351,3.3836,3.2451,3.1711,3.1117,3.0404,2.9248,2.8283,2.8171,2.7655,0.0,2.7386,2.7273,2.6832,2.5945,2.5549,2.4972,2.3977,2.3725,2.3352,2.2594,2.2836,2.2812,2.2232,2.2113,0.0,0.0,0.0,1.9717,1.9037,1.8431,0.0,0.0,0.0,0.0,0.0,0.0,0.0,0.0,1.6514,1.647,0.0,0.0,0.0,0.0,0.0,0.0,0.0,0.0,0.0,0.0,0.0,0.0,0.0,0.0,0.0,0.0,3.3714,3.4591,3.6506,3.7961,3.864,3.8186,3.9174,3.9696,3.9152,3.9575,3.9305,3.7908,3.8528,3.8548,3.7585,3.7692,0.0,0.0,0.0,3.7786,3.8401,3.8417,3.87,3.933,3.995,4.0328,4.0399,4.0409,4.0393,4.0376,3.9713,3.9381,3.9299,3.9299,3.9299,3.9299,3.9299,3.9299,3.9299,3.9299,3.9299,3.9216,3.8543,0.0,0.0,3.7566,3.7798,3.8328,3.8328,3.8328,3.8275,3.8031,3.7426,3.6643,3.5623,3.512,3.4643,3.387,3.2962,3.2102,3.1365,3.0351,2.9379,2.8651,2.8134,2.7755,2.7437,2.7093,2.6654,2.6006,2.5919,2.5701,2.5067,2.4662,2.4357,2.4215,2.4246,0.0,2.3546,2.3863,2.3636,2.2548,2.1858,2.0814,1.9337,1.8776,1.8752,1.9262,1.9274,1.9514,1.9983,1.9983,2.0006,2.003,1.8538,1.8336,0.0,0.0,0.0,0.0,0.0,0.0,0.0,0.0,0.0,0.0,0.0,0.0,0.0,0.0,0.0,3.1965,3.3329,3.4205,3.4148,3.6144,3.7807,3.8197,3.8476,3.8585,3.849,3.8585,3.8418,3.7835,3.8466,3.864,3.8239,3.8698,3.8748,3.8208,3.8208,3.8269,3.8409,3.8409,3.8713,3.9298,3.9455,0.0,4.0386,4.0404,4.0381,4.0393,4.026,3.9862,3.9299,3.9299,3.9299,3.9299,3.9299,3.9299,3.9299,3.9299,3.9299,3.9282,3.9149,3.91,3.9067,3.8934,3.8984,3.91,3.91,3.91,0.0,3.903,3.849,3.7675,3.6659,3.5779,3.4862,3.3922,3.2962,3.2102,3.1365,3.0351,2.9379,2.8651,2.7959,2.7488,2.7427,2.7325,2.7126,2.6657,2.6617,2.6384,2.5716,2.5991,2.5882,2.4856,2.5189,2.522,2.4625,2.4301,2.3789,2.3086,2.2058,2.1352,2.1029,2.0889,2.0889,2.1001,2.1029,2.1073,2.1172,2.1172,2.1395,2.1774,2.0126,1.9472,0.0,0.0,0.0,0.0,0.0,0.0,0.0,0.0,0.0,0.0,0.0,2.8593,2.9915,0.0,3.1432,3.2774,3.3482,3.3998,3.4395,3.5587,3.6629,3.7278,3.7899,3.8137,3.7735,3.8287,3.8246,3.7312,3.8231,3.8529,3.7938,3.8294,3.8315,3.7931,3.7898,3.8049,3.8398,3.8398,3.872,3.9346,3.9732,4.0094,4.0419,4.0068,3.9909,3.9881,3.9511,3.9144,3.8843,3.9148,3.9299,3.9299,3.9299,3.9299,3.9299,3.9299,3.9299,3.9299,3.9299,3.9299,3.9299,3.9299,3.9299,3.9299,3.9299,3.9299,3.9299,3.9299,3.9023,3.8467,3.723,3.6439,3.5626,3.441,3.354,3.2717,3.1626,3.0725,2.9791,2.8713,2.8042,2.761,2.7412,2.7401,2.7273,2.6858,2.6806,2.6689,2.6355,2.6602,2.6573,2.5934,2.6137,2.6038,2.5409,2.4838,2.4518,2.4559,2.3441,2.2794,2.2794,2.2546,2.2384,2.2349,2.2349,2.2321,2.2309,2.2309,2.2447,2.2681,2.1834,2.1445,0.0,0.0,0.0,0.0,0.0,0.0,0.0,2.6098,2.696,2.8674,2.9165,2.9872,3.1843,3.1781,3.198,3.3724,3.3575,3.3598,3.4751,3.4999,3.5271,3.5909,3.7096,3.7648,3.6981,3.7956,3.8059,3.6811,3.8006,3.8435,3.7633,3.7871,3.7961,3.7793,3.7793,3.8063,3.8586,3.8586,3.8871,3.9424,4.0021,4.0339,4.0481,3.9871,3.9534,3.936,3.8605,3.8306,3.8351,3.9023,3.9299,3.9299,3.9299,3.9299,3.9299,3.9299,3.9299,3.9299,3.9299,3.9299,3.9299,3.9299,3.9299,3.9299,3.9299,3.9299,3.9299,3.9299,3.9299,3.8967,3.7483,3.6898,3.6315,3.4791,3.405,3.3358,3.2029,3.1196,3.0351,2.9081,2.8387,2.7929,2.7675,2.7488,2.7273,2.6858,2.6806,2.6806,2.6806,2.6806,2.6806,2.6806,2.6806,2.6588,2.605,2.5436,2.5305,2.5865,2.4888,2.4273,2.4273,2.3864,2.3609,2.3553,2.3553,2.3506,2.3471,2.3471,2.3471,2.3471,2.3471,2.3335,2.7112,2.5564,2.4798,2.5329,2.5537,2.6285,0.0,2.955,2.9907,3.1012,3.2232,3.305,3.2909,3.2933,3.304,3.3261,3.2858,3.2567,3.2721,3.3161,3.3701,3.4358,3.563,3.6399,3.6321,3.6869,3.7088,3.6727,3.7941,3.8601,3.8307,3.8856,3.92,3.92,3.92,3.9194,3.9305,3.9305,3.9349,3.9388,3.9481,3.9879,4.0512,4.0411,4.0004,3.936,3.8605,3.8306,3.8351,3.9023,3.9299,3.9299,3.9299,3.9299,3.9299,3.9299,3.9299,3.9299,3.9299,3.9299,3.9299,3.9299,3.9299,3.9299,3.9299,3.9299,3.9299,3.9299,3.9299,3.8967,3.7483,3.6898,3.6263,3.4542,3.3924,3.3435,3.2441,3.165,3.0896,3.0164,2.9162,2.8415,2.8367,2.7835,2.7273,2.6858,2.6806,2.6806,2.6806,2.6806,2.6806,2.6806,2.6806,2.6777,2.6678,2.6146,2.5823,2.5893,2.5273,2.4912,2.4912,2.4844,2.4816,2.4799,2.4799,2.4798,2.4781,2.4781,2.4781,2.4781,2.4781,2.4192,2.7203,2.6629,2.6536,2.6334,2.725,2.845,2.9262,2.9786,3.0496,3.1883,3.2409,3.269,3.3047,3.2903,3.2874,3.3236,3.3135,3.3231,3.3943,3.3871,3.4148,3.5125,3.5291,3.5638,3.641,3.7041,3.75,3.7691,3.8572,3.9077,3.899,3.926,3.9388,3.9388,3.9388,3.9388,3.9388,3.9388,3.9388,3.9388,3.9388,3.9553,3.9844,3.947,3.8904,3.8215,3.7918,3.7793,3.7838,3.8451,3.8717,3.8745,3.9148,3.9299,3.9299,3.9299,3.9299,3.9299,3.9299,3.9299,3.9299,3.9299,3.9299,3.9299,3.9299,3.9299,3.9299,3.9299,3.9,3.8411,3.7384,3.6712,3.5967,3.4644,3.4126,3.368,3.2739,3.1838,3.1002,3.033,2.9478,2.8764,2.8535,2.8238,2.7835,2.7248,2.6937,2.6806,2.6806,2.6806,2.6806,2.6806,2.6431,2.6384,2.6777,2.6208,2.6005,2.6392,2.6192,2.6042,2.6042,2.6042,2.5879,2.5536,2.5508,2.5342,2.5007,2.5007,2.5007,2.5007,2.5007,2.4912,2.7162,2.7369,2.7844,2.7453,2.863,2.9818,2.9501,2.9892,3.0662,3.1863,3.1978,3.2072,3.2796,3.2603,3.259,3.3288,3.3385,3.3698,3.4789,3.4439,3.4455,3.5501,3.5041,3.5247,3.6748,3.732,3.7826,3.8382,3.9035,3.9388,3.9388,3.9388,3.9388,3.9388,3.9388,3.9388,3.9388,3.9388,3.9388,3.9388,3.9388,3.9388,3.9394,3.8706,3.8129,3.7659,3.7471,3.739,3.7428,3.7873,3.8137,3.8351,3.8843,3.9148,3.9299,3.9299,3.9299,3.9299,3.9299,3.9299,3.9299,3.9299,3.9299,3.9299,3.9299,3.9299,3.9299,3.9299,3.8934,3.8295,3.735,3.6704,3.5985,3.48,3.4349,3.398,3.3155,3.2274,3.1448,3.0884,3.018,2.9533,2.9044,2.9033,2.8827,2.8117,2.7828,2.7474,2.6875,2.6806,2.6806,2.6806,2.6384,2.6257,2.6762,2.6344,2.6283,2.6777,2.6806,2.6806,2.6806,2.6806,2.6594,2.6165,2.6138,2.5934,2.5495,2.5495,2.5578,2.5744,2.5744,2.6077,2.6962,2.7249,2.7994,2.8756,2.918,2.9602,3.0303,3.0658,3.0888,3.0936,3.1498,3.2046,3.2193,3.2209,3.2484,3.3267,3.3299,3.3444,3.4132,3.394,3.3969,3.4662,3.4596,3.5267,3.7195,3.7404,3.7689,3.8347,3.9035,3.9388,3.9388,3.9388,3.9388,3.9388,3.9388,3.9388,3.9388,3.9388,3.9388,3.9388,3.9388,3.9388,3.9394,3.8706,3.8397,3.8327,3.7689,3.7399,3.7417,3.7398,3.7764,3.8306,3.8306,3.8745,3.9299,3.9299,3.9299,3.9299,3.9299,3.9299,3.9299,3.9299,3.9299,3.9299,3.9299,3.9299,3.9299,3.9299,3.9282,3.8934,3.7483,3.7085,3.6629,3.4915,3.4497,3.4349,3.3806,3.3143,3.2572,3.2279,3.1634,3.0939,3.0259,3.0351,3.0318,2.9633,2.9746,2.9166,2.7071,2.6806,2.6806,2.6806,2.6791,2.6791,2.6806,2.6791,2.6791,2.6806,2.6806,2.6806,2.6806,2.6806,2.6779,2.6779,2.6779,2.6753,2.6753,2.6753,2.7045,2.7612,2.7612,2.7987,2.6911,2.7307,2.7853,2.8599,2.9255,2.9717,2.9865,2.9961,2.9939,2.9653,3.0117,3.0543,3.0367,3.1006,3.1909,3.3084,3.3523,3.4075,3.5061,3.471,3.4601,3.5149,3.5192,3.5744,3.7255,3.7404,3.7868,3.899,3.9254,3.9388,3.9388,3.9388,3.9388,3.9388,3.9388,3.9388,3.9388,3.9388,3.9388,3.9388,3.9388,3.9388,3.9373,3.9185,3.8826,3.8397,3.8155,3.7563,3.6829,3.7216,3.725,3.7101,3.7531,3.8096,3.8645,3.8645,3.8925,3.9299,3.9299,3.9299,3.9299,3.9299,3.9299,3.9299,3.9299,3.9299,3.9299,3.9299,3.8941,3.846,3.7963,3.7102,3.6166,3.5407,3.4857,3.4399,3.405,3.3301,3.2679,3.2579,3.1822,3.1144,3.0907,3.095,3.0839,3.0353,2.952,2.867,2.7965,2.7237,2.6806,2.6806,2.6806,2.6806,2.6806,2.6806,2.6806,2.6806,2.6806,2.6806,2.6806,2.6806,2.6806,2.6806,2.6806,2.6806,2.6806,2.72,2.7492,2.771,2.8173,2.8695,2.7886,2.8184,2.8532,2.9265,2.9456,2.9461,2.9377,2.9196,2.8943,2.8637,2.8745,2.889,2.8972,2.9572,3.0605,3.2221,3.3087,3.3955,3.5177,3.5159,3.5213,3.5774,3.5863,3.6357,3.7629,3.7764,3.8212,3.9298,3.9388,3.9388,3.9388,3.9388,3.9388,3.9388,3.9388,3.9388,3.9388,3.9388,3.9388,3.9388,3.9388,3.9388,3.9388,3.9388,3.917,3.8736,3.8497,3.7928,3.7184,3.7334,3.7296,3.7153,3.7592,3.8127,3.8691,3.894,3.9316,3.9693,3.9681,3.9696,3.9696,3.9696,3.9696,3.9647,3.9381,3.9299,3.9299,3.9299,3.8967,3.8526,3.8278,3.7317,3.6274,3.5861,3.5186,3.457,3.43,3.3695,3.3173,3.3088,3.2469,3.1887,3.1634,3.1586,3.159,3.1555,3.0426,2.9282,2.8513,2.7639,2.7041,2.6835,2.6806,2.6806,2.6806,2.6806,2.6806,2.6806,2.6806,2.6806,2.6806,2.7012,2.7128,2.7128,2.7345,2.7488,2.7488,2.7868,2.8159,2.8391,2.8826,2.9363,2.9626,2.9704,2.9897,3.0541,2.9782,2.8834,2.885,2.8359,2.7919,2.7889,2.7413,2.7187,2.7902,2.8027,2.8733,3.0834,3.2061,3.3201,3.4557,3.5212,3.5789,3.6417,3.6552,3.706,3.8272,3.8422,3.8706,3.9328,3.9337,3.9301,3.9265,3.9265,3.9265,3.9265,3.9265,3.9265,3.9265,3.9316,3.9352,3.9352,3.9388,3.9388,3.9388,3.9388,3.9388,3.9343,3.8721,3.8422,3.8347,3.7719,3.7793,3.8348,3.8348,3.8708,3.933,4.0057,4.0328,4.041,4.0428,4.0464,4.0459,4.0459,4.0459,4.0326,3.958,3.9365,3.9348,3.9315,3.9299,3.9149,3.8444,3.7715,3.6986,3.6241,3.5495,3.4877,3.457,3.43,3.405,3.3771,3.3503,3.3103,3.2465,3.2339,3.2576,3.3198,3.2426,3.0982,2.8801,2.8106,2.7549,2.6953,2.6907,2.6866,2.6837,2.6837,2.6849,2.6806,2.6806,2.682,2.6849,2.7391,2.7724,2.7753,2.8376,2.8709,2.8709,2.8738,2.9029,2.9595,2.9639,2.9987,2.9438,2.9726,2.9857,2.9533,2.8849,2.821,2.8097,2.7585,2.6965,2.6443,2.6617,2.6635,2.594,2.7334,2.9089,3.0585,3.2223,3.377,3.512,3.5836,3.6297,3.6462,3.733,3.8033,3.8362,3.8856,3.923,3.9373,3.8848,3.8211,3.7563,3.7548,3.7548,3.7548,3.7548,3.7548,3.7548,3.8173,3.8516,3.8501,3.9119,3.9388,3.9388,3.9388,3.9388,3.9373,3.923,3.8871,3.8377,3.8212,3.7942,3.7662,3.7662,3.805,3.8659,3.8853,3.9549,4.0483,4.1048,4.1173,4.116,4.116,4.116,4.1011,4.0343,4.0127,4.0011,3.9448,3.9299,3.9265,3.9083,3.8477,3.7748,3.7003,3.6257,3.5537,3.4943,3.4594,3.4325,3.405,3.3633,3.3245,3.3072,3.304,3.3103,3.3277,3.2775,3.1882,3.0512,2.954,2.8775,2.8272,2.8229,2.7998,2.7492,2.7463,2.7287,2.6849,2.6806,2.6997,2.7434,2.7623,2.7927,2.8434,2.8622,2.8709,2.8709,2.9145,2.9436,2.961,3.0103,3.0452,3.0145,3.03,3.0281,2.9613,2.8879,2.8193,2.7514,2.7244,2.6816,2.5643,2.5684,2.569,2.4817,2.6214,2.7947,2.924,3.1482,3.3425,3.4472,3.5154,3.5874,3.6787,3.6939,3.7301,3.8214,3.8289,3.8159,3.782,3.8037,3.8,3.7501,3.7088,3.688,3.688,3.688,3.688,3.688,3.7372,3.763,3.763,3.8486,3.8885,3.8885,3.9228,3.9388,3.9388,3.9388,3.92,3.8841,3.8841,3.8631,3.8287,3.8287,3.8531,3.888,3.9204,3.9804,4.0563,4.1262,4.168,4.1924,4.1873,4.1877,4.1728,4.1044,4.0829,4.068,3.9995,3.9779,3.9713,3.9381,3.8742,3.8112,3.7698,3.7036,3.629,3.5545,3.5169,3.4774,3.4064,3.4028,3.3947,3.3409,3.3398,3.3424,3.3335,3.3065,3.2613,3.182,3.0594,2.9589,2.9059,2.8821,2.8419,2.7753,2.7695,2.755,2.7229,2.6939,2.72,2.8115,2.8144,2.8448,2.9073,2.9363,2.9537,2.9537,2.9871,3.0045,3.0045,3.0438,3.0598,3.089,3.0797,3.0616,2.9865,2.9034,2.8072,2.6847,2.6788,2.6569,2.497,2.4655,2.4504,2.401,2.4952,2.6199,2.753,3.0204,3.2421,3.3238,3.3817,3.4908,3.6847,3.6007,3.5971,3.7846,3.7333,3.6621,3.5896,3.7092,3.781,3.7682,3.6986,3.6582,3.6582,3.6582,3.6582,3.6582,3.6685,3.6724,3.6763,3.7706,3.8202,3.824,3.9031,3.9388,3.9388,3.9388,3.9388,3.9388,3.9388,3.9388,3.9388,3.9388,3.9388,3.9481,4.0111,4.0409,4.0581,4.1176,4.1917,4.2582,4.2525,4.2563,4.2506,4.1761,4.1558,4.1392,4.0641,4.0409,4.0243,3.9497,3.8825,3.8328,3.8228,3.7715,3.7052,3.6307,3.5918,3.5368,3.4301,3.4633,3.4742,3.3715,3.3618,3.3581,3.3372,3.3335,3.316,3.2738,3.142,3.0306,2.9796,2.9266,2.8709,2.811,2.7897,2.7797,2.771,2.7215,2.7432,2.8665,2.8796,2.9102,2.9711,3.0292,3.0598,3.0598,3.0598,3.0598,3.0598,3.0598,3.0598,2.9667,2.9749,2.9508,2.8368,2.7199,2.6133,2.546,2.4562,2.3796,2.3486,2.3419,2.3215,2.2573,2.3939,2.5544,2.6791,2.8779,3.0765,3.2355,3.3107,3.3974,3.5344,3.5769,3.625,3.707,3.7011,3.6841,3.6685,3.636,3.583,3.5114,3.4909,3.4827,3.4827,3.4827,3.4827,3.4827,3.5534,3.5896,3.5936,3.7491,3.8202,3.824,3.9031,3.9388,3.9388,3.9388,3.9388,3.9388,3.9388,3.9388,3.9388,3.9388,3.9388,3.9424,3.9553,3.9985,4.0512,4.0634,4.1525,4.26,4.2611,4.2947,4.3267,4.2522,4.2307,4.2054,4.0746,4.0409,4.0243,3.9497,3.9216,3.8967,3.8344,3.8086,3.7814,3.7069,3.6488,3.6111,3.616,3.524,3.4526,3.4826,3.4042,3.3424,3.3591,3.345,3.3266,3.3187,3.229,3.1583,3.1462,3.0748,3.0148,2.9873,2.905,2.8289,2.7739,2.7594,2.7897,2.868,2.9189,2.9755,3.0423,3.0539,3.0598,3.0598,3.0598,3.0598,3.0598,3.0598,3.0598,2.9116,2.8846,2.8398,2.7454,2.6567,2.5652,2.4683,2.4019,2.335,2.2405,2.2481,2.2531,2.1912,2.3324,2.4871,2.5772,2.8038,3.0094,3.126,3.1859,3.2937,3.4876,3.4647,3.4821,3.6144,3.5883,3.5602,3.5602,3.5223,3.5032,3.5073,3.4634,3.4397,3.4397,3.4397,3.4397,3.4397,3.4799,3.5032,3.5032,3.6294,3.7116,3.7539,3.8375,3.8995,3.9388,3.9388,3.9388,3.9388,3.9388,3.9388,3.9388,3.9388,3.9388,3.9388,3.9388,3.961,3.9915,3.9915,4.0839,4.2029,4.2029,4.2741,4.3532,4.3168,4.3069,4.2837,4.1789,4.121,4.0763,4.0061,3.9597,3.9216,3.8858,3.8477,3.8086,3.7765,3.7458,3.7144,3.6783,3.6509,3.6044,3.5158,3.4713,3.4282,3.3576,3.3503,3.345,3.3335,3.2699,3.2256,3.2256,3.1665,3.1009,3.0355,2.9522,2.8829,2.8273,2.7884,2.813,2.9131,2.9436,2.9929,3.0598,3.0598,3.0598,3.0598,3.0598,3.0598,3.0598,3.0598,3.0598,2.8271,2.7811,2.7324,2.6604,2.5897,2.5091,2.3903,2.3509,2.2962,2.154,2.1666,2.1889,2.1432,2.2684,2.4001,2.4596,2.7033,2.915,2.9919,3.046,3.1734,3.4264,3.3482,3.341,3.5238,3.4799,3.4397,3.4397,3.4397,3.4716,3.5386,3.4758,3.4397,3.4397,3.4397,3.4397,3.4397,3.4397,3.4481,3.4675,3.5548,3.6281,3.6933,3.7971,3.8701,3.9156,3.9352,3.9388,3.9388,3.9388,3.9388,3.9388,3.9388,3.9388,3.9388,3.9388,3.9388,3.9388,3.9388,4.0305,4.1492,4.1492,4.2443,4.3598,4.3598,4.3598,4.3449,4.2704,4.196,4.1259,4.0591,3.9862,3.9299,3.9299,3.8858,3.8444,3.8444,3.8391,3.813,3.7396,3.7548,3.7246,3.558,3.523,3.4799,3.3634,3.3555,3.3555,3.3335,3.2985,3.2738,3.2738,3.2244,3.1522,3.0537,2.9799,2.921,2.8737,2.8216,2.8406,2.9552,2.9726,3.006,3.0598,3.0598,3.0598,3.0598,3.0598,3.0598,3.0598,3.0598,3.0598,2.6141,2.6306,2.6302,2.5375,2.4287,2.33,2.2694,2.1746,2.098,2.08,2.0813,2.0828,2.0777,2.1773,2.2744,2.3282,2.4942,2.6722,2.8375,2.9109,3.0322,3.2646,3.2804,3.3183,3.4404,3.4439,3.4397,3.4397,3.4397,3.4439,3.4522,3.4439,3.4397,3.4397,3.4397,3.4397,3.4397,3.4397,3.4799,3.5588,3.6385,3.6841,3.6958,3.8546,3.8922,3.8352,3.9068,3.9388,3.9388,3.9388,3.9388,3.9388,3.9388,3.9388,3.9388,3.9388,3.9388,3.9388,3.9388,4.0305,4.1492,4.1492,4.2443,4.3598,4.3598,4.3598,4.3449,4.2704,4.196,4.1259,4.0591,3.9862,3.9299,3.9299,3.9249,3.9199,3.9199,3.8968,3.8799,3.9036,3.7619,3.6482,3.6841,3.5226,3.3902,3.4016,3.3617,3.3335,3.3309,3.3266,3.324,3.324,3.2437,3.1635,3.0995,2.9978,2.921,2.8737,2.8651,2.8898,2.9566,3.0176,3.0539,3.0598,3.0598,3.0598,3.0598,3.0598,3.0598,3.0598,3.0598,3.0598,2.4243,2.3785,2.3183,2.3629,2.2607,2.1553,2.1748,2.1237,2.0699,2.0699,2.0699,2.0699,2.0699,2.1616,2.2479,2.2675,2.4164,2.5667,2.67,2.7641,2.8961,3.0921,3.1457,3.211,3.326,3.3705,3.3914,3.3914,3.3914,3.3914,3.3914,3.4214,3.4397,3.4397,3.4397,3.4397,3.4397,3.4397,3.484,3.5709,3.6002,3.6713,3.7706,3.8375,3.8775,3.8922,3.9265,3.9388,3.9388,3.9388,3.9388,3.9388,3.9388,3.9388,3.9388,3.9388,3.9388,3.9388,3.9388,4.0305,4.1492,4.1492,4.2443,4.3598,4.3598,4.3598,4.3532,4.3234,4.2307,4.1359,4.1077,4.0177,3.9299,3.9299,3.9299,3.9183,3.8725,3.852,3.8362,3.8037,3.7303,3.6631,3.6255,3.5444,3.4628,3.3963,3.3684,3.3477,3.3335,3.3309,3.3309,3.3309,3.2958,3.2381,3.1432,3.0608,2.9815,2.9112,2.9057,2.9211,2.9595,3.0234,3.0598,3.0598,3.0598,3.0598,3.0598,3.0598,3.0801,3.1134,3.1134,3.1366,2.2546,2.2032,2.1452,2.2134,2.1288,2.037,2.0714,2.0556,2.0309,2.0309,2.0498,2.0637,2.0637,2.1616,2.2387,2.2401,2.3854,2.5254,2.5968,2.6876,2.8142,2.9892,3.049,3.1182,3.2333,3.2973,3.3404,3.3587,3.343,3.3404,3.3587,3.3953,3.4241,3.4384,3.4397,3.4397,3.4397,3.4397,3.484,3.5709,3.5936,3.6674,3.7834,3.8337,3.8738,3.9083,3.9301,3.9388,3.9388,3.9388,3.9388,3.9388,3.9388,3.9388,3.9388,3.9388,3.9388,3.9388,3.9388,4.0305,4.1492,4.1492,4.2443,4.3598,4.3598,4.3598,4.3598,4.3598,4.2522,4.1281,4.0895,4.0034,3.9299,3.9299,3.9299,3.91,3.8361,3.8186,3.7996,3.7251,3.6936,3.6547,3.5827,3.5414,3.4836,3.3954,3.3745,3.3617,3.345,3.3424,3.3424,3.3424,3.3361,3.2867,3.1714,3.1202,3.0595,2.9861,2.9669,2.9743,3.0075,3.0425,3.0598,3.0598,3.0786,3.0858,3.0858,3.1061,3.138,3.1785,3.1785,3.2031,2.1005,2.1549,2.1981,2.1129,2.0458,1.9888,1.9518,1.9416,1.9397,1.9397,1.9991,2.0486,2.0486,2.1538,2.2401,2.24,2.388,2.5398,2.6536,2.7157,2.8142,2.9892,3.0113,3.0557,3.1706,3.2372,3.2947,3.3548,3.3038,3.296,3.3561,3.36,3.3849,3.4384,3.4397,3.4397,3.4397,3.4397,3.484,3.5709,3.6503,3.688,3.6958,3.862,3.8958,3.824,3.9031,3.9388,3.9388,3.9388,3.9388,3.9388,3.9388,3.9388,3.9388,3.9388,3.9388,3.9388,3.9388,4.0305,4.1492,4.1492,4.2443,4.3598,4.3598,4.3598,4.3598,4.3598,4.2522,4.1094,3.9696,3.9315,3.9299,3.9299,3.9299,3.91,3.8361,3.8186,3.7996,3.7251,3.6506,3.6009,3.6009,3.4939,3.4101,3.4101,3.3873,3.3694,3.371,3.371,3.371,3.371,3.345,3.2867,3.1809,3.1694,3.1477,3.1016,3.0533,3.0593,3.1233,3.0836,3.0598,3.0598,3.1192,3.148,3.148,3.2147,3.2466,3.2481,3.2481,3.2481,1.9212,1.9044,1.879,1.9437,1.8894,1.8301,1.8635,1.8752,1.8792,1.8792,1.9587,2.031,2.0404,2.1677,2.2868,2.3483,2.4259,2.5088,2.595,2.6889,2.7842,2.8817,2.9993,3.1013,3.1732,3.1653,3.1771,3.2306,3.2176,3.2163,3.2346,3.2764,3.3247,3.3822,3.4201,3.4397,3.4397,3.4397,3.484,3.5709,3.6503,3.7204,3.7834,3.8922,3.9265,3.9031,3.9301,3.9388,3.9388,3.9388,3.9388,3.9388,3.9388,3.9388,3.9388,3.9388,3.9388,3.9481,3.9985,4.0737,4.1591,4.2094,4.2865,4.3598,4.3598,4.3598,4.3383,4.2373,4.1744,4.1077,3.968,3.9299,3.9299,3.9299,3.9299,3.8967,3.7731,3.7466,3.7085,3.5843,3.5413,3.5247,3.5247,3.4758,3.4374,3.4374,3.4151,3.3899,3.372,3.3694,3.3633,3.345,3.3346,3.2972,3.2175,3.2112,3.1914,3.1451,3.1263,3.1225,3.1292,3.1161,3.1131,3.1206,3.1409,3.1743,3.2176,3.2394,3.2745,3.318,3.3616,3.3819,1.7726,1.7669,1.7416,1.8072,1.7741,1.7302,1.7575,1.7824,1.8057,1.8251,1.9054,1.9903,2.0413,2.1528,2.2683,2.3547,2.4079,2.4697,2.5582,2.6297,2.7116,2.8165,2.9696,3.0803,3.1132,3.1065,3.1222,3.1758,3.1602,3.1575,3.1797,3.2137,3.2542,3.2921,3.3692,3.4188,3.4397,3.4716,3.5155,3.5709,3.683,3.7668,3.824,3.9031,3.9388,3.9388,3.9388,3.9388,0.0,3.9388,3.9388,3.9388,3.9388,3.9388,3.9388,3.9388,3.9589,3.9879,4.0355,4.1142,4.1981,4.2443,4.3035,4.3598,4.3598,4.34,4.2936,4.1756,4.1226,4.0763,3.9613,3.9299,3.9299,3.9299,3.91,3.856,3.7367,3.6887,3.634,3.5131,3.4899,3.4899,3.4899,3.4667,3.4497,3.4497,3.4275,3.405,3.3873,3.3745,3.3633,3.3477,3.3346,3.3119,3.2718,3.2687,3.2541,3.2253,3.2078,3.1924,3.1794,3.1879,3.1886,3.1757,3.2271,3.263,3.2875,3.3122,3.3441,3.3833,3.4225,3.4414,0.0,1.7245,1.7502,1.7068,1.6965,1.6862,1.6477,1.6797,0.0,1.7749,1.8435,1.933,2.0416,2.1236,2.2026,2.2901,2.359,2.4352,2.5381,2.5671,2.6343,2.7959,2.934,3.014,3.01,3.066,3.1209,3.1706,3.1287,3.1222,3.1719,3.1745,3.1758,3.1797,3.2974,3.3865,3.4415,3.5318,3.579,3.5776,3.7453,3.8202,3.824,3.9031,3.9388,3.9388,3.9388,3.9388,3.9388,3.9388,3.9388,3.9388,3.9388,3.9388,3.9388,3.9388,3.9879,4.0512,4.0547,4.1459,4.2617,4.2648,4.3096,4.3598,4.3598,4.3069,4.234,4.1624,4.0912,4.0243,3.9497,3.9299,3.9299,3.9299,3.8775,3.8079,3.7284,3.6572,3.5843,3.5048,3.4899,3.4899,3.4899,3.4667,3.4497,3.4497,3.4275,3.4101,3.4075,3.3848,3.3694,3.3668,3.345,3.3309,3.3309,3.3309,3.3309,3.3309,3.2935,3.2718,3.2679,3.2936,3.2839,3.2361,3.3561,3.3989,3.3576,3.4124,3.4414,3.4414,3.4414,3.4414,1.5537,0.0,1.6674,1.656,1.6539,1.6508,0.0,1.6506,1.6717,1.7139,1.8021,1.9011,1.9787,2.1075,2.2311,2.3232,2.4291,2.5216,2.5936,2.7278,2.8339,2.8753,2.9962,3.062,3.014,3.066,3.1039,3.1169,3.1065,3.1052,3.1182,3.1196,3.1392,3.1784,3.3101,3.4107,3.4713,3.5967,3.6621,3.6621,3.7668,3.8202,3.824,3.9031,3.9388,3.9388,3.9388,3.9388,3.9388,3.9388,3.9388,3.9388,3.9388,3.9388,3.9388,3.9388,3.9879,4.0581,4.1109,4.1852,4.2679,4.3204,4.3462,4.3598,4.3598,4.3069,4.234,4.1624,4.0912,4.0243,3.9497,3.9299,3.9299,3.9299,3.9183,3.8676,3.7384,3.697,3.6456,3.5148,3.4899,3.4899,3.4899,3.4667,3.4497,3.4497,3.4275,3.4025,3.3822,3.3745,3.3633,3.344,3.3319,3.3309,3.3309,3.3309,3.3309,3.3309,3.3686,3.3752,3.3435,3.3611,3.3698,3.3728,3.4123,3.4282,3.4196,3.4341,3.4414,3.4414,3.4414,3.4414,1.4844,1.5623,1.6413,1.6413,1.6413,1.6413,1.6413,1.6413,1.6508,1.6924,1.766,1.8513,1.9412,2.0908,2.2305,2.322,2.4387,2.5371,2.6043,2.7499,2.8608,2.896,2.9936,3.0581,3.0529,3.0803,3.0986,3.0986,3.0986,3.0986,3.0986,3.0986,3.113,3.1431,3.3051,3.4188,3.4774,3.6613,3.7501,3.7501,3.8337,3.8738,3.8775,3.9192,3.9388,3.9388,3.9388,3.9388,3.9388,3.9388,3.9388,3.9388,3.9388,3.9388,3.9445,3.9788,4.0339,4.1075,4.1754,4.2475,4.3113,4.3462,4.3598,4.3598,4.3598,4.2837,4.1893,4.1496,4.0663,3.9812,3.9398,3.9299,3.9299,3.9299,3.905,3.8576,3.7781,3.735,3.687,3.6059,3.553,3.5325,3.5613,3.5176,3.4903,3.5228,3.4771,3.433,3.419,3.3772,3.3562,3.3746,3.3751,3.3893,3.4225,3.4257,3.4115,3.3783,3.4099,3.4337,3.4476,3.4654,3.4713,3.4666,3.4493,3.4414,3.4414,3.4414,3.4414,3.4414,3.4414,3.4414,1.4453,1.538,1.6279,1.6386,1.6454,1.6496,1.6394,1.6464,1.6612,1.7027,1.7482,1.8135,1.9242,2.0791,2.2164,2.2971,2.4211,2.5375,2.6207,2.7272,2.8222,2.8876,2.9704,3.0388,3.0817,3.0934,3.0986,3.0986,3.0986,3.0986,3.0986,3.0986,3.1026,3.1117,3.3068,3.438,3.5008,3.7139,3.8277,3.8389,3.9068,3.9388,3.9388,3.9388,3.9388,3.9388,3.9388,3.9388,3.9388,3.9388,3.9388,3.9388,3.9388,3.9445,3.9646,4.0285,4.1008,4.1754,4.2506,4.3113,4.3598,4.3598,4.3598,4.3598,4.3598,4.2609,4.1472,4.1413,4.0382,3.9299,3.9299,3.9299,3.9299,3.9299,3.8808,3.8318,3.815,3.7621,3.7158,3.6992,3.6286,3.5862,3.645,3.5798,3.5421,3.6034,3.5375,3.4803,3.4803,3.4106,3.383,3.4399,3.4462,3.4715,3.5331,3.5394,3.5173,3.4652,3.462,3.4908,3.5565,3.5694,3.5553,3.5219,3.4668,3.4414,3.4414,3.4414,3.4414,3.4414,3.4414,3.4414,1.4567,1.5243,1.5773,1.627,1.6663,1.681,1.6496,1.6663,1.7037,1.7502,1.7978,1.8601,1.9554,2.0919,2.2072,2.2622,2.428,2.5938,2.7183,2.7926,2.8431,2.8713,2.9848,3.0525,3.027,3.0699,3.0986,3.0986,3.0986,3.0986,3.0986,3.0986,3.1209,3.1654,3.3851,3.5288,3.5895,3.7419,3.8538,3.9228,3.9337,3.9388,3.9388,3.9388,3.9388,3.9388,3.9388,3.9388,3.9388,3.9388,3.9388,3.9388,3.9388,3.9788,4.0339,4.0443,4.1343,4.2522,4.3204,4.3492,4.3598,4.3598,4.3598,4.3598,4.3598,4.2809,4.1838,4.1505,4.0382,3.9299,3.9299,3.9299,3.9299,3.9299,3.9216,3.8871,3.7962,3.7679,3.7353,3.6511,3.6194,3.6135,3.6232,3.5954,3.5732,3.5844,3.5534,3.5276,3.5276,3.5169,3.511,3.5205,3.5221,3.5268,3.5379,3.5394,3.5584,3.6045,3.6061,3.6203,3.6504,3.6106,3.5663,3.5201,3.4668,3.4414,3.4414,3.4414,3.4414,3.4414,3.4414,3.4414,1.4417,1.5442,1.635,1.6961,1.7276,1.743,1.7472,1.7616,1.7823,1.804,1.8247,1.8621,1.9295,2.1284,2.3419,2.5263,2.6346,2.7213,2.7934,2.8248,2.8588,2.9076,2.9748,3.0282,3.0409,3.0755,3.0986,3.0986,3.0986,3.0949,3.0849,3.1334,3.1833,3.2306,3.4042,3.5488,3.6573,3.7442,3.8389,3.9388,3.9388,3.9388,3.9388,3.9388,3.9388,3.9388,3.9301,3.9228,3.9228,3.9104,3.9068,3.9068,3.9068,3.958,4.0443,4.1294,4.2158,4.2943,4.3432,4.3342,4.3099,4.3265,4.3204,4.3066,4.3066,4.2437,4.168,4.1504,4.0582,3.9567,3.9361,3.9164,3.9067,3.9272,3.9056,3.8712,3.8379,3.8177,3.7958,3.7469,3.6959,3.6688,3.7058,3.6566,3.6273,3.6654,3.627,3.5947,3.5947,3.5616,3.5537,3.5916,3.5947,3.6105,3.6485,3.6545,3.65,3.6408,3.6785,3.679,3.6305,3.6008,3.5657,3.5201,3.4668,3.4534,3.482,3.4534,3.4414,3.4414,3.4414,3.4414,1.4369,1.5439,1.6529,1.7604,1.7898,1.8055,1.8459,1.8569,1.8611,1.8714,1.8785,1.9027,1.9616,2.2092,2.4897,2.7538,2.8094,2.8257,2.8481,2.8616,2.8929,2.9626,2.9864,3.0156,3.0735,3.0874,3.0949,3.0986,3.0986,3.0911,3.0773,3.1566,3.2175,3.2468,3.413,3.554,3.6633,3.7465,3.8337,3.9265,3.9265,3.9265,3.9265,3.9265,3.9265,3.9265,3.9104,3.9017,3.9017,3.887,3.8782,3.8782,3.8782,3.9421,4.0497,4.1884,4.2648,4.3005,4.3265,4.3021,4.2649,4.2881,4.282,4.2617,4.2617,4.2151,4.1605,4.1536,4.0832,4.0042,3.9479,3.9122,3.8962,3.9062,3.8727,3.842,3.8556,3.8432,3.8262,3.8193,3.7559,3.7208,3.7719,3.7181,3.6864,3.7401,3.7022,3.6674,3.6674,3.6216,3.609,3.6611,3.6674,3.6896,3.7462,3.751,3.7243,3.6677,3.718,3.7119,3.6305,3.6149,3.5928,3.5559,3.492,3.4787,3.5201,3.4668,3.4414,3.4414,3.4414,3.4486,1.4612,1.4921,1.5322,1.7769,1.8349,1.8472,1.893,1.9056,1.9181,1.9606,1.9996,2.0523,2.1348,2.3607,2.5868,2.7397,2.8058,2.8492,2.8837,2.9174,2.9639,3.0278,3.0342,3.0507,3.0949,3.0811,3.0811,3.0986,3.0986,3.0986,3.0986,3.1519,3.1734,3.1591,3.4279,3.5702,3.5628,3.7653,3.8745,3.8819,3.8819,3.8819,3.8819,3.8819,3.8819,3.8819,3.8819,3.8819,3.8819,3.8819,3.8782,3.8782,3.8782,3.957,4.0758,4.1542,4.219,4.2648,4.2648,4.2648,4.2617,4.2617,4.2617,4.2617,4.2617,4.2349,4.1997,4.162,4.1222,4.0666,3.9658,3.936,3.9214,3.861,3.842,3.8335,3.803,3.7943,3.7873,3.7612,3.7492,3.7476,3.7524,3.7462,3.7447,3.7494,3.7462,3.7431,3.7431,3.7399,3.7383,3.7431,3.7431,3.7447,3.751,3.751,3.7494,3.7431,3.7478,3.748,3.7375,3.6907,3.6631,3.6585,3.5623,3.5169,3.5201,3.4668,3.4414,3.4414,3.4414,3.4733,1.4351,1.5223,1.6206,1.7966,1.8849,1.9461,2.0172,2.0338,2.0472,2.0938,2.1166,2.176,2.3439,2.5298,2.7017,2.8222,2.9097,2.9617,2.9478,2.9694,2.9948,3.0203,3.033,3.0444,3.0596,3.0798,3.0874,3.0811,3.1357,3.164,3.1492,3.2605,3.3331,3.3532,3.5332,3.6461,3.6788,3.7868,3.8427,3.8427,3.8671,3.8782,3.8782,3.8782,3.8782,3.8782,3.8649,3.8612,3.8612,3.8501,3.8427,3.8523,3.9427,4.0085,4.0656,4.1852,4.2301,4.2317,4.2522,4.2333,4.2029,4.2222,4.2158,4.1997,4.1997,4.19,4.1754,4.1581,4.1485,4.1056,3.975,3.9237,3.8972,3.8497,3.8107,3.7847,3.7886,3.7756,3.7612,3.751,3.751,3.751,3.751,3.751,3.751,3.751,3.751,3.751,3.751,3.751,3.751,3.751,3.7195,3.6861,3.6538,3.6507,3.6507,3.6507,3.7119,3.718,3.6538,3.6646,3.6399,3.5784,3.5397,3.5395,3.5763,3.4825,3.482,3.5575,3.5183,3.5343,1.4026,1.5264,1.6576,1.7931,1.8931,1.9886,2.1052,2.1217,2.129,2.1901,2.2347,2.3222,2.5094,2.6566,2.7753,2.8586,2.9618,3.0228,2.9934,3.0075,3.019,3.019,3.033,3.0406,3.0406,3.0723,3.0849,3.0698,3.1283,3.1589,3.1455,3.2804,3.3599,3.3653,3.5518,3.6626,3.683,3.7744,3.8202,3.8202,3.8486,3.8598,3.8598,3.8598,3.8598,3.8598,3.8478,3.8404,3.8404,3.824,3.8202,3.83,3.932,3.9839,4.012,4.1295,4.1738,4.1753,4.2158,4.1997,4.1621,4.1883,4.1785,4.1588,4.1588,4.1588,4.1541,4.1336,4.1272,4.0943,3.9498,3.9102,3.8982,3.8547,3.7948,3.7553,3.7727,3.7626,3.751,3.751,3.751,3.751,3.751,3.751,3.751,3.751,3.751,3.7589,3.778,3.7636,3.745,3.7255,3.6907,3.6476,3.5944,3.5913,3.5913,3.5913,3.66,3.6662,3.5944,3.6243,3.6117,3.5415,3.5267,3.541,3.5789,3.5078,3.5154,3.5996,3.5813,3.6011,1.3792,1.4838,1.6076,1.762,1.8563,1.9596,2.1393,2.1445,2.1383,2.2315,2.3608,2.4896,2.6166,2.7197,2.7956,2.8337,2.9352,3.0113,3.0113,3.0254,3.0406,3.0394,3.0406,3.0406,3.0406,3.0609,3.0736,3.0736,3.0736,3.0736,3.0736,3.1813,3.2042,3.1257,3.4508,3.5964,3.5221,3.7215,3.8188,3.8202,3.8202,3.8202,3.8202,3.8202,3.8202,3.8202,3.8202,3.8202,3.8202,3.8202,3.8202,3.8202,3.8202,3.8575,3.9177,3.9692,4.027,4.0901,4.1423,4.1588,4.1588,4.1588,4.1588,4.1588,4.1588,4.1588,4.1446,4.0783,4.0609,4.0277,3.8886,3.9013,3.9329,3.8665,3.7986,3.751,3.751,3.751,3.751,3.751,3.751,3.751,3.751,3.751,3.751,3.751,3.751,3.7733,3.8412,3.7907,3.7285,3.6754,3.6693,3.6492,3.5913,3.5881,3.5881,3.5881,3.5881,3.5881,3.5881,3.5913,3.5881,3.5881,3.5415,3.5201,3.5216,3.5346,3.5407,3.5436,3.6025,3.6678,1.3792,1.5097,1.6529,1.7697,1.9026,2.0338,2.1528,2.1694,2.2171,2.4205,2.4965,2.5716,2.7193,2.8176,2.8818,2.8946,2.9706,3.0113,2.9555,2.9998,3.0404,3.0385,3.0871,3.1418,3.1969,3.2055,3.2092,3.2092,3.2569,3.2875,3.2875,3.3618,3.3908,3.3687,3.4955,3.578,3.5964,3.7033,3.7781,3.8202,3.8202,3.8202,3.8202,3.8202,3.8202,3.8202,3.8202,3.8202,3.8202,3.8202,3.8202,3.824,3.8649,3.8958,3.9213,4.0181,4.0646,4.0901,4.1423,4.1588,4.1588,4.1588,4.1588,4.1588,4.1588,4.1588,4.1446,4.0783,4.0609,4.0388,3.9455,3.9013,3.8634,3.7954,3.7622,3.751,3.751,3.751,3.751,3.751,3.751,3.751,3.751,3.751,3.751,3.751,3.751,3.7424,3.7249,3.7467,3.7126,3.5797,3.5655,3.5429,3.4887,3.4854,3.4854,3.4854,3.4854,3.5004,3.5382,3.5721,3.5576,3.4854,3.507,3.5241,3.5341,3.5374,3.5872,3.6736,3.6925,3.7346,1.4437,1.5813,1.7192,1.8479,1.9883,2.1166,2.1911,2.251,2.3548,2.5829,2.6274,2.6705,2.8172,2.885,2.9175,2.91,2.9694,2.9948,2.9289,2.9542,2.9819,2.9891,3.0592,3.1299,3.1928,3.2439,3.2668,3.2596,3.2995,3.3241,3.3241,3.3776,3.4113,3.4113,3.4955,3.5697,3.6301,3.6707,3.723,3.7839,3.7839,3.7839,3.7854,3.8086,3.8202,3.8202,3.8202,3.8202,3.8202,3.8202,3.8202,3.824,3.8612,3.8723,3.887,4.0041,4.0459,4.0562,4.1307,4.1588,4.1588,4.1588,4.1588,4.1588,4.1588,4.1399,4.1051,4.0356,4.0166,3.9945,3.895,3.8602,3.8412,3.7986,3.7686,3.751,3.751,3.751,3.751,3.751,3.751,3.751,3.751,3.751,3.7421,3.7225,3.7451,3.7344,3.6476,3.7198,3.7107,3.5389,3.5201,3.4971,3.4448,3.4414,3.4414,3.4414,3.4414,3.4534,3.4887,3.5169,3.5004,3.4414,3.4735,3.4926,3.498,3.5488,3.6141,3.6925,3.7433,3.7854,1.5444,1.6661,1.7857,1.9584,2.0949,2.2042,2.2658,2.3781,2.5206,2.7007,2.7442,2.7866,2.9112,2.9326,2.9214,2.9076,2.9478,2.9681,2.93,2.9112,2.9162,2.9383,3.0105,3.0755,3.1201,3.2232,3.281,3.2632,3.2596,3.2596,3.2596,3.303,3.3297,3.3297,3.4591,3.561,3.6214,3.6228,3.6562,3.7215,3.72,3.7229,3.7331,3.7926,3.8202,3.8202,3.8202,3.8202,3.8202,3.8202,3.8202,3.8202,3.8202,3.8202,3.8337,3.9442,3.9834,4.001,4.114,4.1522,4.1522,4.1588,4.1588,4.1588,4.1588,4.113,4.0451,3.9645,3.9471,3.9187,3.7798,3.7956,3.8461,3.8428,3.7938,3.751,3.751,3.751,3.751,3.751,3.751,3.748,3.745,3.7421,3.7255,3.6708,3.7359,3.7412,3.6075,3.7061,3.7164,3.5391,3.5166,3.492,3.4448,3.4414,3.4414,3.4414,3.4414,3.4414,3.4414,3.4414,3.4414,3.4414,3.4414,3.4414,3.4414,3.5691,3.6301,3.6344,3.7607,3.8202,1.5444,1.65,1.7565,1.9516,2.1191,2.2817,2.4686,2.5163,2.5489,2.6447,2.7746,2.9045,3.0163,3.0126,2.9923,3.0075,3.0037,2.9871,2.9415,2.9869,3.0432,3.0959,3.1673,3.2581,3.3754,3.3977,3.4094,3.4196,3.4059,3.3991,3.3991,3.4079,3.4147,3.4147,3.4428,3.4922,3.5595,3.5595,3.5894,3.6497,3.6373,3.663,3.7331,3.7926,3.8202,3.8202,3.8202,3.8202,3.8202,3.8202,3.8202,3.8202,3.8202,3.8202,3.8277,3.9017,3.9271,3.9451,4.0578,4.0953,4.1021,4.1456,4.1588,4.1588,4.1588,4.113,4.0354,3.9246,3.9235,3.9093,3.7327,3.7667,3.8381,3.7828,3.7605,3.751,3.751,3.751,3.751,3.751,3.751,3.7361,3.6938,3.6877,3.6677,3.6149,3.7116,3.7446,3.6216,3.6809,3.6847,3.5502,3.4874,3.4534,3.4414,3.4414,3.4414,3.4414,3.4414,3.4414,3.4414,3.4414,3.4414,3.4414,3.4414,3.4414,3.4414,3.5691,3.6301,3.6344,3.7607,3.8202,1.5657,1.6857,1.8206,2.0883,2.2184,2.3198,2.4684,2.5729,2.6461,2.6688,2.7984,2.9302,3.0107,3.0277,3.0368,3.0722,3.0684,3.0559,3.0326,3.0663,3.104,3.1384,3.2064,3.2888,3.3905,3.423,3.4448,3.4563,3.4448,3.4414,3.4414,3.4414,3.4414,3.4414,3.4414,3.4719,3.5392,3.5101,3.5227,3.5865,3.5777,3.6265,3.7331,3.7926,3.8202,3.8202,3.8202,3.8202,3.8202,3.8202,3.8202,3.8202,3.8202,3.8202,3.8277,3.8885,3.9104,3.9199,4.0076,4.0389,4.0424,4.0718,4.0786,4.0724,4.0448,3.9874,3.9125,3.82,3.8313,3.8491,3.7452,3.8122,3.8826,3.784,3.7551,3.7421,3.7165,3.7135,3.7029,3.6784,3.6723,3.6739,3.6797,3.6863,3.6816,3.6505,3.7122,3.7247,3.632,3.6799,3.689,3.5915,3.5517,3.5198,3.4893,3.4864,3.4733,3.4428,3.4414,3.4545,3.4849,3.4864,3.4864,3.4864,3.5169,3.5314,3.5328,3.6301,3.6548,3.6182,3.7125,3.7362,1.5742,1.7279,1.9154,2.2169,2.2917,2.3232,2.4247,2.5835,2.7119,2.7265,2.835,2.9393,2.9883,3.0161,3.0508,3.0972,3.1158,3.1243,3.1238,3.1402,3.1542,3.166,3.2212,3.2806,3.3345,3.4011,3.4414,3.4414,3.4414,3.4414,3.4414,3.4414,3.4414,3.4414,3.4264,3.4475,3.4995,3.4338,3.4269,3.4821,3.4936,3.5526,3.6525,3.7175,3.767,3.7962,3.8127,3.8127,3.8,3.8127,3.8202,3.8202,3.8202,3.8202,3.8277,3.876,3.8943,3.9017,3.9565,3.9763,3.9748,3.9733,3.9722,3.9616,3.8998,3.8329,3.7628,3.7046,3.7349,3.7816,3.7503,3.8496,3.9239,3.8021,3.7639,3.7371,3.6708,3.6554,3.6445,3.6143,3.609,3.6282,3.6839,3.6958,3.695,3.695,3.7155,3.7114,3.6548,3.6968,3.7012,3.6303,3.6144,3.582,3.5159,3.5016,3.4772,3.4321,3.4192,3.4421,3.5088,3.5217,3.5274,3.5274,3.5941,3.6301,3.6301,3.6823,3.6705,3.5999,3.6448,3.6281,1.5138,1.7396,1.9718,2.14,2.1902,2.2615,2.5043,2.5568,2.5974,2.772,2.9214,3.029,3.0518,3.033,3.0228,3.047,3.091,3.1169,3.1145,3.1882,3.2628,3.3144,3.3277,3.3603,3.4172,3.4346,3.4414,3.4414,3.4414,3.4414,3.4414,3.4414,3.4414,3.4414,3.3707,3.3409,3.3494,3.2761,3.2439,3.2535,3.3093,3.3322,3.3341,3.417,3.5478,3.713,3.7886,3.7772,3.713,3.7886,3.8202,3.8202,3.8202,3.8202,3.8202,3.8277,3.8315,3.8389,3.9017,3.9199,3.9218,3.9143,3.9119,3.8998,3.8333,3.7679,3.7001,3.6465,3.7067,3.7649,3.6585,3.7647,3.8804,3.798,3.7755,3.7456,3.6266,3.6023,3.6158,3.6669,3.6862,3.699,3.7045,3.6702,3.6422,3.6422,3.6918,3.7273,3.7186,3.7244,3.6987,3.6137,3.5503,3.4841,3.4008,3.3479,3.3383,3.3782,3.3356,3.3342,3.3892,3.4489,3.4776,3.4776,3.5793,3.6301,3.6301,3.6214,3.6099,3.5999,3.5833,3.5695,1.546,1.7027,1.8629,2.082,2.1402,2.2066,2.4384,2.5072,2.5699,2.7451,2.8624,2.9487,2.9921,3.0163,3.0406,3.0797,3.1418,3.197,3.2219,3.3055,3.371,3.396,3.3993,3.4109,3.4385,3.4414,3.4414,3.4414,3.4414,3.4196,3.3742,3.3742,3.3534,3.3136,3.2769,3.2577,3.2577,3.2254,3.211,3.211,3.2381,3.2631,3.2869,3.3274,3.4128,3.5325,3.6004,3.608,3.5797,3.6443,3.6738,3.6738,3.6738,3.7039,3.7491,3.7491,3.7772,3.824,3.8501,3.8612,3.8605,3.8567,3.8536,3.8417,3.7816,3.7395,3.703,3.6437,3.6895,3.7499,3.7273,3.8107,3.8852,3.8113,3.7982,3.7624,3.6393,3.6056,3.6025,3.6071,3.6698,3.7227,3.7227,3.7288,3.7213,3.6716,3.6883,3.6902,3.6413,3.6336,3.6206,3.5802,3.5515,3.5057,3.4316,3.4059,3.3831,3.3698,3.3493,3.3614,3.4236,3.456,3.4857,3.5209,3.5656,3.5903,3.5903,3.582,3.5526,3.5089,3.4981,3.469,1.5446,1.6392,1.7464,1.9972,2.0987,2.182,2.3566,2.4618,2.5628,2.7076,2.8011,2.8697,2.9441,2.9935,3.0406,3.0872,3.1713,3.2461,3.2861,3.3776,3.4414,3.4414,3.4414,3.4414,3.4414,3.4414,3.4414,3.4414,3.4414,3.4147,3.3555,3.3297,3.2932,3.2398,3.2001,3.1783,3.1783,3.1613,3.1516,3.1516,3.1516,3.1809,3.2382,3.2382,3.2726,3.3377,3.4358,3.4749,3.474,3.5358,3.5615,3.5615,3.5615,3.5989,3.6557,3.6557,3.7,3.7553,3.7553,3.7553,3.7525,3.7344,3.7325,3.7173,3.6573,3.6388,3.6288,3.5788,3.6131,3.6728,3.7128,3.7739,3.8065,3.7557,3.7441,3.7237,3.646,3.6225,3.6104,3.5927,3.6476,3.7037,3.7158,3.7252,3.712,3.6451,3.6373,3.6124,3.5478,3.552,3.5534,3.5318,3.5318,3.5022,3.4326,3.4153,3.394,3.3555,3.3383,3.3622,3.4272,3.4299,3.4485,3.4979,3.4938,3.5183,3.5615,3.5386,3.5006,3.4397,3.4189,3.3738,1.4422,1.5575,1.689,1.8507,2.036,2.2038,2.3018,2.426,2.5588,2.6844,2.7851,2.874,2.9625,2.9805,2.9895,3.0113,3.1257,3.2123,3.2146,3.3465,3.4414,3.4414,3.4414,3.4414,3.4414,3.4414,3.4414,3.4414,3.4414,3.438,3.4346,3.3624,3.3178,3.3143,3.1719,3.0957,3.0957,3.0279,2.9934,2.9934,2.9934,3.0185,3.0727,3.0727,3.1004,3.1655,3.3847,3.4647,3.447,3.5264,3.5615,3.5615,3.5615,3.5615,3.5655,3.5655,3.5695,3.5735,3.5735,3.5735,3.5654,3.5083,3.4867,3.4745,3.4095,3.3905,3.3892,3.3865,3.4337,3.4826,3.4852,3.5313,3.5762,3.5734,3.5721,3.5841,3.6223,3.6272,3.6482,3.7085,3.6573,3.6244,3.6821,3.5861,3.4969,3.493,3.4891,3.4891,3.4866,3.5276,3.5318,3.4551,3.4468,3.4134,3.3245,3.2655,3.2554,3.3114,3.2592,3.2542,3.3177,3.3202,3.3215,3.324,3.324,3.3995,3.5615,3.4814,3.4439,3.4397,3.3526,3.3154,1.3765,1.4612,1.571,1.7506,1.8929,2.0293,2.1916,2.3152,2.4463,2.6337,2.7174,2.8051,2.9546,2.949,2.9365,2.9832,3.0842,3.1724,3.2055,3.343,3.4414,3.4414,3.4414,3.4414,3.4414,3.4414,3.4414,3.4414,3.3928,3.3416,3.296,3.2169,3.1526,3.1046,3.0495,3.0203,3.0203,2.9741,2.956,2.956,2.987,2.993,2.9636,3.0142,3.067,3.1248,3.2226,3.2746,3.3033,3.3727,3.3995,3.3995,3.3995,3.433,3.4814,3.4814,3.5156,3.5615,3.5615,3.5615,3.5547,3.5344,3.5276,3.5236,3.4979,3.4911,3.4911,3.4911,3.51,3.5276,3.5276,3.5425,3.5615,3.5615,3.5615,3.5666,3.5831,3.5534,3.5339,3.5561,3.5701,3.5821,3.6027,3.5652,3.5021,3.4086,3.3966,3.3634,3.2733,3.3077,3.3315,3.3008,3.3339,3.3454,3.3124,3.288,3.2855,3.3111,3.288,3.2855,3.3111,3.3124,3.3124,3.3124,3.3124,3.3398,3.3995,3.3725,3.3569,3.3581,3.3253,3.3124,1.3254,1.3974,1.5121,1.708,1.82,1.9361,2.155,2.2511,2.3554,2.5643,2.6508,2.7399,2.9055,2.9111,2.9076,2.9691,3.0427,3.1195,3.1992,3.3206,3.4113,3.438,3.4414,3.4414,3.4414,3.4414,3.4298,3.4011,3.352,3.2861,3.2146,3.1341,3.0507,2.9689,2.9663,2.9611,2.9585,2.9404,2.9314,2.9314,2.9673,2.968,2.9426,3.0087,3.0712,3.1298,3.1668,3.2081,3.2528,3.2918,3.3124,3.3124,3.3124,3.3441,3.3937,3.3937,3.4288,3.4746,3.4746,3.4746,3.4746,3.4746,3.4746,3.4746,3.4746,3.4746,3.4746,3.4746,3.4746,3.4746,3.4746,3.4746,3.4746,3.4746,3.4746,3.4746,3.4746,3.4714,3.4763,3.4939,3.4928,3.4915,3.5156,3.4778,3.416,3.3181,3.3047,3.2713,3.1795,3.2152,3.2503,3.2503,3.2842,3.3124,3.3124,3.3124,3.3124,3.3124,3.3124,3.3124,3.3124,3.3124,3.3124,3.3124,3.3124,3.3124,3.3124,3.3124,3.3124,3.3124,3.3124,3.3124,0.0,0.0,0.0,1.7136,1.8184,1.9372,2.183,2.2408,2.2943,2.4737,2.5841,2.6848,2.8211,2.869,2.9076,2.9691,2.9969,3.056,3.1884,3.2684,3.3451,3.423,3.4332,3.4332,3.4332,3.4332,3.4011,3.3227,3.3143,3.2826,3.211,3.1267,3.0367,2.938,2.9341,2.9223,2.9013,2.9013,2.9013,2.9013,2.9025,2.9346,2.9886,3.0437,3.0977,3.1546,3.229,3.2742,3.3025,3.3081,3.3124,3.3124,3.3068,3.3081,3.3081,3.3081,3.3081,3.3081,3.3081,3.3124,3.3124,3.3124,3.3124,3.3124,3.3124,3.3124,3.3124,3.3124,3.3124,3.3124,3.3124,3.3124,3.3124,3.3124,3.3124,3.3124,3.3124,3.394,3.4819,3.5386,3.4364,3.3595,3.4251,3.3181,3.2227,3.2215,3.2215,3.2202,3.219,3.2692,3.3056,3.3056,3.3111,3.3124,3.3124,3.3124,3.3124,3.3124,3.3124,3.3124,3.3124,3.3124,3.3081,3.3081,3.3081,3.3025,3.3025,3.3025,3.3081,3.3081,3.3025,3.3025,1.2507,0.0,0.0,0.0,0.0,0.0,1.9567,2.0311,2.1156,2.3231,2.415,2.5258,2.755,2.7997,2.8352,2.9614,2.9969,3.0391,3.1114,3.1928,3.2484,3.2698,3.2733,3.2733,3.2733,3.2733,3.2627,3.2434,3.1878,3.1439,3.1254,2.9897,2.8939,2.8466,2.7695,2.7261,2.7221,2.7046,2.6953,2.6953,2.7341,2.7326,2.702,2.8009,2.866,2.9026,2.972,3.0416,3.1125,3.2525,3.3124,3.3025,3.2307,3.1989,3.1989,3.1989,3.1989,3.212,3.2853,3.3124,3.3124,3.3124,3.3124,3.3124,3.3124,3.3124,3.3124,3.3124,3.3124,3.3124,3.3124,3.3124,3.3124,3.3124,3.3124,3.3124,3.3124,3.3327,3.3575,3.3771,3.3471,3.3263,3.3428,3.3114,3.2692,3.2277,3.2215,3.2064,3.1675,3.2102,3.2453,3.2453,3.283,3.3124,3.3124,3.3124,3.3124,3.3124,3.3124,3.3124,3.3124,3.3124,3.2754,3.2033,3.1989,3.1669,3.0979,3.1669,3.1989,3.1989,3.1303,3.0979,1.2257,1.2828,1.3793,1.467,0.0,0.0,1.8492,1.938,2.0317,2.2179,2.3237,2.432,2.6078,2.6925,2.768,2.8765,2.9315,2.9912,3.0779,3.1291,3.1709,3.2037,3.211,3.211,3.211,3.211,3.1965,3.1636,3.1156,3.0632,2.9935,2.89,2.8068,2.7574,2.6748,2.6348,2.637,2.6099,2.5964,2.5964,2.6303,2.6218,2.5852,2.704,2.7711,2.7876,2.8891,2.9579,3.0125,3.1392,3.1889,3.1845,3.1258,3.1036,3.1036,3.1036,3.1036,3.108,3.1669,3.1889,3.1889,3.1889,3.1889,3.1977,3.2351,3.2481,3.2481,3.2481,3.2481,3.2581,3.2982,3.3124,3.3124,3.3124,3.2766,3.2481,3.2481,3.2164,3.212,3.2939,3.2754,3.2481,3.2481,3.2164,3.178,3.1409,3.1687,3.1706,3.098,3.1522,3.1816,3.1404,3.1695,3.1889,3.1889,3.1889,3.1889,3.1889,3.1889,3.1889,3.1889,3.1889,3.1625,3.1036,3.1036,3.0531,2.9589,3.0531,3.1036,3.0991,3.0441,3.0215,1.2133,1.2644,1.3597,1.4276,1.4691,0.0,1.8018,1.899,1.9792,2.129,2.2515,2.3552,2.4138,2.5493,2.6677,2.732,2.8123,2.9176,3.0592,3.0796,3.1044,3.1759,3.1833,3.1833,3.1833,3.1833,3.1489,3.0694,3.0544,2.9858,2.841,2.8028,2.7441,2.6648,2.6088,2.5808,2.5852,2.5621,2.5484,2.5484,2.5538,2.5612,2.5645,2.6813,2.7392,2.7524,2.8846,2.9408,2.9454,2.9716,2.9943,3.017,3.0079,3.0034,3.0034,3.0034,3.0034,3.0034,3.017,3.0215,3.0215,3.0215,3.0215,3.0351,3.1169,3.1448,3.1448,3.1448,3.1448,3.1669,3.2525,3.2853,3.2896,3.2797,3.2164,3.1581,3.1492,3.0812,3.0711,3.2438,3.2077,3.1448,3.1448,3.0767,3.0215,3.0215,3.0902,3.1125,3.0306,3.0946,3.1125,3.0306,3.0215,3.0215,3.0215,3.0215,3.0215,3.0215,3.0215,3.0215,3.0215,3.0215,3.017,3.0034,2.9943,2.9452,2.8538,2.9532,2.9988,2.9897,2.9897,2.9897,1.2258,1.2292,1.2563,1.3364,1.3612,0.0,1.6654,1.7007,1.7448,1.973,2.04,2.1023,2.251,2.3398,2.4095,2.4923,2.6417,2.805,2.977,2.9998,3.0075,3.0228,3.0254,3.0254,3.0254,3.0254,2.9896,2.903,2.8255,2.7695,2.7395,2.6513,2.585,2.5462,2.452,2.3907,2.3691,2.3647,2.3647,2.3647,2.4007,2.4319,2.4527,2.5462,2.61,2.6505,2.6806,2.7018,2.7239,2.7285,2.8455,3.0125,2.9314,2.8991,2.8991,2.8991,2.8991,2.913,2.9897,3.0215,3.0215,3.0215,3.0215,3.0215,3.0441,3.0486,3.0486,3.0486,3.0486,3.0531,3.0711,3.1347,3.1713,3.0946,3.1169,3.1403,3.0621,3.0351,3.0306,3.0711,3.0621,3.0486,3.0486,3.0306,3.0215,3.0215,3.0351,3.0396,3.0215,3.0351,3.0396,3.0215,3.0215,3.0215,3.0215,3.0215,3.0215,3.0215,3.0215,3.0215,3.0215,3.0215,2.9806,2.8991,2.8269,2.7762,2.7584,2.8538,2.8585,2.7857,2.7857,2.7857,1.2262,1.2247,1.2366,1.2522,1.2834,0.0,0.0,1.6229,1.7172,1.8998,1.9744,2.0365,2.1243,2.1916,2.2587,2.3289,2.4712,2.6041,2.6964,2.8277,2.917,2.917,2.8752,2.8633,2.9131,2.8712,2.8263,2.7851,2.7354,2.6864,2.6318,2.5683,2.5052,2.4488,2.3691,2.3319,2.3319,2.3188,2.3091,2.3091,2.3359,2.3511,2.3673,2.4469,2.5031,2.5351,2.5742,2.6018,2.6273,2.6273,2.6981,2.8036,2.8039,2.77,2.7338,2.7817,2.7838,2.7761,2.8498,2.876,2.876,2.876,2.876,2.8852,2.9314,2.9441,2.9578,3.0079,2.9852,2.9578,3.0079,3.0531,3.0756,3.0306,3.017,3.0034,2.9532,2.9084,2.876,2.876,2.876,2.8899,2.936,2.9084,2.876,2.876,2.9176,2.9268,2.8806,2.9176,2.9268,2.8806,2.876,2.876,2.876,2.876,2.876,2.876,2.876,2.876,2.876,2.876,2.8538,2.7987,2.7536,2.7309,2.7309,2.7762,2.7762,2.7309,2.7309,2.7309,1.2358,1.2315,1.2389,1.1954,1.232,1.3069,0.0,0.0,0.0,1.8275,1.9247,1.9953,2.0081,2.0607,2.1222,2.1672,2.2923,2.3807,2.379,2.5893,2.7573,2.7786,2.734,2.7296,2.8028,2.7244,2.6721,2.6812,2.6569,2.597,2.4967,2.4702,2.4157,2.3202,2.2765,2.2643,2.2862,2.2643,2.2643,2.2828,2.2905,2.2988,2.3051,2.39,2.4366,2.4466,2.5173,2.5601,2.5761,2.5761,2.5699,2.5709,2.6677,2.6584,2.6013,2.677,2.6864,2.6667,2.704,2.7226,2.7309,2.7309,2.7309,2.7441,2.8222,2.8445,2.8585,2.9395,2.9084,2.8631,2.9441,2.9761,2.9852,2.9669,2.9176,2.8631,2.8445,2.7809,2.7309,2.7309,2.7309,2.7536,2.8315,2.7809,2.7309,2.7309,2.7951,2.8175,2.7404,2.7951,2.8128,2.7394,2.7309,2.7309,2.7309,2.7309,2.7309,2.7309,2.7309,2.7309,2.7309,2.7309,2.7309,2.7309,2.7309,2.7309,2.7309,2.7309,2.7309,2.7309,2.7309,2.7309,1.2814,1.2395,1.2059,1.2079,1.1988,1.229,1.3691,0.0,1.5404,1.6825,0.0,1.8339,1.889,0.0,0.0,1.9427,2.0951,2.1936,2.1528,2.2781,2.4164,2.5347,2.614,2.6627,2.6706,2.5764,2.5289,2.5661,2.4587,2.3568,2.2804,2.2736,2.2164,2.0998,2.0683,2.0548,2.0548,2.0548,2.0962,2.1882,2.2233,2.2536,2.2781,2.4105,2.4529,2.4159,2.4736,2.5084,2.5261,2.5261,2.5024,2.4735,2.5689,2.5968,2.5885,2.6044,2.6304,2.6625,2.6677,2.6957,2.7309,2.7309,2.7309,2.7309,2.7441,2.7441,2.7489,2.7584,2.7536,2.7489,2.7573,2.8269,2.8678,2.7809,2.8175,2.8445,2.7631,2.7404,2.7309,2.7309,2.7309,2.7309,2.7441,2.7357,2.7309,2.7309,2.7404,2.7441,2.7309,2.7394,2.7404,2.7309,2.7309,2.7309,2.7309,2.7309,2.7309,2.7309,2.7309,2.7309,2.7309,2.7309,2.7309,2.7309,2.7309,2.7309,2.7309,2.7309,2.7309,2.7309,2.7309,2.7309,1.3305,1.2882,1.2406,1.2272,1.2157,1.2356,1.342,1.4381,1.5401,1.6693,0.0,0.0,0.0,0.0,0.0,0.0,1.9682,2.0226,1.9969,2.0806,2.2236,2.448,2.4409,2.4371,2.4935,2.4136,2.3635,2.3859,2.2824,2.1915,2.1382,2.1498,2.1221,2.0413,2.0277,2.0187,2.0187,2.0187,2.0413,2.0827,2.0985,2.1156,2.1255,2.188,2.209,2.2071,2.2322,2.2605,2.2961,2.2961,2.3218,2.3721,2.4125,2.4595,2.5202,2.5989,2.6273,2.6293,2.6832,2.7143,2.7309,2.7309,2.7309,2.7309,2.7309,2.7309,2.7309,2.7309,2.7309,2.7309,2.7309,2.7584,2.7809,2.7394,2.7584,2.7762,2.7404,2.7309,2.7309,2.7309,2.7309,2.7309,2.7309,2.7309,2.7309,2.7309,2.7309,2.7309,2.7309,2.7309,2.7309,2.7309,2.7309,2.7309,2.7309,2.7309,2.7309,2.7309,2.6726,2.638,2.638,2.5771,2.5722,2.638,2.638,2.6668,2.7309,2.7309,2.7309,2.7309,2.7309,2.7309,1.3607,1.3297,1.2833,1.2473,1.2402,1.2575,1.307,1.4184,1.5398,1.6334,1.7425,0.0,0.0,0.0,1.8192,1.8385,0.0,1.8423,1.8516,1.8874,2.0117,2.2826,2.2408,2.2169,2.2863,2.2178,2.1716,2.1832,2.1056,2.04,2.0007,2.0212,2.0075,1.9413,1.9413,1.9413,1.9413,1.9413,1.955,1.9824,1.9824,1.9824,1.9824,2.0096,2.024,2.0331,2.0593,2.0998,2.1391,2.1391,2.2066,2.3096,2.3096,2.3681,2.4631,2.5792,2.6061,2.6034,2.6843,2.7195,2.7289,2.7154,2.7123,2.7123,2.7123,2.7029,2.6926,2.6926,2.7019,2.7123,2.7123,2.7216,2.7309,2.7309,2.7309,2.7309,2.7309,2.7309,2.7309,2.7309,2.7309,2.7309,2.7309,2.7309,2.7309,2.7309,2.7309,2.7204,2.6918,2.687,2.6764,2.6466,2.6418,2.6418,2.6418,2.6418,2.6418,2.6418,2.5684,2.5246,2.5246,2.4492,2.459,2.5693,2.5693,2.6235,2.7309,2.7309,2.7309,2.7309,2.7309,2.7309,1.364,1.3437,1.3159,1.2704,1.2681,1.2699,1.2428,1.351,1.4759,1.5263,1.6461,1.7619,1.82,1.7672,1.7207,1.7404,1.6862,0.0,0.0,1.6714,1.7239,1.9393,2.0076,2.0373,2.042,1.9814,1.9502,1.9697,1.9296,1.8862,1.8418,1.8629,1.834,1.7404,1.7372,1.7372,1.7372,1.7372,1.7878,1.8834,1.8834,1.8834,1.888,1.9786,1.9968,1.9575,2.0548,2.123,2.1695,2.1695,2.2262,2.3096,2.3096,2.3681,2.4559,2.5055,2.5533,2.5993,2.647,2.6926,2.7237,2.6781,2.6635,2.6635,2.6635,2.6324,2.5916,2.5916,2.6293,2.6635,2.6635,2.6967,2.7309,2.7309,2.7309,2.7309,2.7309,2.7309,2.7309,2.7309,2.7309,2.7309,2.7309,2.7309,2.7309,2.7309,2.7309,2.6918,2.5887,2.5742,2.5343,2.4285,2.4187,2.4187,2.4187,2.4187,2.4187,2.4187,2.4187,2.4137,2.4137,2.4137,2.459,2.5693,2.5693,2.6235,2.7309,2.7309,2.7309,2.7309,2.7309,2.7309,1.4257,1.404,1.3755,1.3511,1.3283,1.318,1.3257,1.3898,1.4723,1.5695,1.652,1.7126,1.7335,1.7139,1.6862,1.6532,1.6158,1.6035,0.0,1.6386,1.6483,1.6938,1.8361,1.9317,1.9309,1.8757,1.8397,1.8339,1.7759,1.736,1.7253,1.7535,1.7583,1.724,1.727,1.7279,1.7279,1.7481,1.766,1.7831,1.8164,1.8257,1.8079,1.8573,1.8711,1.8581,1.8942,1.9263,1.9554,1.9554,2.0221,2.123,2.123,2.2208,2.3687,2.4784,2.5502,2.5989,2.6801,2.7175,2.7278,2.7123,2.7071,2.7071,2.7071,2.6957,2.6843,2.6843,2.6957,2.7071,2.7071,2.7185,2.7309,2.7309,2.7309,2.7309,2.7309,2.7309,2.7309,2.7309,2.7309,2.7309,2.7309,2.7309,2.7309,2.7309,2.7309,2.6918,2.5839,2.5693,2.5294,2.4187,2.4088,2.4088,2.4088,2.4088,2.4088,2.4088,2.3452,2.302,2.302,2.2367,2.2509,2.3569,2.3569,2.4106,2.5178,2.5178,2.5528,2.6235,2.6235,2.662,1.4497,1.4353,1.4124,1.3863,1.3695,1.359,1.3514,1.3995,1.4718,1.5609,1.6148,1.657,1.6777,1.6537,1.6147,1.5747,1.5333,1.5157,0.0,1.5465,1.5496,1.5221,1.6678,1.7679,1.7669,1.6912,1.659,1.6967,1.611,1.583,1.641,1.6736,1.6778,1.6517,1.7018,1.7138,1.6756,1.7387,1.7574,1.7333,1.7753,1.7861,1.7729,1.7861,1.804,1.8234,1.8234,1.8373,1.8612,1.8612,1.9279,2.0294,2.0294,2.123,2.2779,2.4361,2.5562,2.648,2.6915,2.7164,2.7278,2.7112,2.7061,2.7061,2.7061,2.6946,2.6812,2.6812,2.6936,2.7061,2.7061,2.7185,2.7309,2.7309,2.7309,2.7309,2.7309,2.7013,2.6822,2.7214,2.6668,2.6418,2.7156,2.6965,2.687,2.7251,2.7309,2.6764,2.5333,2.5138,2.459,2.3103,2.2953,2.2953,2.2953,2.2953,2.2953,2.2953,2.2316,2.192,2.192,2.1275,2.142,2.2476,2.287,2.3411,2.4088,2.4492,2.4845,2.5138,2.5138,2.5489]}]]